[[{"header":{"parameterUnit":"m.s-1","parameterCategory":1,"la1":30.6,"la2":28.766,"lo1":-90.7593,"lo2":-88.6598,"dy":0.0162,"dx":0.0183,"nx":116,"ny":114,"refTime":"2023-11-11T06:00:00:Z","depth":0,"parameterNumber":2,"parameterNumberName":"U-component_of_WINDS"},"data":[0.0,0.0,0.0,0.0,0.0,0.0,0.0,0.0,0.0,0.0,0.0,0.0,0.0,0.0,0.0,0.0,0.0,0.0,0.0,0.0,0.0,0.0,0.0,0.0,0.0,0.0,0.0,0.0,0.0,0.0,0.0,0.0,0.0,0.0,0.0,0.0,0.0,0.0,0.0,0.0,0.0,0.0,0.0,0.0,0.0,0.0,0.0,0.0,0.0,0.0,0.0,0.0,0.0,0.0,0.0,0.0,0.0,0.0,0.0,0.0,0.0,0.0,0.0,0.0,0.0,0.0,0.0,0.0,0.0,0.0,0.0,0.0,0.0,0.0,0.0,0.0,0.0,0.0,0.0,0.0,0.0,0.0,0.0,0.0,0.0,0.0,0.0,0.0,0.0,0.0,0.0,0.0,0.0,0.0,0.0,0.0,0.0,0.0,0.0,0.0,0.0,0.0,0.0,0.0,0.0,0.0,0.0,0.0,0.0,0.0,0.0,0.0,0.0,0.0,0.0,0.0,0.0,0.0,0.0,0.0,0.0,0.0,0.0,0.0,0.0,0.0,0.0,0.0,0.0,0.0,0.0,0.0,0.0,0.0,0.0,0.0,0.0,0.0,0.0,0.0,0.0,0.0,0.0,0.0,0.0,0.0,0.0,0.0,0.0,0.0,0.0,0.0,0.0,0.0,0.0,0.0,0.0,0.0,0.0,0.0,0.0,0.0,0.0,0.0,0.0,0.0,0.0,0.0,0.0,0.0,0.0,0.0,0.0,0.0,0.0,0.0,0.0,0.0,0.0,0.0,0.0,0.0,0.0,0.0,0.0,0.0,0.0,0.0,0.0,0.0,0.0,0.0,0.0,0.0,0.0,0.0,0.0,0.0,0.0,0.0,0.0,0.0,0.0,0.0,0.0,0.0,0.0,0.0,0.0,0.0,0.0,0.0,0.0,0.0,0.0,0.0,0.0,0.0,0.0,0.0,0.0,0.0,0.0,0.0,0.0,0.0,0.0,0.0,0.0,0.0,0.0,0.0,0.0,0.0,0.0,0.0,0.0,0.0,0.0,0.0,0.0,0.0,0.0,0.0,0.0,0.0,0.0,0.0,0.0,0.0,0.0,0.0,0.0,0.0,0.0,0.0,0.0,0.0,0.0,0.0,0.0,0.0,0.0,0.0,0.0,0.0,0.0,0.0,0.0,0.0,0.0,0.0,0.0,0.0,0.0,0.0,0.0,0.0,0.0,0.0,0.0,0.0,0.0,0.0,0.0,0.0,0.0,0.0,0.0,0.0,0.0,0.0,0.0,0.0,0.0,0.0,0.0,0.0,0.0,0.0,0.0,0.0,0.0,0.0,0.0,0.0,0.0,0.0,0.0,0.0,0.0,0.0,0.0,0.0,0.0,0.0,0.0,0.0,0.0,0.0,0.0,0.0,0.0,0.0,0.0,0.0,0.0,0.0,0.0,0.0,0.0,0.0,0.0,0.0,0.0,0.0,0.0,0.0,0.0,0.0,0.0,0.0,0.0,0.0,0.0,0.0,0.0,0.0,0.0,0.0,0.0,0.0,0.0,0.0,0.0,0.0,0.0,0.0,0.0,0.0,0.0,0.0,0.0,0.0,0.0,0.0,0.0,0.0,0.0,0.0,0.0,0.0,0.0,0.0,0.0,0.0,0.0,0.0,0.0,0.0,0.0,0.0,0.0,0.0,0.0,0.0,0.0,0.0,0.0,0.0,0.0,0.0,0.0,0.0,0.0,0.0,0.0,0.0,0.0,0.0,0.0,0.0,0.0,0.0,0.0,0.0,0.0,0.0,0.0,0.0,0.0,0.0,0.0,0.0,0.0,0.0,0.0,0.0,0.0,0.0,0.0,0.0,0.0,0.0,0.0,0.0,0.0,0.0,0.0,0.0,0.0,0.0,0.0,0.0,0.0,0.0,0.0,0.0,0.0,0.0,0.0,0.0,0.0,0.0,0.0,0.0,0.0,0.0,0.0,0.0,0.0,0.0,0.0,0.0,0.0,0.0,0.0,0.0,0.0,0.0,0.0,0.0,0.0,0.0,0.0,0.0,0.0,0.0,0.0,0.0,0.0,0.0,0.0,0.0,0.0,0.0,0.0,0.0,0.0,0.0,0.0,0.0,0.0,0.0,0.0,0.0,0.0,0.0,0.0,0.0,0.0,0.0,0.0,0.0,0.0,0.0,0.0,0.0,0.0,0.0,0.0,0.0,0.0,0.0,0.0,0.0,0.0,0.0,0.0,0.0,0.0,0.0,0.0,0.0,0.0,0.0,0.0,0.0,0.0,0.0,0.0,0.0,0.0,0.0,0.0,0.0,0.0,0.0,0.0,0.0,0.0,0.0,0.0,0.0,0.0,0.0,0.0,0.0,0.0,0.0,0.0,0.0,0.0,0.0,0.0,0.0,0.0,0.0,0.0,0.0,0.0,0.0,0.0,0.0,0.0,0.0,0.0,0.0,0.0,0.0,0.0,0.0,0.0,0.0,0.0,0.0,0.0,0.0,0.0,0.0,0.0,0.0,0.0,0.0,0.0,0.0,0.0,0.0,0.0,0.0,0.0,0.0,0.0,0.0,0.0,0.0,0.0,0.0,0.0,0.0,0.0,0.0,0.0,0.0,0.0,0.0,0.0,0.0,0.0,0.0,0.0,0.0,0.0,0.0,0.0,0.0,0.0,0.0,0.0,0.0,0.0,0.0,0.0,0.0,0.0,0.0,0.0,0.0,0.0,0.0,0.0,0.0,0.0,0.0,0.0,0.0,0.0,0.0,0.0,0.0,0.0,0.0,0.0,0.0,0.0,0.0,0.0,0.0,0.0,0.0,0.0,0.0,0.0,0.0,0.0,0.0,0.0,0.0,0.0,0.0,0.0,0.0,0.0,0.0,0.0,0.0,0.0,0.0,0.0,0.0,0.0,0.0,0.0,0.0,0.0,0.0,0.0,0.0,0.0,0.0,0.0,0.0,0.0,0.0,0.0,0.0,0.0,0.0,0.0,0.0,0.0,0.0,0.0,0.0,0.0,0.0,0.0,0.0,0.0,0.0,0.0,0.0,0.0,0.0,0.0,0.0,0.0,0.0,0.0,0.0,0.0,0.0,0.0,0.0,0.0,0.0,0.0,0.0,0.0,0.0,0.0,0.0,0.0,0.0,0.0,0.0,0.0,0.0,0.0,0.0,0.0,0.0,0.0,0.0,0.0,0.0,0.0,0.0,0.0,0.0,0.0,0.0,0.0,0.0,0.0,0.0,0.0,0.0,0.0,0.0,0.0,0.0,0.0,0.0,0.0,0.0,0.0,0.0,0.0,0.0,0.0,0.0,0.0,0.0,0.0,0.0,0.0,0.0,0.0,0.0,0.0,0.0,0.0,0.0,0.0,0.0,0.0,0.0,0.0,0.0,0.0,0.0,0.0,0.0,0.0,0.0,0.0,0.0,0.0,0.0,0.0,0.0,0.0,0.0,0.0,0.0,0.0,0.0,0.0,0.0,0.0,0.0,0.0,0.0,0.0,0.0,0.0,0.0,0.0,0.0,0.0,0.0,0.0,0.0,0.0,0.0,0.0,0.0,0.0,0.0,0.0,0.0,0.0,0.0,0.0,0.0,0.0,0.0,0.0,0.0,0.0,0.0,0.0,0.0,0.0,0.0,0.0,0.0,0.0,0.0,0.0,0.0,0.0,0.0,0.0,0.0,0.0,0.0,0.0,0.0,0.0,0.0,0.0,0.0,0.0,0.0,0.0,0.0,0.0,0.0,0.0,0.0,0.0,0.0,0.0,0.0,0.0,0.0,0.0,0.0,0.0,0.0,0.0,0.0,0.0,0.0,0.0,0.0,0.0,0.0,0.0,0.0,0.0,0.0,0.0,0.0,0.0,0.0,0.0,0.0,0.0,0.0,0.0,0.0,0.0,0.0,0.0,0.0,0.0,0.0,0.0,0.0,0.0,0.0,0.0,0.0,0.0,0.0,0.0,0.0,0.0,0.0,0.0,0.0,0.0,0.0,0.0,0.0,0.0,0.0,0.0,0.0,0.0,0.0,0.0,0.0,0.0,0.0,0.0,0.0,0.0,0.0,0.0,0.0,0.0,0.0,0.0,0.0,0.0,0.0,0.0,0.0,0.0,0.0,0.0,0.0,0.0,0.0,0.0,0.0,0.0,0.0,0.0,0.0,0.0,0.0,0.0,0.0,0.0,0.0,0.0,0.0,0.0,0.0,0.0,0.0,0.0,0.0,0.0,0.0,0.0,0.0,0.0,0.0,0.0,0.0,0.0,0.0,0.0,0.0,0.0,0.0,0.0,0.0,0.0,0.0,0.0,0.0,0.0,0.0,0.0,0.0,0.0,0.0,0.0,0.0,0.0,0.0,0.0,0.0,0.0,0.0,0.0,0.0,0.0,0.0,0.0,0.0,0.0,0.0,0.0,0.0,0.0,0.0,0.0,0.0,0.0,0.0,0.0,0.0,0.0,0.0,0.0,0.0,0.0,0.0,0.0,0.0,0.0,0.0,0.0,0.0,0.0,0.0,0.0,0.0,0.0,0.0,0.0,0.0,0.0,0.0,0.0,0.0,0.0,0.0,0.0,0.0,0.0,0.0,0.0,0.0,0.0,0.0,0.0,0.0,0.0,0.0,0.0,0.0,0.0,0.0,0.0,0.0,0.0,0.0,0.0,0.0,0.0,0.0,0.0,0.0,0.0,0.0,0.0,0.0,0.0,0.0,0.0,0.0,0.0,0.0,0.0,0.0,0.0,0.0,0.0,0.0,0.0,0.0,0.0,0.0,0.0,0.0,0.0,0.0,0.0,0.0,0.0,0.0,0.0,0.0,0.0,0.0,0.0,0.0,0.0,0.0,0.0,0.0,0.0,0.0,0.0,0.0,0.0,0.0,0.0,0.0,0.0,0.0,0.0,0.0,0.0,0.0,0.0,0.0,0.0,0.0,0.0,0.0,0.0,0.0,0.0,0.0,0.0,0.0,0.0,0.0,0.0,0.0,0.0,0.0,0.0,0.0,0.0,0.0,0.0,0.0,0.0,0.0,0.0,0.0,0.0,0.0,0.0,0.0,0.0,0.0,0.0,0.0,0.0,0.0,0.0,0.0,0.0,0.0,0.0,0.0,0.0,0.0,0.0,0.0,0.0,0.0,0.0,0.0,0.0,0.0,0.0,0.0,0.0,0.0,0.0,0.0,0.0,0.0,0.0,0.0,0.0,0.0,0.0,0.0,0.0,0.0,0.0,0.0,0.0,0.0,0.0,0.0,0.0,0.0,0.0,0.0,0.0,0.0,0.0,0.0,0.0,0.0,0.0,0.0,0.0,0.0,0.0,0.0,0.0,0.0,0.0,0.0,0.0,0.0,0.0,0.0,0.0,0.0,0.0,0.0,0.0,0.0,0.0,0.0,0.0,0.0,0.0,0.0,0.0,0.0,0.0,0.0,0.0,0.0,0.0,0.0,0.0,0.0,0.0,0.0,0.0,0.0,0.0,0.0,0.0,0.0,0.0,0.0,0.0,0.0,0.0,0.0,0.0,0.0,0.0,0.0,0.0,0.0,0.0,0.0,0.0,0.0,0.0,0.0,0.0,0.0,0.0,0.0,0.0,0.0,0.0,0.0,0.0,0.0,0.0,0.0,0.0,0.0,0.0,0.0,0.0,0.0,0.0,0.0,0.0,0.0,0.0,0.0,0.0,0.0,0.0,0.0,0.0,0.0,0.0,0.0,0.0,0.0,0.0,0.0,0.0,0.0,0.0,0.0,0.0,0.0,0.0,0.0,0.0,0.0,0.0,0.0,0.0,0.0,0.0,0.0,0.0,0.0,0.0,0.0,0.0,0.0,0.0,0.0,0.0,0.0,0.0,0.0,0.0,0.0,0.0,0.0,0.0,0.0,0.0,0.0,0.0,0.0,0.0,0.0,0.0,0.0,0.0,0.0,0.0,0.0,0.0,0.0,0.0,0.0,0.0,0.0,0.0,0.0,0.0,0.0,0.0,0.0,0.0,0.0,0.0,0.0,0.0,0.0,0.0,0.0,0.0,0.0,0.0,0.0,0.0,0.0,0.0,0.0,0.0,0.0,0.0,0.0,0.0,0.0,0.0,0.0,3.0005,0.0,0.0,0.0,0.0,0.0,0.0,0.0,0.0,0.0,0.0,0.0,0.0,0.0,0.0,0.0,0.0,0.0,0.0,0.0,0.0,0.0,0.0,0.0,0.0,0.0,0.0,0.0,0.0,0.0,0.0,0.0,0.0,0.0,0.0,0.0,0.0,0.0,0.0,0.0,2.9804,3.0055,3.0557,3.0834,3.0532,2.9804,0.0,0.0,0.0,0.0,0.0,0.0,0.0,0.0,0.0,0.0,0.0,0.0,0.0,0.0,0.0,0.0,0.0,0.0,0.0,0.0,0.0,0.0,0.0,0.0,0.0,0.0,0.0,0.0,0.0,0.0,0.0,0.0,0.0,0.0,0.0,0.0,0.0,0.0,0.0,0.0,0.0,0.0,0.0,0.0,0.0,0.0,0.0,0.0,0.0,0.0,0.0,0.0,0.0,0.0,0.0,0.0,0.0,0.0,0.0,0.0,0.0,0.0,0.0,0.0,0.0,0.0,0.0,0.0,0.0,0.0,0.0,3.1863,0.0,0.0,0.0,0.0,0.0,0.0,0.0,0.0,0.0,0.0,0.0,0.0,0.0,0.0,0.0,0.0,0.0,0.0,0.0,0.0,0.0,0.0,0.0,0.0,2.9804,2.9804,2.9804,0.0,0.0,0.0,0.0,0.0,0.0,0.0,0.0,2.9804,2.9804,2.9804,3.0281,3.116,3.2437,3.3068,3.2717,3.1486,3.0608,0.0,0.0,0.0,0.0,0.0,0.0,0.0,0.0,0.0,0.0,0.0,0.0,0.0,0.0,0.0,0.0,0.0,0.0,0.0,0.0,0.0,0.0,0.0,0.0,0.0,0.0,0.0,0.0,0.0,0.0,0.0,0.0,0.0,0.0,0.0,0.0,0.0,0.0,0.0,0.0,0.0,0.0,0.0,0.0,0.0,0.0,0.0,0.0,0.0,0.0,0.0,0.0,0.0,0.0,0.0,0.0,0.0,0.0,0.0,0.0,0.0,0.0,0.0,3.8341,3.9346,4.0425,4.0626,4.0953,4.1204,3.8065,3.568,3.3919,0.0,0.0,0.0,0.0,0.0,0.0,0.0,0.0,0.0,0.0,0.0,0.0,0.0,0.0,0.0,0.0,0.0,0.0,0.0,0.0,0.0,0.0,2.9804,2.9804,2.9804,2.9804,2.9804,0.0,0.0,0.0,0.0,0.0,0.0,2.9804,2.9804,2.9804,2.9804,3.219,3.4399,3.6457,3.7512,3.8165,3.8191,3.3847,3.2946,3.4555,0.0,0.0,0.0,0.0,0.0,0.0,0.0,0.0,0.0,0.0,0.0,0.0,0.0,0.0,0.0,0.0,0.0,0.0,0.0,0.0,0.0,0.0,0.0,0.0,0.0,0.0,0.0,0.0,0.0,0.0,0.0,0.0,0.0,0.0,0.0,0.0,0.0,0.0,0.0,0.0,0.0,3.1637,3.1235,0.0,0.0,0.0,0.0,0.0,0.0,0.0,0.0,0.0,0.0,0.0,0.0,0.0,3.7839,3.927,4.143,4.216,4.1483,4.3915,4.4468,4.3288,4.4267,4.4769,4.4819,4.4794,0.0,3.7211,3.528,0.0,0.0,0.0,0.0,0.0,0.0,0.0,0.0,0.0,0.0,0.0,0.0,0.0,0.0,0.0,0.0,0.0,0.0,0.0,0.0,0.0,3.0608,3.1035,3.0728,3.2692,3.304,3.0834,0.0,0.0,0.0,0.0,2.9804,2.9804,2.9804,3.0708,3.2545,3.5328,3.7663,3.9521,4.0376,4.1029,4.1482,3.9245,3.7437,3.5882,3.38,0.0,0.0,0.0,0.0,0.0,0.0,0.0,0.0,0.0,0.0,0.0,0.0,0.0,0.0,0.0,0.0,0.0,0.0,0.0,0.0,0.0,0.0,0.0,0.0,0.0,0.0,0.0,0.0,0.0,0.0,0.0,0.0,0.0,0.0,0.0,0.0,0.0,0.0,0.0,3.239,3.3068,3.1582,3.2717,3.2717,0.0,0.0,0.0,0.0,0.0,0.0,0.0,0.0,0.0,3.9094,4.08,4.2055,4.2783,4.502,4.6175,4.6381,4.7883,4.8736,4.8905,4.9189,4.9491,4.9733,4.9454,4.7424,4.406,4.004,3.7237,3.5255,0.0,0.0,0.0,0.0,0.0,3.2817,0.0,0.0,0.0,0.0,0.0,0.0,0.0,0.0,0.0,0.0,0.0,0.0,3.0357,3.1863,3.2867,3.2867,3.5403,3.5828,3.3043,3.3495,0.0,0.0,3.0005,2.9804,2.9804,3.0608,3.2667,3.5983,3.8919,4.1254,4.3009,4.3865,4.4522,4.4869,4.4773,4.2308,3.8191,3.6332,3.4525,3.2763,0.0,0.0,0.0,0.0,0.0,0.0,0.0,0.0,0.0,0.0,0.0,0.0,0.0,0.0,0.0,0.0,0.0,0.0,0.0,0.0,0.0,0.0,0.0,0.0,0.0,0.0,0.0,0.0,0.0,0.0,0.0,0.0,0.0,0.0,0.0,0.0,0.0,3.3972,3.4653,3.2315,3.4477,3.4703,0.0,0.0,0.0,0.0,0.0,0.0,3.8165,3.9874,4.1601,4.3419,4.5584,4.6892,4.7226,4.9074,5.0403,5.113,5.1681,5.2463,5.3433,5.3251,5.3268,5.3332,5.2653,5.1481,4.9722,4.4615,4.0891,3.8226,3.5917,3.4727,3.4342,3.4884,3.4785,3.454,0.0,0.0,0.0,0.0,0.0,0.0,0.0,0.0,0.0,0.0,0.0,3.0382,3.1893,3.3574,3.518,3.6783,3.6609,3.6584,3.6909,3.3567,3.1712,3.2043,3.0608,2.9804,2.9804,3.2867,3.6083,3.9446,4.2735,4.5417,4.7606,4.9238,5.0017,5.0017,4.949,4.7079,4.3187,3.9446,3.7487,3.6582,3.2842,0.0,0.0,0.0,0.0,0.0,0.0,0.0,0.0,0.0,0.0,0.0,0.0,0.0,0.0,0.0,0.0,0.0,0.0,0.0,0.0,0.0,0.0,0.0,0.0,0.0,0.0,0.0,0.0,0.0,0.0,0.0,0.0,0.0,0.0,0.0,0.0,0.0,0.0,3.4098,3.7588,0.0,0.0,0.0,0.0,3.7588,3.9195,4.1103,4.3313,4.502,4.6995,4.928,5.1388,5.3048,5.4301,5.5285,5.5599,5.5309,5.5855,5.5658,5.4893,5.541,5.509,5.4156,5.4095,5.3395,5.2021,4.757,4.3325,3.9435,3.7706,3.5903,3.4185,3.4029,3.4551,3.5302,0.0,0.0,0.0,0.0,0.0,0.0,0.0,0.0,0.0,2.9377,3.0909,3.2541,3.4151,3.7087,3.9471,4.0828,4.2057,4.1806,3.9471,3.701,3.5102,3.385,3.1888,3.1838,3.3997,3.6584,3.9722,4.3413,4.6024,4.8259,5.0092,5.0695,5.0971,5.0971,5.1147,4.964,4.6808,4.3237,4.0601,3.8492,3.4951,3.2667,0.0,0.0,0.0,0.0,0.0,0.0,0.0,0.0,0.0,0.0,0.0,0.0,0.0,0.0,0.0,0.0,0.0,0.0,0.0,0.0,0.0,0.0,0.0,0.0,0.0,0.0,0.0,0.0,0.0,0.0,0.0,0.0,0.0,0.0,0.0,0.0,0.0,3.9321,4.2509,0.0,3.9321,3.9999,4.0971,4.1798,4.3969,4.613,4.8049,5.0388,5.2232,5.3484,5.5319,5.6179,5.5966,5.6622,5.6721,5.6224,5.5245,5.4621,5.4262,5.3069,5.2327,5.1943,5.1692,5.0944,4.9875,4.8316,4.6286,4.3882,4.0635,3.8935,3.8326,3.8515,3.8411,3.8187,0.0,0.0,0.0,0.0,0.0,0.0,0.0,0.0,2.8706,2.9654,3.2039,3.4399,3.6434,4.0273,4.3338,4.4848,4.5598,4.4945,4.2359,3.8793,3.6161,3.4753,3.3319,3.4073,3.7437,4.0224,4.3263,4.6602,4.8987,5.0645,5.1574,5.1925,5.2,5.185,5.2226,5.1574,5.0017,4.7431,4.4066,4.0276,3.7111,3.5278,3.4048,0.0,0.0,0.0,0.0,0.0,0.0,0.0,0.0,0.0,0.0,0.0,0.0,0.0,0.0,0.0,0.0,0.0,0.0,0.0,0.0,0.0,0.0,0.0,0.0,0.0,0.0,0.0,0.0,0.0,0.0,0.0,0.0,0.0,0.0,0.0,4.3165,4.3369,4.6615,4.7427,4.3792,4.4758,4.5955,4.6766,4.9124,5.1225,5.2816,5.4911,5.593,5.5595,5.745,5.7765,5.6297,5.6622,5.6526,5.6031,5.4207,5.3268,5.3131,5.1834,5.1139,5.0944,5.0679,5.0012,4.9058,4.8457,4.7595,4.6243,4.3067,4.1383,4.0822,4.094,4.055,3.9968,0.0,0.0,0.0,0.0,0.0,0.0,0.0,2.853,2.9107,2.9754,3.2721,3.5881,3.8718,4.2989,4.6557,4.8743,4.6853,4.5577,4.5497,3.8566,3.4547,3.4753,3.4828,3.6459,3.9873,4.3664,4.6708,4.8944,5.1624,5.2644,5.2201,5.3231,5.3457,5.2945,5.2945,5.2945,5.2845,5.1825,4.7939,4.221,3.9346,3.8467,3.8441,0.0,0.0,0.0,0.0,0.0,0.0,0.0,0.0,0.0,0.0,0.0,0.0,0.0,0.0,0.0,0.0,0.0,0.0,0.0,0.0,0.0,0.0,0.0,0.0,0.0,0.0,0.0,0.0,0.0,0.0,0.0,0.0,0.0,3.9257,4.3652,4.652,4.6062,4.9843,5.0814,4.6665,4.9162,5.1474,5.2468,5.4586,5.629,5.7397,5.8413,5.7952,5.57,5.779,5.7831,5.5536,5.5497,5.5345,5.4899,5.3093,5.2015,5.1642,5.1993,5.1844,5.1325,5.1325,5.0804,4.9835,4.8149,4.699,4.61,4.4737,4.3007,4.1211,4.0742,4.0528,4.045,0.0,0.0,0.0,0.0,0.0,0.0,0.0,2.8247,2.8976,3.0733,3.455,3.8316,4.1532,4.6175,4.9791,5.1624,4.9044,4.6783,4.5602,3.9018,3.5435,3.5904,3.7839,4.1028,4.5547,4.7104,4.9371,5.2352,5.3105,5.3632,5.3919,5.422,5.4119,5.3722,5.4004,5.3743,5.3039,5.3017,5.1398,4.8416,4.3991,4.1103,3.917,0.0,0.0,0.0,0.0,0.0,0.0,0.0,0.0,0.0,0.0,0.0,0.0,0.0,0.0,0.0,0.0,0.0,0.0,0.0,0.0,0.0,0.0,0.0,0.0,0.0,0.0,0.0,0.0,0.0,0.0,0.0,4.0312,4.3286,4.4373,4.7136,5.0026,5.2656,5.4733,5.5521,5.4341,5.5396,5.6165,5.6152,5.7717,5.8662,5.8676,5.8389,5.7586,5.6216,5.587,5.5026,5.365,5.3622,5.3598,5.3451,5.1359,5.027,5.0141,4.864,4.7892,4.7727,4.7727,4.7405,4.6859,4.641,4.5681,4.4869,4.4113,4.3315,4.254,4.207,4.1523,4.0937,0.0,0.0,0.0,0.0,0.0,0.0,0.0,2.8279,2.9327,3.1808,3.6358,4.0549,4.3718,4.8485,5.154,5.1816,4.9038,4.6145,4.345,3.8615,3.6226,3.7021,4.0686,4.4486,4.8283,4.9839,5.1731,5.4059,5.3967,5.4195,5.4699,5.4744,5.4848,5.5011,5.5047,5.4873,5.4478,5.455,5.3754,5.2163,4.8992,4.6275,4.384,4.0703,3.9521,3.927,3.7262,3.696,3.7161,3.4751,0.0,0.0,0.0,0.0,0.0,0.0,0.0,0.0,0.0,0.0,0.0,0.0,0.0,0.0,0.0,0.0,0.0,0.0,0.0,0.0,0.0,0.0,0.0,0.0,4.4997,4.8515,5.1072,5.209,5.3631,5.6476,5.759,5.7786,5.6821,5.7369,5.7295,5.6074,5.7131,5.7705,5.722,5.6755,5.5857,5.4448,5.4212,5.343,5.2083,5.1891,5.1785,5.1785,4.9723,4.8743,4.8743,4.742,4.6836,0.0,4.6641,4.6328,4.5937,4.5937,4.5332,0.0,0.0,0.0,0.0,0.0,4.2266,4.1641,0.0,0.0,0.0,0.0,0.0,0.0,0.0,2.8505,2.9835,3.2713,3.7814,4.2206,4.4819,4.9565,5.1941,5.0511,4.7732,4.4331,4.0413,3.8012,3.7415,3.887,4.3606,4.7264,4.9603,5.2099,5.3864,5.4831,5.4657,5.4745,5.5075,5.5201,5.5719,5.6537,5.6236,5.6136,5.6211,5.5909,5.4996,5.3825,5.342,5.2109,5.0002,4.5969,4.5271,4.5969,4.2883,4.0625,3.8919,3.7587,0.0,0.0,0.0,0.0,0.0,0.0,0.0,0.0,0.0,0.0,0.0,0.0,0.0,0.0,0.0,0.0,0.0,0.0,0.0,0.0,0.0,0.0,0.0,0.0,4.962,5.3041,5.7622,5.7163,5.684,5.8298,5.8877,5.8278,5.6015,5.6559,5.6162,5.4106,5.476,5.511,5.4652,0.0,0.0,0.0,0.0,5.2438,5.0768,5.0336,5.0155,5.011,4.8444,4.7656,4.7656,4.7558,4.75,4.748,4.7051,4.6641,4.6289,4.625,4.5508,4.4394,4.4336,4.4062,4.3652,4.3223,4.2832,0.0,0.0,0.0,0.0,0.0,0.0,0.0,0.0,2.8197,2.9428,3.2663,3.7513,4.1229,4.2663,4.7286,5.0293,5.0386,4.6652,4.3009,3.9997,3.9223,4.0624,4.4515,4.7181,5.0136,5.3609,5.472,5.5595,5.6213,5.6603,5.6835,5.6912,5.6895,5.7085,5.7365,5.7638,5.6767,5.5134,5.535,5.4195,5.2298,5.3678,5.2754,5.0431,4.901,4.7857,4.6747,4.5246,4.5246,4.5547,4.2688,4.1733,4.1229,3.8492,3.5956,0.0,0.0,0.0,0.0,0.0,0.0,0.0,0.0,0.0,0.0,0.0,0.0,0.0,0.0,0.0,0.0,0.0,0.0,0.0,5.0257,5.3624,5.6311,5.7829,5.782,5.789,5.8632,5.8794,5.8054,5.5998,5.5951,5.5882,5.5413,5.5542,5.5653,5.5566,5.4114,5.3128,5.2759,5.1151,5.0119,4.9769,4.9361,4.9189,4.9189,0.0,0.0,4.8066,4.7363,4.7051,4.7031,4.6601,4.6367,4.6269,4.5937,4.5254,4.4355,4.3984,4.3789,4.3652,4.3223,4.3027,4.2851,0.0,0.0,0.0,0.0,0.0,0.0,0.0,2.8097,2.9164,3.2118,3.6437,3.952,4.0269,4.4044,4.6,4.4569,4.1201,3.918,3.9232,4.0905,4.3842,4.8115,5.0803,5.3203,5.5372,5.5748,5.5682,5.526,5.5343,5.5287,5.5049,5.5085,5.5494,5.6235,5.6212,5.571,5.4868,5.4803,5.4096,5.3025,5.3918,5.3474,5.2353,5.2875,5.2025,5.0537,4.9992,4.9204,4.8176,4.6254,4.4999,4.384,4.1658,3.922,3.6935,0.0,0.0,0.0,0.0,0.0,0.0,0.0,0.0,0.0,0.0,0.0,0.0,0.0,0.0,4.1467,4.4001,0.0,5.0169,5.3223,5.4986,5.6314,5.7156,5.7313,5.7313,5.729,5.729,5.6527,5.4573,5.4602,5.4314,5.3359,5.3472,5.3514,5.3333,5.2417,5.1799,5.1598,5.0459,4.9746,4.9484,4.9297,4.9082,4.8913,4.8633,4.8535,4.8516,4.7871,4.7558,4.7539,4.6894,4.6621,4.6562,4.5937,4.5176,4.4375,4.4141,4.3906,4.3691,4.3476,4.3262,4.2988,0.0,0.0,0.0,0.0,0.0,0.0,0.0,2.8097,2.8975,3.1427,3.5069,3.7516,3.7643,4.0428,4.1051,3.7916,3.6481,3.6895,3.9574,4.3203,4.7084,5.1211,5.3696,5.5468,5.6449,5.5743,5.502,5.4277,5.384,5.3411,5.305,5.3081,5.3822,5.5027,5.4586,5.4475,5.4517,5.4117,5.376,5.3471,5.3685,5.3821,5.3997,5.5643,5.5468,5.43,5.4402,5.2196,4.9182,4.886,4.7091,4.4886,4.414,4.2465,4.0389,3.8541,3.7394,0.0,0.0,0.0,0.0,0.0,0.0,0.0,0.0,3.6617,3.8562,4.0762,4.3078,4.573,4.9086,5.0708,5.2445,5.5195,5.5424,5.5513,5.6238,5.6275,5.5964,5.5031,5.5374,5.4932,5.3021,5.3175,5.2794,5.1268,5.1484,5.1504,5.1074,5.1055,5.0859,5.043,5.0351,5.0137,4.9785,4.9562,4.9336,4.9031,4.8952,4.8913,4.8894,4.8398,4.8203,4.8164,4.7305,4.6831,4.6738,4.5996,4.5215,4.4512,4.4433,4.416,4.3828,4.373,4.3496,4.3144,0.0,0.0,0.0,0.0,0.0,0.0,0.0,0.0,2.885,3.0925,3.3709,3.5282,3.4652,3.6677,3.7122,3.4802,3.8023,4.1024,4.3015,4.6552,5.0565,5.499,5.4626,5.5523,5.8086,5.491,5.4024,5.5578,5.4706,5.4259,5.4237,5.4237,5.4737,5.5698,5.5262,5.4406,5.3186,5.3161,5.2162,5.0801,5.2472,5.3103,5.327,5.478,5.526,5.5122,5.5477,5.3222,5.0109,5.0527,4.8912,4.6696,4.7066,4.6001,4.4072,4.152,3.8985,3.6701,3.5008,3.4368,3.4518,3.5941,3.6427,3.7591,0.0,4.171,4.2204,4.6418,4.675,4.7195,5.0178,5.1674,5.319,5.5329,5.6069,5.6096,5.5339,5.5177,5.4314,5.213,5.3835,5.4416,5.2393,5.2591,5.2728,5.25,5.2539,5.2383,5.1953,5.1933,5.1738,5.126,5.0937,5.0723,5.0664,4.9902,4.9492,4.9453,4.9043,4.8913,4.8894,4.8398,4.8203,4.8164,4.7305,4.6719,4.6328,4.5859,4.5391,4.4922,4.4551,4.4355,4.4277,4.3848,4.3672,4.3574,0.0,0.0,0.0,0.0,0.0,0.0,0.0,0.0,0.0,0.0,3.1617,3.2342,3.1139,3.185,3.1782,3.0222,3.5112,3.9424,4.2168,4.7782,5.2421,5.5649,5.5669,5.5759,5.6071,5.4272,5.3322,5.3363,5.3209,5.2726,5.1965,5.2185,5.2635,5.3249,5.3044,5.2661,5.2056,5.2056,5.1598,5.0946,5.1741,5.2056,5.2153,5.2865,5.2367,5.135,5.1901,5.009,0.0,4.779,4.6568,4.5155,4.678,4.5174,4.2389,4.0693,3.9074,3.747,3.5693,3.6234,3.7028,3.6145,3.8229,4.1057,4.3296,4.3894,4.5047,4.8991,5.0165,5.111,5.3305,5.3833,5.431,5.5503,5.4909,5.4166,5.3771,5.3195,5.2346,5.0877,5.1824,5.2474,5.2129,5.2246,5.2558,5.3047,5.2851,5.2637,5.2461,5.2207,5.1875,5.1397,5.1269,5.0937,5.0449,5.0332,4.9883,4.9141,4.9219,4.9101,4.8894,4.8718,4.832,4.7832,4.7461,4.6777,4.5937,4.6016,4.5644,4.4957,4.4824,4.4453,4.3965,4.3769,4.3555,4.332,0.0,0.0,0.0,0.0,0.0,0.0,0.0,0.0,0.0,0.0,2.9899,2.993,2.8507,2.8574,2.8195,2.6917,3.2559,3.753,4.0748,4.7436,5.2497,5.5224,5.5415,5.5157,5.4629,5.3325,5.245,5.199,5.1867,5.1377,5.0527,5.0723,5.1094,5.1601,5.1436,5.1455,5.1621,5.1738,5.167,5.1601,5.1601,5.1328,5.0847,5.0368,4.866,4.6639,4.7803,4.6176,4.346,4.3458,4.2492,4.1689,4.3876,4.2797,4.048,3.9192,3.8135,3.7044,3.5756,3.7174,3.8744,3.7366,4.0355,4.3964,4.5252,4.6296,4.8003,5.1496,5.2628,5.3439,5.5016,5.4726,5.4484,5.498,5.3847,5.2891,5.2891,5.2148,5.1172,4.9961,4.998,5.0371,5.1113,5.1738,5.2441,5.3351,5.3066,5.2891,5.2891,5.248,5.2051,5.1621,5.1455,5.1133,5.0527,5.0586,5.0156,4.9265,4.9297,4.918,4.8894,4.8776,4.834,4.7734,4.75,4.6875,4.6035,4.623,4.5937,4.5309,4.5074,4.4707,4.4199,4.3711,4.334,4.3146,0.0,0.0,0.0,0.0,0.0,0.0,0.0,0.0,0.0,0.0,0.0,0.0,0.0,2.8018,2.7794,2.5986,3.1833,3.6813,3.9669,4.5415,5.0384,5.4069,5.3078,5.3306,5.5108,5.1947,5.1162,5.2941,5.1526,5.1025,5.1338,5.0996,5.125,5.2051,5.1621,5.166,5.209,5.25,5.2441,5.207,5.207,5.1074,4.9355,4.7232,4.4341,4.1754,4.44,4.2304,3.8291,3.7953,3.7036,3.6305,3.7932,3.9302,3.9887,3.7791,3.6026,3.4721,3.4809,3.6279,3.8335,4.0729,4.315,4.5733,4.8744,4.9932,5.1346,5.4831,5.3723,5.2598,5.4054,5.349,5.2932,5.3362,5.344,5.339,5.339,5.2647,5.1269,4.9206,4.8535,4.8457,4.8952,5.0907,5.2441,5.3351,5.339,5.339,5.339,5.293,5.25,5.207,5.166,5.1377,5.1338,5.0605,5.0176,5.0137,4.9324,4.8913,4.8894,4.8418,4.8223,4.8144,4.7305,4.6889,4.6811,4.6465,4.6289,4.6191,4.5351,4.5273,4.541,4.3752,4.3127,4.3185,0.0,0.0,0.0,0.0,0.0,0.0,0.0,0.0,0.0,0.0,0.0,0.0,0.0,0.0,0.0,0.0,2.9964,3.3897,3.5637,4.1715,4.6197,4.8194,5.0352,5.1355,5.1047,5.0766,5.1058,5.1937,5.1422,5.1445,5.1855,5.1426,5.168,5.248,5.2051,5.2109,5.248,5.2344,5.2207,5.1953,5.0547,4.9785,4.9094,4.5527,4.2031,3.8779,0.0,3.5227,3.3458,3.3372,3.2463,3.187,3.4665,3.4774,3.3865,3.3972,3.4016,3.4351,3.5587,3.8755,4.1882,4.2744,4.5575,4.8815,5.1287,5.1683,5.2166,5.432,5.2674,5.0923,5.1066,5.0818,5.0918,5.1914,5.2793,5.3457,5.3769,5.3047,5.1387,4.8405,4.8424,4.819,4.6919,4.8737,0.0,5.2383,5.2569,5.2637,5.291,5.2519,5.2226,5.209,5.166,5.126,5.1016,5.1016,5.0586,4.9746,4.9187,4.8913,4.8894,4.8398,4.8047,4.7754,4.7187,4.6777,4.6504,4.6367,4.6308,4.625,4.5683,4.5371,4.5176,4.459,4.4004,4.3476,0.0,0.0,0.0,0.0,0.0,0.0,0.0,0.0,0.0,0.0,0.0,0.0,0.0,0.0,0.0,0.0,0.0,3.1087,3.2308,3.7256,4.0951,4.2758,4.512,4.607,4.5433,4.6074,4.6875,4.7773,4.8021,4.8828,5.0019,4.9883,5.0273,5.1094,5.082,5.0937,5.1308,5.1103,5.0488,4.9629,4.7793,4.6367,4.4938,4.1269,3.791,0.0,3.1484,2.9739,2.8966,2.9013,2.8503,2.8294,3.0678,3.0766,3.0336,3.209,3.3636,3.5271,3.7746,4.1404,4.4704,4.5549,4.8241,5.0966,5.235,5.2505,5.2394,5.2746,5.0934,4.9023,4.8281,4.7773,4.8066,4.9961,5.0859,5.1816,5.334,5.2266,5.0508,4.8346,4.8033,4.7506,4.625,4.7545,4.9285,5.125,5.1816,5.2266,5.2695,5.2598,5.2539,5.2539,5.1973,5.1543,5.1269,5.1074,5.041,4.9277,4.905,4.8913,4.8894,4.8398,4.8066,4.7773,4.7344,4.6914,4.6523,4.6523,4.6445,4.6269,4.584,4.5586,4.543,4.4961,4.4629,4.4297,0.0,0.0,0.0,0.0,0.0,0.0,0.0,0.0,0.0,0.0,0.0,0.0,0.0,0.0,0.0,0.0,0.0,0.0,2.9642,3.2155,3.4891,3.7797,3.7868,3.8223,3.9043,3.875,3.9432,4.1113,4.1855,4.3516,4.5976,4.6367,4.6992,4.7851,4.7832,4.8066,4.8503,4.8464,4.7271,4.5254,4.3867,4.1113,3.7578,3.4961,3.2433,2.9922,2.7832,2.623,2.5121,2.5121,2.5449,2.5952,2.6445,2.7734,2.96,3.2383,3.483,3.7476,4.1089,4.4115,4.6876,4.9203,5.0996,5.2168,5.2148,5.2383,5.2109,5.0351,4.8535,4.6875,4.557,4.4355,4.459,4.7558,4.791,4.8984,5.2344,5.0683,4.9128,4.9011,4.7519,4.666,4.6948,4.7461,4.8437,5.0078,0.0,5.2246,5.2715,5.3144,5.339,5.3371,5.2519,5.207,5.2051,5.0801,4.9766,4.8972,4.8933,4.8913,4.8894,4.8398,4.8203,4.8183,4.7734,4.7305,4.6889,4.687,4.666,4.6269,4.5859,4.5957,4.6152,4.4941,4.5,4.5488,0.0,0.0,0.0,0.0,0.0,0.0,0.0,0.0,0.0,0.0,0.0,0.0,0.0,0.0,0.0,0.0,0.0,0.0,2.5839,2.8277,3.0378,3.1778,3.4838,3.6758,3.7305,3.818,3.8945,3.9707,3.9609,4.0234,4.1523,4.1289,4.1816,4.2949,4.2637,4.2715,4.3127,4.2461,4.1875,4.1172,3.8887,3.7578,3.668,3.3801,3.1641,3.0011,2.8516,2.6934,2.5542,2.5542,2.6674,2.8215,2.8996,3.0215,3.1935,3.4877,3.7964,4.1186,4.4674,4.8038,5.1007,5.2912,5.3457,5.3457,5.3155,5.2129,5.0527,4.7851,4.5156,4.2578,4.0312,4.1211,4.3066,4.5449,4.8711,5.1699,5.3867,5.332,5.2109,5.0508,4.9922,4.9316,4.8457,4.9336,5.0176,0.0,5.123,5.207,5.3144,5.3351,5.3253,5.2891,5.2363,5.1933,5.1601,5.0644,5.0106,4.9891,4.9226,4.8913,4.8894,4.8398,4.8203,4.8164,4.7422,4.7031,4.687,4.6601,4.6406,4.6289,4.6191,4.6211,4.6269,4.5937,4.5762,4.559,0.0,0.0,0.0,0.0,0.0,0.0,0.0,0.0,0.0,0.0,0.0,0.0,0.0,0.0,0.0,0.0,0.0,0.0,0.0,2.541,2.6699,2.7585,2.9726,3.1309,3.2179,3.2285,3.3125,3.4687,3.4453,3.5176,3.6777,3.6894,3.7344,3.8083,3.7988,3.8223,3.863,3.791,3.7187,0.0,0.0,3.3164,3.2531,3.0458,2.9297,2.8703,2.7988,2.7851,2.8059,2.8625,2.9512,3.0605,3.2051,3.3769,3.5952,3.9336,4.2226,4.5137,4.8769,5.1582,5.373,5.4707,5.4629,5.3808,5.1885,5.0058,4.7695,4.373,4.082,3.8359,3.6294,3.7773,4.0215,4.3125,4.7109,5.082,5.3691,5.3574,5.2949,5.2305,5.1875,5.1348,5.0625,5.1387,5.2012,5.2207,5.2246,5.2598,5.3371,5.3781,5.3828,5.3594,5.2969,5.2246,5.1397,5.0781,5.0273,4.9883,4.9394,4.9043,4.8894,4.8659,4.8496,4.8476,0.0,4.7656,4.7461,4.7031,4.6758,4.6562,4.6367,4.6308,4.6308,4.6308,4.6152,4.582,0.0,0.0,0.0,0.0,0.0,0.0,0.0,0.0,0.0,0.0,0.0,0.0,0.0,0.0,0.0,0.0,0.0,0.0,0.0,0.0,2.4062,2.4887,2.459,2.5,2.6269,2.5176,2.5874,2.8567,2.8508,2.9687,3.1953,3.2715,3.3117,3.3176,3.3516,3.3906,3.4258,3.3789,3.2754,3.1338,3.0156,2.8809,2.7448,0.0,2.6699,2.6986,2.6986,2.8496,3.0742,3.2598,3.3242,3.3704,3.5898,3.834,4.1133,4.4863,4.7129,4.9219,5.2862,5.4746,5.5723,5.5664,5.5078,5.3496,4.9695,4.709,4.4101,3.9023,3.6328,3.4473,3.3144,3.4609,3.7269,4.125,4.4863,4.8711,5.3086,5.2969,5.293,5.4297,5.3574,5.3008,5.3125,5.3418,5.3789,5.418,5.3887,5.3703,5.3586,5.4309,5.4629,5.4512,5.3762,5.2715,5.1475,5.1094,5.0488,4.964,4.959,4.9316,4.8991,4.8933,4.8913,4.8894,0.0,0.0,4.8164,4.7754,4.7324,4.685,4.6523,4.6348,4.6308,4.6308,4.6308,4.6191,0.0,0.0,0.0,0.0,0.0,0.0,0.0,0.0,0.0,0.0,0.0,0.0,0.0,0.0,0.0,0.0,0.0,0.0,0.0,0.0,0.0,2.4007,2.4277,2.484,2.5796,2.5601,2.5913,2.6816,2.644,2.6674,2.75,2.7656,2.791,2.8242,2.8293,2.8398,2.8437,2.8008,2.7656,2.7389,2.7148,2.6875,2.6666,2.6836,0.0,0.0,2.6986,2.7539,2.8992,3.3828,3.707,3.9512,4.2051,4.459,4.7207,5.0039,5.1836,5.3359,5.5449,5.6973,5.7836,5.7519,5.5541,5.2706,4.9121,4.4805,4.0254,3.5815,3.3437,3.1797,3.0517,3.3398,3.7367,4.1601,4.584,5.0176,5.4844,5.4765,5.4844,5.6465,5.5293,5.4609,5.526,5.5137,5.5,5.5078,5.5332,5.5195,5.4492,5.459,5.4355,5.3664,5.3086,5.2539,5.1973,5.1543,5.1074,5.0566,4.9816,4.9445,4.9394,4.907,4.8913,4.8894,4.8476,0.0,4.8164,4.7754,4.7324,4.687,4.6811,4.6601,4.6308,4.6308,4.6308,4.623,0.0,0.0,0.0,0.0,0.0,0.0,0.0,0.0,0.0,0.0,3.2092,3.0868,0.0,0.0,0.0,0.0,0.0,0.0,0.0,0.0,0.0,0.0,2.3867,2.4394,2.5015,2.5015,2.5488,2.6387,0.0,2.5625,2.6055,2.6055,2.6035,2.6016,2.6484,2.6562,2.6342,2.6621,2.6582,2.6431,2.6621,2.6855,2.7096,0.0,0.0,0.0,2.7676,2.8718,3.0517,3.3613,3.8184,4.3027,4.584,4.8476,5.1055,5.3652,5.5019,5.6055,5.7793,5.8711,5.8887,5.7539,5.459,5.0781,4.5976,4.123,3.6562,3.2042,3.041,2.957,2.8758,3.214,3.5976,3.8945,4.2676,4.709,5.25,5.291,5.3789,5.6855,5.6484,5.625,5.6875,5.6348,5.6055,5.6289,5.6289,5.5898,5.5058,5.4805,5.4394,5.373,5.3281,5.2949,5.2804,5.209,5.1562,5.1113,5.0273,4.9863,4.9844,4.9206,4.9031,4.918,4.873,0.0,4.8516,4.8086,4.7773,4.7558,4.7065,4.6953,4.6914,4.6465,4.6445,4.6562,0.0,0.0,0.0,0.0,0.0,0.0,0.0,3.1259,3.2212,3.5355,3.5574,3.4222,3.0992,2.9683,0.0,0.0,0.0,0.0,0.0,0.0,0.0,0.0,0.0,0.0,2.4664,0.0,0.0,2.625,2.5547,0.0,0.0,0.0,0.0,0.0,2.5937,2.6113,2.5893,2.6576,2.6738,0.0,0.0,2.7363,0.0,0.0,0.0,0.0,0.0,2.9637,3.1612,3.3164,3.7734,4.3301,4.6484,5.0137,5.3652,5.5605,5.6797,5.7793,5.9297,5.9687,5.918,5.6992,5.3398,4.8848,4.2988,3.8047,3.3457,2.909,2.8008,2.7871,2.7839,3.081,3.4062,3.6543,3.9512,4.3691,4.9922,5.1035,5.2734,5.6855,5.7344,5.7519,5.7969,5.7305,5.6953,5.7187,5.664,5.6015,5.5351,5.4824,5.4394,5.3992,5.3691,5.3507,5.341,5.2745,5.2129,5.1699,5.0762,5.0312,5.0273,4.9441,4.9141,4.9375,4.9121,0.0,0.0,4.8476,4.8281,4.8144,4.7461,4.7363,4.75,4.6816,4.6777,4.7012,0.0,0.0,0.0,0.0,0.0,0.0,0.0,3.1558,3.3156,3.8228,3.7387,3.576,3.4462,3.2254,0.0,0.0,0.0,0.0,0.0,0.0,0.0,0.0,0.0,0.0,0.0,0.0,0.0,2.5776,2.5698,0.0,0.0,0.0,0.0,0.0,0.0,2.5971,2.6328,2.6406,0.0,0.0,0.0,0.0,0.0,0.0,0.0,0.0,0.0,2.8437,2.9258,3.3242,3.582,3.8083,4.1836,4.8555,5.5039,5.4902,5.6543,5.8535,5.9062,5.9238,5.8711,5.6543,5.248,4.7701,4.2462,3.6714,3.1592,2.8406,2.7135,2.6914,2.8027,2.9503,3.2157,3.6996,3.9357,4.3027,4.9844,5.1797,5.3848,5.7437,5.7867,5.7969,5.8418,5.8027,5.7598,5.7246,5.6094,5.539,5.5312,5.4531,5.4011,5.3972,5.3933,5.3769,5.341,5.3331,5.3027,5.2578,5.1328,5.0742,5.0723,4.9863,4.9258,4.8991,4.9297,0.0,0.0,4.8855,4.8555,4.8203,4.8125,4.7871,4.7578,4.75,4.748,4.7461,0.0,0.0,0.0,0.0,0.0,0.0,0.0,3.1648,3.309,3.9153,3.9017,3.8046,3.7274,3.546,3.2371,0.0,0.0,0.0,0.0,0.0,0.0,0.0,0.0,0.0,0.0,0.0,2.5693,2.5693,2.5693,0.0,0.0,0.0,0.0,0.0,0.0,2.6465,2.6445,2.7207,0.0,0.0,0.0,0.0,0.0,0.0,0.0,0.0,0.0,0.0,2.8887,3.0351,3.2765,3.5228,3.5703,4.1074,4.791,5.1641,5.4199,5.6372,5.918,5.9922,5.9355,5.6933,5.2168,4.6782,4.1582,3.5756,3.0625,2.7851,2.6797,2.6621,2.7383,2.8359,3.0147,3.3484,3.4434,3.6953,4.334,4.5117,4.791,5.3691,5.5078,5.6445,5.8711,5.8317,5.773,5.7246,5.6269,5.5683,5.5683,5.4629,5.3972,5.3972,5.3972,5.3945,5.3769,5.3546,5.3331,5.3086,5.207,5.1562,5.1543,5.043,4.9824,4.9676,4.9277,0.0,0.0,4.8913,4.8796,4.8574,4.8301,4.8262,4.8327,4.7773,4.7734,4.7891,0.0,0.0,0.0,0.0,0.0,0.0,3.2111,3.2065,3.3552,3.9183,3.9596,3.9176,3.8623,3.6579,3.3505,2.9145,0.0,0.0,0.0,0.0,0.0,0.0,0.0,0.0,0.0,0.0,2.5693,2.5693,2.5835,2.5835,0.0,0.0,2.5835,2.5713,0.0,0.0,0.0,0.0,0.0,0.0,0.0,0.0,0.0,0.0,0.0,0.0,0.0,0.0,0.0,0.0,0.0,3.255,3.1328,3.4531,4.0078,4.6753,5.085,5.4011,5.7734,5.9277,5.9238,5.666,5.1758,4.6191,4.0898,3.5137,3.0156,2.7559,2.668,2.6523,2.6934,2.7715,2.8965,3.0996,3.1504,3.3613,3.9277,4.1152,4.4219,5.0438,5.2168,5.4199,5.7539,5.7906,5.7789,5.7422,5.6484,5.5885,5.5885,5.4844,5.4219,5.4219,5.4101,5.3972,5.3972,5.3711,5.3546,5.339,5.2549,5.2012,5.1855,5.0703,5.0098,4.9941,0.0,0.0,0.0,4.8913,4.8913,4.8874,4.8516,4.864,4.8835,4.8229,4.8144,4.834,0.0,0.0,0.0,0.0,0.0,0.0,0.0,3.3093,3.4987,3.8371,3.88,3.8623,3.8072,3.4727,3.2515,3.2444,0.0,0.0,0.0,0.0,0.0,0.0,0.0,0.0,0.0,0.0,0.0,2.5693,2.6172,2.6172,2.5693,2.6191,2.6152,2.5693,0.0,0.0,0.0,0.0,0.0,0.0,0.0,0.0,0.0,0.0,0.0,0.0,0.0,0.0,0.0,0.0,0.0,0.0,0.0,3.0527,3.3035,4.0333,4.6714,5.1884,5.4141,5.6601,5.7894,5.5351,5.1113,4.6113,4.0488,3.4902,3.0156,2.7559,2.668,2.6523,2.6934,2.7715,2.8867,3.0605,3.2305,3.5025,3.9806,4.2344,4.498,4.8522,4.9734,5.1406,5.4433,5.6674,5.7926,5.7906,5.666,0.0,5.5885,5.5137,5.4668,5.4668,5.4258,5.3972,5.3972,5.3972,5.3808,5.339,5.2549,5.1855,5.1358,5.0566,4.9941,0.0,0.0,0.0,0.0,4.8913,4.8913,4.8913,4.8894,4.8894,4.8913,4.8894,4.8894,4.8835,0.0,0.0,0.0,0.0,0.0,0.0,0.0,3.0902,3.2463,3.5597,3.5868,3.6131,3.7025,3.4342,3.2491,3.2491,0.0,0.0,0.0,0.0,0.0,0.0,0.0,0.0,0.0,0.0,0.0,0.0,0.0,2.7096,2.7679,2.7413,2.69,2.6211,2.6797,2.7031,0.0,0.0,0.0,0.0,0.0,0.0,2.8301,0.0,0.0,0.0,0.0,0.0,0.0,0.0,0.0,0.0,0.0,0.0,0.0,3.4394,3.9902,4.5449,4.8203,5.041,5.1308,4.873,4.5176,4.1328,3.748,3.3164,2.9442,2.7422,2.642,2.6147,2.685,2.7246,2.8555,3.202,3.3035,3.4635,3.8206,4.1601,4.4883,4.8047,5.3105,5.6699,5.7656,5.8086,5.8203,5.7926,5.7207,5.668,5.6387,5.5566,5.498,5.4687,5.4258,5.3972,5.3972,5.3972,5.3965,5.3808,5.3223,5.2734,5.2266,5.1426,0.0,0.0,0.0,0.0,0.0,4.8913,4.8913,4.8913,4.8913,4.8913,4.8913,4.8913,4.8913,4.8894,0.0,0.0,0.0,0.0,0.0,0.0,0.0,2.9757,3.1054,3.2948,3.3141,3.3735,3.5501,3.2872,3.1408,3.2418,0.0,0.0,0.0,0.0,0.0,0.0,0.0,0.0,0.0,0.0,0.0,0.0,0.0,0.0,0.0,0.0,2.791,2.6641,2.7187,2.7497,0.0,0.0,0.0,0.0,0.0,0.0,2.8301,0.0,0.0,0.0,0.0,0.0,0.0,0.0,0.0,0.0,0.0,0.0,0.0,0.0,3.4512,3.8867,4.3203,4.5859,4.6953,4.5019,4.2187,3.9062,3.5859,3.2276,2.9109,2.7363,2.644,2.6167,2.6869,2.7285,2.8391,3.124,3.2422,3.3945,3.6762,4.0645,4.4648,4.8496,5.4004,5.748,5.748,5.7969,5.8144,5.7926,5.7305,5.6797,5.6367,5.5683,5.5117,5.4687,5.4258,5.3972,5.3972,5.3972,5.3816,5.3535,5.3242,5.2793,5.2207,5.1504,0.0,0.0,0.0,0.0,0.0,4.8913,4.8913,4.8913,4.8913,4.8913,4.8913,4.8913,4.8913,4.8913,0.0,0.0,0.0,0.0,0.0,0.0,0.0,0.0,0.0,0.0,3.0719,3.1526,3.3405,3.0545,2.9508,0.0,0.0,0.0,0.0,0.0,0.0,0.0,0.0,0.0,0.0,0.0,0.0,3.1201,2.9863,3.0348,3.2544,0.0,0.0,2.7084,2.7103,2.7651,0.0,0.0,0.0,0.0,0.0,0.0,0.0,0.0,0.0,0.0,0.0,0.0,0.0,0.0,0.0,0.0,0.0,0.0,0.0,0.0,0.0,0.0,0.0,4.2226,4.3945,4.3027,4.0996,3.834,3.5078,3.1816,0.0,2.7363,2.6699,2.6582,2.707,2.7754,2.8496,2.9191,3.1035,3.3293,3.5879,4.0099,4.4883,5.0019,5.3223,5.4961,5.4863,5.6772,5.791,5.7926,5.709,5.6426,5.5904,5.5527,5.5117,5.4687,5.4258,5.3972,5.3972,5.3953,5.3574,5.2754,5.2695,5.2246,5.1465,5.1035,0.0,0.0,0.0,0.0,0.0,4.8913,4.8913,4.8913,4.8867,4.8867,4.8867,4.8821,4.8801,4.8801,0.0,0.0,0.0,0.0,0.0,0.0,0.0,0.0,0.0,0.0,0.0,2.9925,3.0001,2.9108,0.0,0.0,0.0,0.0,0.0,0.0,0.0,0.0,0.0,0.0,0.0,0.0,0.0,3.1117,3.1861,3.2599,3.3322,3.2864,0.0,0.0,0.0,0.0,0.0,0.0,0.0,0.0,0.0,0.0,0.0,0.0,0.0,0.0,2.8301,2.8301,0.0,0.0,0.0,0.0,0.0,0.0,0.0,0.0,2.9328,2.9972,3.2187,0.0,3.5391,3.4199,3.3184,3.2168,0.0,2.9676,2.8301,2.7201,2.6908,2.7187,2.8254,2.8105,2.9051,3.2734,3.3769,3.5117,3.8047,4.416,5.0039,5.4551,5.6875,5.7734,5.6719,5.7676,5.8242,5.7926,5.7363,5.6738,5.5924,5.5527,5.5117,5.4687,5.4258,5.3972,5.3972,5.3691,5.3468,5.3253,5.2539,5.2129,5.1914,5.1484,0.0,0.0,0.0,0.0,4.8913,4.8913,4.8913,4.8867,4.8451,4.8266,4.8219,4.7894,4.7755,4.7755,0.0,0.0,0.0,0.0,0.0,0.0,0.0,0.0,0.0,0.0,0.0,0.0,0.0,0.0,0.0,0.0,0.0,0.0,0.0,0.0,0.0,0.0,0.0,0.0,0.0,0.0,0.0,0.0,0.0,3.4279,0.0,0.0,0.0,0.0,0.0,0.0,0.0,0.0,0.0,0.0,2.9085,0.0,0.0,0.0,0.0,0.0,2.8301,2.8301,0.0,2.8965,2.9043,2.8973,0.0,0.0,0.0,0.0,2.8789,2.873,2.9199,3.0742,3.209,3.1601,3.1133,3.0684,3.0302,2.9199,2.8105,2.7441,2.7148,2.7318,2.8437,2.8262,2.9149,3.2656,3.3906,3.6367,4.1973,4.7031,5.1836,5.6348,5.7926,5.8493,5.8144,5.8359,5.8304,5.791,5.7285,5.664,5.5924,5.5527,5.5117,5.4687,5.4258,5.3972,5.3972,5.3574,5.3312,5.3047,5.2402,5.1973,5.1777,5.1328,5.0637,0.0,0.0,0.0,4.8219,4.8219,4.8219,4.8173,4.7894,4.7755,4.7774,4.7495,4.7401,4.7401,0.0,0.0,0.0,0.0,0.0,0.0,0.0,0.0,0.0,0.0,0.0,0.0,0.0,0.0,0.0,0.0,0.0,0.0,0.0,0.0,0.0,0.0,0.0,0.0,0.0,0.0,0.0,0.0,0.0,0.0,0.0,0.0,3.4244,0.0,0.0,0.0,0.0,0.0,0.0,0.0,2.9487,0.0,0.0,0.0,0.0,0.0,0.0,0.0,0.0,2.9531,2.9707,2.9618,3.0273,0.0,0.0,0.0,0.0,0.0,2.8691,3.0215,3.168,3.1631,3.1406,3.1094,3.0605,2.9355,2.821,2.778,2.748,2.7598,2.8516,2.8789,2.9629,3.1934,3.4062,3.832,4.6562,4.9414,5.2324,5.6777,5.7847,5.8379,5.8828,5.8711,5.8379,5.7847,5.7031,5.6367,5.5806,5.5449,5.5019,5.459,5.416,5.3926,5.3926,5.3476,5.3066,5.2695,5.2148,5.165,5.1182,5.0754,5.0087,0.0,0.0,0.0,4.7401,4.7401,4.7401,4.7401,4.7308,4.7308,4.7261,4.7215,4.7149,4.7149,0.0,0.0,0.0,0.0,0.0,0.0,0.0,0.0,0.0,0.0,0.0,0.0,0.0,0.0,0.0,0.0,0.0,0.0,0.0,0.0,0.0,0.0,0.0,3.0304,3.0744,3.1663,0.0,0.0,0.0,0.0,3.9377,4.0562,3.8403,3.3475,0.0,0.0,0.0,0.0,0.0,0.0,2.9592,0.0,0.0,0.0,0.0,0.0,0.0,0.0,0.0,2.8516,2.8789,2.8984,2.875,0.0,0.0,0.0,0.0,0.0,3.0527,3.1797,3.1992,2.9512,2.9403,2.9696,2.8867,2.8476,2.821,2.778,2.8184,2.9004,3.0254,3.1123,3.255,3.5444,3.9197,4.3945,5.0391,5.2207,5.4133,5.7383,5.8789,5.9004,5.7637,5.8476,5.8594,5.7402,5.6855,5.625,5.5449,5.5,5.457,5.4141,5.3691,5.3507,5.3507,5.3027,5.2773,5.2695,5.1543,5.0764,5.0253,4.9828,4.9119,0.0,0.0,4.7874,4.7401,4.7401,4.7401,4.7336,4.6916,4.6728,4.6682,4.6259,4.6119,4.6119,0.0,0.0,0.0,0.0,0.0,0.0,0.0,0.0,0.0,0.0,0.0,0.0,0.0,0.0,0.0,0.0,0.0,0.0,0.0,0.0,0.0,0.0,3.1264,3.1521,3.1804,3.3362,0.0,0.0,0.0,4.1553,4.2784,4.1452,3.8212,3.338,0.0,0.0,2.9628,0.0,0.0,0.0,0.0,0.0,0.0,0.0,0.0,0.0,0.0,0.0,0.0,0.0,2.9258,2.957,2.9375,0.0,0.0,0.0,0.0,0.0,2.9512,3.0566,3.1172,3.0254,3.1035,3.1631,3.0059,2.9512,2.9336,2.9394,2.9726,3.0527,3.2316,3.3516,3.5781,4.043,4.4414,4.8203,5.1894,5.3164,5.4746,5.7593,5.8594,5.9004,5.8652,5.918,5.8965,5.7656,5.6953,0.0,5.5683,5.5039,5.459,5.4394,5.3945,5.3613,5.341,5.293,5.2598,5.2363,5.1066,5.032,5.006,4.912,4.8273,4.761,0.0,4.699,4.6588,4.6588,4.6588,4.6541,4.6306,4.6213,4.6213,4.5978,4.5883,4.5883,0.0,0.0,0.0,0.0,0.0,0.0,0.0,0.0,0.0,0.0,0.0,0.0,0.0,0.0,0.0,0.0,0.0,0.0,0.0,0.0,3.0435,3.1932,3.2682,3.3332,3.3958,3.5425,3.7613,4.0523,4.2254,4.4251,4.6383,4.2461,3.8447,0.0,0.0,0.0,3.0013,2.9949,2.981,0.0,0.0,0.0,0.0,0.0,0.0,0.0,0.0,0.0,0.0,0.0,0.0,0.0,0.0,0.0,0.0,2.9258,2.8769,2.8555,2.9062,2.9922,3.084,3.1621,3.2578,3.3117,3.2148,3.1426,3.1172,3.1934,3.2168,3.2765,3.4407,3.6484,3.9687,4.4879,4.875,5.1699,5.3516,5.4433,5.5801,5.8203,5.8652,5.9046,5.9746,5.9805,5.918,5.773,5.6953,0.0,5.5664,5.4941,5.4531,5.4531,5.4004,5.3555,5.3253,5.2576,5.2107,5.1873,5.0581,4.9781,4.9569,4.8235,4.7432,4.694,4.6577,4.6213,4.5883,4.5883,4.5883,4.5883,4.5883,4.5883,4.5883,4.5883,4.5883,4.5883,0.0,0.0,0.0,0.0,0.0,0.0,0.0,0.0,0.0,0.0,0.0,0.0,0.0,0.0,0.0,0.0,0.0,0.0,0.0,0.0,3.091,3.0576,3.3161,3.5808,3.8284,3.7998,3.9637,4.3325,4.5357,4.6968,4.805,4.5262,4.1981,3.8281,3.5698,3.3683,3.2036,3.0174,3.0147,3.1341,0.0,0.0,0.0,0.0,0.0,0.0,0.0,0.0,0.0,0.0,0.0,0.0,0.0,0.0,2.9637,2.9579,2.9219,2.9316,3.1377,3.1983,3.2159,3.2598,3.1914,3.1816,3.4473,3.4101,3.362,3.5279,3.5976,3.6343,3.6499,4.0488,4.4707,4.7519,5.123,5.4441,5.6601,5.7285,5.8262,6.0039,5.9922,5.9746,5.9805,5.9805,5.8945,5.6836,5.6621,0.0,5.4844,5.4336,5.4031,5.4031,5.3242,5.2793,5.2754,5.1491,5.1033,5.135,5.0031,4.8957,4.8009,4.7139,4.6437,4.5986,4.5949,4.593,4.5883,4.5883,4.5883,4.5883,4.5883,4.5883,4.5883,4.5883,4.5883,4.5883,0.0,0.0,0.0,0.0,0.0,0.0,0.0,0.0,0.0,0.0,0.0,0.0,0.0,0.0,0.0,0.0,0.0,0.0,0.0,0.0,3.1674,3.2192,3.4364,3.6394,3.8262,4.0691,4.3601,4.7025,4.8156,4.8026,4.6752,4.3403,0.0,0.0,3.44,3.3043,3.2417,3.089,3.1152,3.2448,3.0639,0.0,0.0,0.0,0.0,0.0,0.0,0.0,0.0,0.0,2.8887,2.9324,2.9199,2.9531,2.9931,2.9676,2.9258,2.9074,2.9922,3.1133,3.2374,3.3008,3.3633,3.4316,3.5195,3.6035,3.7129,3.8867,3.9766,4.041,4.0937,4.418,4.7617,5.0195,5.3437,5.6289,5.8183,5.8594,5.8945,5.959,5.9746,5.9707,5.9453,5.918,5.8437,5.707,5.623,0.0,5.4726,5.4004,5.3613,5.3613,5.3027,5.2429,5.1848,5.1101,5.0315,4.9535,4.8829,4.8278,4.7876,4.6677,4.6072,4.5883,4.5883,4.5883,4.5883,4.5883,4.5883,4.5883,4.5883,4.5883,4.5883,4.5883,4.5883,4.5883,0.0,0.0,0.0,0.0,0.0,0.0,0.0,0.0,0.0,0.0,0.0,0.0,0.0,0.0,0.0,0.0,0.0,0.0,0.0,3.1241,3.2187,3.2717,3.4725,3.6522,3.7976,4.2386,4.5878,4.8339,4.9576,4.8603,4.5565,0.0,0.0,0.0,3.4483,3.3591,3.3917,3.1815,3.1501,3.2269,3.0573,2.9697,0.0,0.0,0.0,0.0,0.0,0.0,0.0,0.0,2.8789,2.9207,2.9277,2.9629,3.0,3.0009,2.9668,2.9316,2.9316,3.041,3.1807,3.2773,3.4434,3.6133,3.7344,3.8945,4.0801,4.2949,4.3418,4.3672,4.4394,4.6777,4.9394,5.1699,5.4961,5.7617,5.8828,5.9004,5.9004,5.918,5.9297,5.9355,5.918,5.8652,5.7851,5.6699,5.5683,0.0,0.0,5.3476,5.3195,5.3195,5.2598,5.1921,5.1108,5.0385,4.9479,4.8275,4.7721,4.7468,4.7431,4.6385,4.5883,4.5883,4.5883,4.5883,4.5883,4.5883,4.5883,4.5883,4.5883,4.5883,4.5883,4.5883,4.5883,4.5883,0.0,0.0,0.0,0.0,0.0,0.0,0.0,0.0,0.0,0.0,0.0,0.0,0.0,0.0,0.0,0.0,0.0,0.0,0.0,3.2102,3.2346,3.1546,3.4076,3.6258,3.7928,4.2853,4.5844,4.6728,4.9373,4.8714,4.5013,4.2928,0.0,0.0,3.6828,3.5998,3.6902,3.2886,3.1036,3.0686,3.0118,2.927,0.0,0.0,0.0,0.0,0.0,0.0,0.0,0.0,2.8633,2.8516,2.9785,2.995,2.9794,3.0625,3.0566,3.0215,3.0195,3.0215,3.0547,3.1905,3.388,3.668,4.1387,4.3125,4.459,4.7617,4.6894,4.5859,4.6269,4.8105,5.0117,5.1816,5.5703,5.848,5.848,5.848,5.8655,5.9121,5.8769,5.8711,5.9121,5.8379,5.7129,5.543,5.4902,0.0,0.0,5.2695,5.2695,5.2695,5.1826,5.1183,5.0695,4.9319,4.8374,4.7894,4.6941,4.6518,4.6518,4.6067,4.5883,4.5883,4.5883,4.5883,4.5883,4.5883,4.5883,4.5883,4.5883,4.5883,4.5883,4.5883,4.5883,4.5883,0.0,0.0,0.0,0.0,0.0,0.0,0.0,0.0,0.0,0.0,0.0,0.0,0.0,0.0,0.0,0.0,0.0,0.0,0.0,3.2496,3.2735,3.2154,3.4112,3.5201,3.5185,3.869,4.2737,4.7257,4.7305,4.5429,0.0,0.0,0.0,3.6909,0.0,3.652,3.5203,3.256,3.2461,3.3859,3.0529,2.9772,0.0,0.0,0.0,0.0,0.0,0.0,0.0,0.0,0.0,0.0,2.918,3.0273,3.1299,3.0605,3.0986,3.1416,3.0449,3.1094,3.2422,3.4043,3.7007,4.0449,4.4277,4.5117,4.6211,5.0117,5.0293,4.957,4.9121,5.0293,5.168,5.2843,5.5078,5.7192,5.8769,5.8711,5.8538,5.8711,5.832,5.7969,5.7793,5.6484,5.541,5.4902,0.0,0.0,0.0,5.1973,5.168,5.1387,5.0484,4.9762,4.9233,4.8204,4.7418,4.6893,4.6345,4.6213,4.6518,4.6067,4.5883,4.5883,4.5883,4.5883,4.5883,4.5883,4.5883,4.5883,4.5883,4.5883,4.5883,4.5883,4.4969,4.3699,0.0,0.0,0.0,0.0,0.0,0.0,0.0,0.0,0.0,0.0,2.9663,2.9618,0.0,0.0,0.0,0.0,0.0,0.0,0.0,0.0,3.3018,3.2849,3.3968,3.4915,3.5547,3.8038,4.0684,4.3409,4.3625,4.2254,3.9465,3.9543,3.916,3.8386,3.9088,3.8834,3.7714,3.5257,3.4768,3.5299,3.1965,3.1276,3.2063,0.0,0.0,0.0,0.0,0.0,0.0,0.0,0.0,0.0,2.8898,3.0059,3.126,3.043,3.0898,3.1592,3.1123,3.1992,3.3633,3.6055,3.9062,4.25,4.6641,4.832,4.9922,5.3203,5.2851,5.1953,5.1973,5.2461,5.3183,5.4219,5.5976,5.7558,5.8535,5.8301,5.7894,5.7793,5.7363,5.6933,5.6504,5.539,5.4453,5.3945,0.0,0.0,0.0,5.1172,5.0724,5.026,4.9567,4.8814,4.8081,4.7402,4.6771,4.625,4.6012,4.6012,4.6232,4.5993,4.5883,4.5883,4.5883,4.5883,4.5836,4.5016,4.5158,4.5742,4.4097,4.3937,4.4572,4.3747,4.2632,4.1576,0.0,0.0,0.0,0.0,0.0,0.0,0.0,0.0,0.0,0.0,2.9804,2.9804,0.0,0.0,0.0,0.0,0.0,0.0,0.0,0.0,3.3233,3.354,3.3892,3.5228,3.7659,3.9355,3.9164,3.6967,3.9131,3.9369,3.7875,3.9239,4.0838,4.255,4.2098,4.2084,4.2156,3.9243,3.7078,3.5458,3.3714,3.3085,3.3012,3.1442,0.0,0.0,0.0,0.0,0.0,0.0,0.0,0.0,2.8996,2.9648,3.0351,3.0293,3.0644,3.125,3.214,3.2949,3.4473,3.8086,4.084,4.3945,4.8769,5.209,5.457,5.6055,5.4609,5.3437,5.4629,5.457,5.4655,5.5806,5.7676,5.8727,5.791,5.7402,5.6973,5.6621,5.6133,5.5664,5.5293,5.4765,5.3926,5.2695,0.0,0.0,0.0,5.0332,4.9861,4.9281,4.8868,4.8186,4.7241,4.6774,4.6306,0.0,4.5883,4.5883,4.5883,4.5883,4.5883,4.5883,4.5883,4.5883,4.5742,4.3842,4.4192,4.5506,4.1511,4.1125,4.2536,4.0449,3.9575,3.9429,0.0,0.0,0.0,0.0,0.0,0.0,0.0,0.0,0.0,0.0,0.0,0.0,0.0,0.0,0.0,0.0,0.0,0.0,0.0,0.0,3.3298,3.3784,3.4923,3.5828,3.6403,3.5991,3.5551,3.509,3.7382,3.7902,3.6819,4.0426,4.1625,4.0851,4.3271,4.2317,3.8699,3.6016,3.5137,3.5343,3.2156,3.1746,3.2835,3.1051,2.9828,0.0,0.0,0.0,0.0,0.0,0.0,0.0,2.9824,3.0762,3.1651,3.0937,3.1523,3.2578,3.3469,3.4297,3.6113,4.0918,4.5762,4.9922,5.2051,5.3828,5.4941,5.4648,5.5195,5.584,5.6133,5.6367,5.6621,5.6894,5.7051,5.7187,5.7324,5.668,5.6308,5.6562,5.5625,5.4922,5.4824,5.3496,5.2383,0.0,0.0,0.0,4.9844,4.9707,4.9278,4.8415,4.7946,4.7394,4.6765,4.6315,4.5978,0.0,4.5883,4.5883,4.5883,4.5883,4.5883,4.5883,4.5883,4.5883,4.5883,4.5412,4.5506,4.5648,4.3127,4.2392,4.2536,4.0449,3.8649,3.7194,0.0,0.0,0.0,0.0,0.0,0.0,0.0,0.0,0.0,0.0,0.0,0.0,0.0,0.0,0.0,0.0,0.0,0.0,0.0,0.0,0.0,3.407,3.592,3.63,3.4881,3.4961,3.4527,3.354,3.5017,3.6098,3.6867,3.9854,4.1862,4.2996,4.4736,4.3198,3.9307,3.8239,3.7087,3.5832,3.4133,3.3941,3.439,3.2261,3.0715,2.966,2.9333,0.0,0.0,0.0,0.0,0.0,0.0,0.0,3.1455,3.0762,3.1484,3.2804,3.4055,3.5762,3.8555,4.4141,4.8672,5.1973,5.2851,5.4062,5.4941,5.4687,5.584,5.6953,5.7168,5.7207,5.7207,5.7207,5.6855,5.6582,5.6601,5.5879,5.541,5.5644,5.4531,5.3652,5.3457,5.2422,5.1504,0.0,0.0,5.0,4.9504,4.9316,4.8776,4.7821,4.7541,4.7009,4.6259,4.6025,4.5883,4.5883,4.5883,4.5883,4.5883,4.5883,4.5883,4.5883,4.5883,4.5883,4.5836,4.4809,4.5016,4.5601,4.2536,4.1386,4.121,3.9005,3.6952,3.5257,0.0,0.0,0.0,0.0,0.0,0.0,0.0,0.0,0.0,0.0,0.0,0.0,0.0,0.0,0.0,0.0,0.0,0.0,0.0,0.0,0.0,0.0,3.6392,3.64,3.4086,3.4862,0.0,3.2968,3.321,3.4919,3.8043,3.9593,4.2358,4.6006,4.5631,4.3946,4.1355,4.0593,3.8704,3.6204,3.6012,3.5867,3.5518,0.0,0.0,3.0472,2.9893,2.9696,2.9715,2.9794,0.0,0.0,0.0,0.0,3.082,3.043,3.1123,3.2374,3.4101,3.7285,4.1426,4.6953,5.0273,5.2305,5.2734,5.3789,5.4785,5.5117,5.6152,5.7148,5.7656,5.7402,5.7109,5.7109,5.668,5.6191,5.5631,5.4941,5.4433,5.4355,5.3242,5.2344,5.2012,5.1504,5.0898,0.0,0.0,4.9445,4.9414,4.9062,4.8412,4.7334,4.7288,4.6784,4.5682,4.5682,4.5682,4.5682,4.5755,4.5755,4.5682,4.5755,4.5828,4.5883,4.5883,4.5883,4.5789,4.4032,4.4335,4.5554,4.1787,4.0236,3.982,3.7531,3.5527,3.3855,0.0,0.0,0.0,0.0,0.0,0.0,0.0,0.0,0.0,0.0,2.9804,2.9804,0.0,0.0,0.0,0.0,0.0,0.0,3.1537,0.0,0.0,3.4633,3.52,3.5557,3.5683,3.4496,3.4213,3.4919,3.381,3.605,4.1394,4.2455,4.4249,4.6518,4.4524,4.3255,4.2162,3.5969,3.4208,3.5294,3.2739,3.2307,3.3048,0.0,0.0,0.0,3.0154,3.0117,3.0176,3.0586,3.0762,0.0,0.0,0.0,3.0879,3.082,3.0918,3.1523,3.3625,3.8828,4.4531,4.7949,5.0723,5.2734,5.3214,5.4055,5.4707,5.4746,5.5488,5.6348,5.7148,5.6953,5.668,5.668,5.5996,5.5195,5.4394,5.3848,5.3398,5.3027,5.2168,5.1533,5.1475,5.0801,5.0137,0.0,4.9523,4.9355,4.9011,4.8933,4.8277,4.6925,4.6879,4.6249,4.4884,4.4884,4.4884,4.4838,4.5205,4.5187,4.4884,4.5205,4.5572,4.5883,4.5883,4.5883,4.5883,4.5601,4.5648,4.5684,4.3665,4.1766,3.9868,3.8089,3.5958,3.3881,0.0,0.0,0.0,0.0,0.0,0.0,0.0,0.0,0.0,0.0,0.0,2.9804,0.0,0.0,0.0,2.9804,3.0733,3.1461,3.1813,3.3144,3.3931,3.4025,3.4572,3.4732,3.4428,3.3756,3.372,3.436,3.3641,3.6723,4.3282,4.4027,4.5862,4.8363,4.5244,4.2903,4.0977,3.6311,3.4202,3.3831,3.2699,3.2595,3.2971,0.0,0.0,0.0,0.0,0.0,0.0,3.082,3.0898,3.0898,3.0898,0.0,0.0,0.0,3.126,3.25,3.6582,4.043,4.4258,4.8262,5.0625,5.2168,5.2851,5.3496,5.4074,5.4258,5.4414,5.4902,5.625,5.6152,5.5801,5.5566,5.5,5.4297,5.3418,5.291,5.2578,5.2383,5.1406,5.0723,5.0723,5.0176,4.9629,0.0,4.916,4.9109,4.8913,4.8913,4.8238,4.6849,4.6785,4.6136,4.4719,4.4719,4.4719,4.4719,4.5095,4.5077,4.4737,4.5113,4.5407,4.5553,4.5553,4.5682,4.5883,4.5883,4.5883,4.5808,4.5101,4.2845,4.0016,3.9265,3.6867,3.3881,0.0,0.0,0.0,0.0,0.0,0.0,0.0,0.0,0.0,0.0,0.0,0.0,0.0,0.0,0.0,0.0,3.0407,3.1286,3.2365,3.3219,3.363,3.3408,3.3962,3.3901,3.3037,3.299,3.3177,3.3515,3.3763,3.7613,4.4724,4.5517,4.793,5.1321,4.7117,4.377,4.1062,3.7888,3.5529,3.3874,3.3368,0.0,0.0,0.0,0.0,0.0,0.0,0.0,0.0,0.0,0.0,3.0898,3.0898,3.0898,0.0,0.0,0.0,3.2883,3.7461,4.0059,4.248,4.6816,4.9355,5.1055,5.2148,5.2715,5.3164,5.3594,5.3437,5.3594,5.4883,5.4941,5.4707,5.4394,5.3984,5.3379,5.25,5.2109,5.1875,5.1777,5.0723,5.0058,5.0176,4.9687,4.9219,0.0,4.8913,4.8913,4.8913,4.8775,4.81,4.6849,4.6552,4.583,4.4572,4.4462,4.4425,4.438,4.4801,4.4765,4.438,4.4801,4.5003,4.5003,4.5205,4.5462,4.5755,4.5847,4.5601,4.5111,4.5219,4.2843,3.9309,3.9451,3.7109,3.3881,0.0,0.0,0.0,0.0,0.0,0.0,0.0,0.0,0.0,0.0,0.0,0.0,0.0,2.9804,2.9804,2.9804,3.0758,3.1859,3.2989,3.3115,3.314,3.3119,3.3165,0.0,3.2447,3.2425,3.2743,3.3307,3.4775,3.9029,4.5854,4.7401,5.0912,5.5644,5.0284,4.6611,4.4154,3.949,3.7317,3.6723,0.0,0.0,0.0,0.0,0.0,0.0,0.0,0.0,0.0,0.0,0.0,0.0,0.0,3.0898,3.0898,0.0,0.0,0.0,3.3281,3.623,3.9549,4.2677,4.6274,4.948,5.1113,5.1836,5.2266,5.2695,5.2754,5.2773,5.2851,5.3203,5.3507,5.3488,5.3066,5.248,5.1572,5.1436,5.126,5.0918,5.0098,4.9726,5.0137,4.9441,4.8933,0.0,4.8913,4.8913,4.8913,4.8405,4.7749,4.6849,4.5949,4.5055,4.4168,4.3738,4.3554,4.3554,4.3958,4.394,4.3573,4.3958,4.4141,4.4196,4.4966,4.5315,4.5352,4.5737,4.4714,4.3001,4.3362,4.0902,3.723,3.7574,3.6102,3.3881,0.0,0.0,0.0,0.0,0.0,0.0,0.0,0.0,0.0,0.0,0.0,0.0,0.0,3.0306,3.0457,3.0783,3.1486,3.2089,3.2491,3.2889,3.309,3.309,3.3442,3.3443,3.3113,3.3113,3.341,3.4025,3.4219,3.7794,4.445,4.5669,4.8085,5.1315,4.8015,4.6311,4.5336,3.7706,3.4765,3.5056,0.0,0.0,0.0,0.0,0.0,0.0,0.0,0.0,0.0,0.0,0.0,0.0,0.0,0.0,0.0,3.0898,3.0898,3.1387,3.3633,3.5137,3.709,4.123,4.4141,4.6523,4.8496,4.9941,5.0898,5.1055,5.1094,5.1094,5.1094,5.1875,5.2441,5.2168,5.1992,5.1699,5.1113,5.1035,5.0879,5.0449,4.9883,4.9473,4.9382,4.9089,4.8913,0.0,0.0,4.8913,4.8913,4.8134,4.7328,4.6451,4.549,4.4601,4.3701,4.3573,4.3499,4.3499,4.3903,4.3884,4.3518,4.3903,4.394,4.3711,4.3178,4.3099,4.3363,4.3732,4.268,4.0804,4.0983,3.9227,3.6723,3.7095,3.5668,3.3614,0.0,0.0,0.0,0.0,0.0,0.0,0.0,0.0,0.0,0.0,0.0,0.0,0.0,0.0,3.1085,3.1612,3.1989,3.229,3.2491,3.2803,3.3104,3.3366,3.3608,3.3729,3.3682,3.3833,3.4026,3.4267,3.463,3.7625,4.3108,4.4659,4.6817,4.9282,4.584,4.4878,4.5488,4.017,3.7055,3.5509,0.0,0.0,3.3039,0.0,0.0,0.0,0.0,0.0,0.0,0.0,0.0,0.0,0.0,0.0,0.0,0.0,3.0898,3.1269,3.2969,3.3848,3.5312,3.9629,4.1582,4.3262,4.6426,4.7832,4.8691,4.9597,5.0028,5.0273,5.0547,5.1055,5.1387,5.125,5.1299,5.1182,5.0664,5.0586,5.043,5.0019,4.9433,4.9023,4.8913,4.864,4.8464,0.0,0.0,0.0,4.8254,4.7461,4.6569,4.5536,4.4893,4.4199,4.3499,4.3499,4.3499,4.3499,4.3756,4.3756,4.3499,4.3774,4.336,4.247,4.1845,4.1735,4.1979,4.1854,4.0545,3.8649,3.8649,3.7326,3.5494,3.5706,3.4765,3.344,0.0,0.0,0.0,0.0,0.0,0.0,0.0,0.0,0.0,0.0,0.0,0.0,0.0,0.0,0.0,3.2244,3.2294,3.2541,3.309,3.2878,3.3106,3.3875,3.3679,3.3707,3.4023,3.4516,3.4527,3.4006,3.6098,3.8719,4.1889,4.4484,4.735,5.0077,4.4298,4.2654,4.4391,4.6781,4.4246,3.858,0.0,3.6321,3.4902,0.0,0.0,0.0,3.6734,3.5898,0.0,3.2941,0.0,0.0,0.0,0.0,0.0,0.0,0.0,3.0898,0.0,0.0,0.0,3.7559,3.8474,3.9785,4.4883,4.543,4.5586,4.8229,4.9441,5.0273,5.1172,5.0683,5.0273,5.0683,5.1094,5.1074,5.0293,5.0176,5.0,4.9551,4.875,4.8379,4.8835,4.8112,4.7578,0.0,4.7578,4.7398,4.6902,4.6386,4.5453,4.4113,4.4068,4.3884,4.3499,4.3499,4.3499,4.3499,4.3499,4.3499,4.3499,4.3499,4.2389,4.0521,4.121,4.1442,4.1306,4.0093,3.8356,3.6405,3.6405,3.5182,3.3414,3.3414,3.3414,3.3414,0.0,0.0,0.0,0.0,0.0,0.0,0.0,0.0,0.0,0.0,0.0,0.0,0.0,0.0,0.0,3.4605,3.4603,3.4327,3.3721,3.3605,3.3767,3.4157,3.4535,3.4603,3.4308,3.4618,3.4746,3.4583,3.4993,3.606,3.7845,0.0,4.1453,4.1663,4.3769,4.2537,3.8743,3.6607,3.7224,3.9256,3.5282,3.4828,0.0,0.0,0.0,0.0,0.0,3.7539,3.7457,0.0,3.6226,3.5131,0.0,0.0,0.0,0.0,0.0,0.0,3.0898,0.0,0.0,0.0,0.0,0.0,3.918,4.0312,4.1641,4.4531,4.5586,4.6641,4.8711,4.916,4.9304,4.9422,4.9539,4.9707,5.0117,4.9902,4.9551,4.9101,4.8828,4.8522,4.8033,4.7715,0.0,0.0,4.7308,4.7038,4.6902,4.5803,4.4681,4.3709,4.3664,4.3609,4.3499,4.3499,4.3499,4.3499,4.3499,4.3499,4.3499,4.3499,4.2389,4.0459,3.9445,3.8196,3.6909,3.726,3.6158,3.425,3.425,3.39,3.3414,3.3414,3.3414,3.3414,0.0,0.0,0.0,0.0,0.0,0.0,0.0,0.0,0.0,0.0,0.0,0.0,0.0,0.0,0.0,0.0,3.6008,3.5506,3.4628,3.4172,3.4162,3.4663,3.48,3.4936,3.5065,3.5209,3.5357,3.5472,3.4815,3.5201,3.6634,0.0,0.0,0.0,3.9862,3.9211,3.6488,3.2564,3.3658,0.0,3.642,0.0,0.0,3.8164,3.8828,0.0,0.0,0.0,4.0098,3.957,3.8301,0.0,0.0,0.0,0.0,0.0,0.0,0.0,0.0,0.0,0.0,3.3418,0.0,0.0,3.6699,3.7461,3.8516,4.1719,4.2871,4.4101,4.668,4.7363,4.7799,4.8476,4.8483,4.86,4.9258,4.9297,4.9023,4.8444,4.8164,4.7851,4.7363,4.6992,4.6733,4.6512,4.6246,4.5935,4.5516,4.4719,4.3885,4.3048,4.3151,4.3224,4.3224,4.3224,4.3316,4.3499,4.3499,4.3499,4.3455,4.2613,4.1183,3.9213,3.7522,3.5673,3.3892,3.4569,3.4245,3.3227,3.3227,3.3307,3.3414,3.3414,3.3414,3.3414,0.0,0.0,0.0,0.0,0.0,0.0,0.0,0.0,0.0,0.0,0.0,0.0,0.0,0.0,0.0,0.0,3.7087,3.6337,3.5685,3.4693,0.0,0.0,0.0,0.0,0.0,0.0,3.603,3.6411,3.5057,3.5234,0.0,0.0,0.0,0.0,0.0,3.449,3.5929,3.2727,3.2897,3.5622,3.8992,4.0028,0.0,0.0,4.3203,4.334,4.3769,4.3437,4.2578,4.1191,3.9336,0.0,0.0,0.0,0.0,0.0,3.1894,0.0,0.0,0.0,0.0,0.0,3.3437,0.0,3.5937,3.5879,3.6094,3.9318,4.0625,4.1973,4.4687,4.5254,4.5762,4.7129,4.7324,4.7539,4.8262,4.8594,4.8522,4.7617,4.7129,4.6816,4.6674,4.6035,4.5433,4.4958,4.4828,4.4375,4.3485,4.3416,4.3023,4.2307,4.2663,4.2846,4.2846,4.2883,4.3103,4.3426,4.3481,4.3392,4.3124,4.1318,3.9333,3.7176,3.5667,3.3936,3.2078,3.2393,3.2688,3.2982,3.2973,3.3133,3.3374,3.34,3.3414,3.3414,0.0,0.0,0.0,0.0,0.0,0.0,0.0,0.0,0.0,0.0,0.0,0.0,0.0,0.0,0.0,0.0,0.0,3.7593,0.0,0.0,0.0,0.0,0.0,0.0,0.0,0.0,0.0,3.6411,3.4275,0.0,0.0,0.0,0.0,0.0,3.3629,3.3407,3.2162,3.37,3.455,3.4994,3.6769,0.0,4.1933,4.3125,4.4023,4.4707,4.5137,4.5176,4.4746,4.2734,4.0859,3.8945,0.0,0.0,0.0,0.0,0.0,0.0,0.0,0.0,0.0,0.0,0.0,0.0,3.2949,3.3242,3.4394,3.643,3.6996,3.8144,4.1484,4.2598,4.2832,4.2129,4.3943,4.6406,4.886,4.873,4.8008,4.7148,4.668,4.6152,4.5426,4.5254,4.4923,4.4476,4.3808,4.3161,4.2555,4.256,4.2436,4.2289,4.2387,4.2443,4.2443,4.2755,4.2957,4.303,4.3334,4.2658,4.1075,4.0668,3.854,3.5182,3.4821,3.361,3.1757,3.1858,3.2193,3.2701,3.2942,3.3013,3.3093,3.332,3.3414,3.3414,0.0,0.0,0.0,0.0,0.0,0.0,0.0,0.0,0.0,0.0,0.0,0.0,0.0,0.0,0.0,0.0,0.0,0.0,0.0,0.0,0.0,0.0,0.0,0.0,0.0,0.0,0.0,3.6693,3.4379,3.3514,0.0,0.0,0.0,0.0,3.2399,3.209,3.1279,3.2754,3.3746,3.4681,3.7731,0.0,4.293,4.4668,4.5586,4.6035,4.6465,4.6484,4.5879,4.3066,4.168,0.0,0.0,3.6191,3.5703,0.0,3.3769,3.3625,0.0,0.0,0.0,3.3105,0.0,0.0,0.0,3.243,3.2969,3.4687,3.4707,3.5332,3.8415,3.9082,3.9474,4.0352,4.1757,4.3728,4.6582,4.6758,4.6387,4.5742,4.5273,4.4844,4.4414,4.418,4.3751,4.3082,4.2387,4.1872,4.1433,4.1984,4.1996,4.1433,4.1776,4.1977,4.1977,4.2424,4.2718,4.292,4.3298,4.2434,4.047,3.9515,3.7437,3.4528,3.3558,3.2597,3.1711,3.1711,3.1979,3.2407,3.2701,3.2933,3.3213,3.336,3.3414,3.3414,3.0859,0.0,0.0,0.0,0.0,0.0,0.0,0.0,0.0,4.3128,0.0,0.0,0.0,0.0,0.0,0.0,0.0,0.0,0.0,0.0,0.0,0.0,0.0,3.596,0.0,0.0,0.0,0.0,3.456,3.364,3.4028,0.0,3.1431,3.2305,3.1424,3.125,3.166,3.1816,3.3066,3.5326,0.0,4.1562,4.2637,4.5488,4.6577,4.6758,4.7363,4.7305,4.6445,4.3242,4.2344,4.1914,3.8301,3.7578,0.0,0.0,0.0,0.0,0.0,0.0,0.0,0.0,0.0,3.3489,0.0,0.0,0.0,3.3528,3.3164,3.334,3.5561,3.5781,3.6367,3.8555,3.9473,4.0547,4.2402,4.3164,4.3691,4.4101,4.3516,4.3183,4.3437,4.2808,4.2151,4.1625,4.0915,4.0478,4.0405,4.1323,4.1396,4.0423,4.1079,4.1464,4.1464,4.1922,4.2406,4.2791,4.2796,4.1788,3.988,3.7897,3.5911,3.3934,3.2361,3.1711,3.1711,3.1711,3.1837,3.2131,3.2474,3.2915,3.3334,3.3387,3.3414,3.3414,3.1411,3.1788,0.0,0.0,0.0,0.0,0.0,0.0,0.0,4.4381,4.6289,0.0,0.0,0.0,0.0,0.0,0.0,0.0,3.9935,0.0,0.0,0.0,0.0,0.0,3.5587,0.0,0.0,0.0,3.3951,3.2822,3.2856,0.0,3.0966,3.1102,3.1329,3.168,3.2179,3.2891,3.5078,3.8239,3.9902,4.0215,0.0,4.3767,4.5488,4.5976,4.7168,4.7305,4.6538,0.0,4.3281,4.2519,0.0,3.873,3.8337,0.0,0.0,0.0,0.0,0.0,0.0,0.0,3.6562,0.0,0.0,0.0,3.3965,3.2687,0.0,3.2472,3.3105,0.0,0.0,3.3274,3.5684,3.7363,3.6543,3.7422,3.9434,4.2812,4.1836,4.1289,4.2421,4.0856,4.0115,4.1114,3.9411,3.8823,3.9891,4.0093,4.0093,3.9964,4.0405,4.0644,4.0644,4.1372,4.1959,4.2344,4.0957,3.9452,3.7851,3.5865,3.3887,3.2043,3.1806,3.1711,3.1711,3.1711,3.1837,3.2131,3.2474,3.2795,3.3053,3.332,3.3414,3.3414,3.1913,3.2591,3.3796,0.0,0.0,0.0,0.0,0.0,4.6033,4.67,4.8919,0.0,0.0,0.0,0.0,0.0,0.0,3.9793,0.0,0.0,0.0,0.0,0.0,0.0,0.0,0.0,0.0,0.0,3.3302,3.2342,3.1643,3.1141,3.1152,3.1651,3.1543,3.2305,3.3652,3.4004,3.5293,3.7246,0.0,3.9394,0.0,4.4258,4.6206,4.6445,4.6738,4.6719,4.623,0.0,4.3379,0.0,0.0,0.0,0.0,0.0,0.0,0.0,0.0,0.0,0.0,0.0,0.0,0.0,3.4199,0.0,3.3457,0.0,0.0,0.0,0.0,0.0,0.0,0.0,3.3906,3.4844,3.5332,3.541,3.6582,3.9707,0.0,0.0,3.9355,0.0,0.0,0.0,3.7796,3.7558,3.8071,3.9248,3.9781,3.9502,4.0166,4.0515,4.0515,4.128,4.1886,4.2289,4.0666,3.9103,3.7529,3.5359,3.3388,3.1711,3.149,3.1517,3.1711,3.1711,3.1837,3.2131,3.2474,3.2768,3.3013,3.3307,3.3414,3.3414,3.2641,3.3345,3.4352,3.5811,3.6437,0.0,0.0,0.0,0.0,4.7661,0.0,0.0,5.1765,4.9543,0.0,0.0,4.4304,4.1647,0.0,0.0,3.7821,0.0,0.0,0.0,0.0,0.0,0.0,0.0,3.2879,3.2197,3.123,3.1113,3.1523,3.2374,3.2519,3.3516,3.5098,3.5684,3.6719,3.8086,3.9648,4.043,4.1094,4.4824,4.6401,4.6738,4.6543,4.6328,4.5859,4.4043,4.3555,0.0,4.1465,0.0,0.0,0.0,0.0,0.0,3.8359,0.0,0.0,0.0,0.0,0.0,0.0,0.0,0.0,0.0,0.0,0.0,0.0,0.0,0.0,0.0,0.0,3.3203,3.4355,3.3848,3.4336,3.6914,0.0,0.0,0.0,0.0,0.0,3.6631,3.5923,3.587,3.675,3.8108,3.8915,3.9021,3.9758,4.0221,4.0331,4.1005,4.161,4.2124,3.9875,3.8292,3.7182,3.4492,3.2636,3.153,3.1316,3.1396,3.1711,3.1711,3.1837,3.2131,3.2474,3.2768,3.3013,3.3307,3.3414,3.3414,3.3746,3.3872,3.4182,3.508,3.655,3.841,0.0,0.0,0.0,0.0,0.0,0.0,0.0,0.0,0.0,0.0,0.0,4.1214,4.2677,0.0,3.7387,0.0,0.0,3.6601,0.0,0.0,0.0,0.0,3.2714,3.2502,3.214,3.1699,3.1953,3.2851,3.4531,3.5527,3.6079,3.8184,4.0527,4.2892,4.297,4.4199,4.5937,0.0,4.5254,4.6367,4.6777,0.0,0.0,4.4668,4.4062,0.0,0.0,0.0,0.0,0.0,0.0,0.0,0.0,0.0,0.0,3.7555,0.0,0.0,0.0,0.0,3.4961,0.0,0.0,0.0,0.0,0.0,0.0,0.0,0.0,0.0,0.0,3.1875,3.2559,3.5176,3.6523,0.0,0.0,3.5349,3.4985,3.6212,3.3727,3.3489,3.6621,3.6475,3.7044,3.8563,3.9021,3.9465,3.9891,4.0331,4.0956,4.1659,3.7852,3.6209,3.6408,3.2651,3.1015,3.1236,3.1176,3.1396,3.1711,3.1711,3.1837,3.2131,3.2474,3.2768,3.3013,3.3307,3.3414,3.3414,3.5452,3.5552,3.5506,3.5415,3.5749,3.7072,4.0217,4.223,0.0,0.0,4.908,0.0,0.0,5.2756,5.1978,0.0,0.0,4.6693,4.5249,4.2782,0.0,0.0,0.0,3.8226,0.0,0.0,0.0,0.0,0.0,3.1999,3.2198,3.2042,3.2402,3.3262,3.4414,3.5801,3.7367,3.924,4.0742,4.1954,0.0,4.4785,4.6641,0.0,0.0,4.6289,4.6152,4.5918,0.0,4.4687,4.4082,4.3574,4.2871,4.2441,4.2109,4.1543,4.1777,0.0,0.0,0.0,4.1953,3.9062,0.0,0.0,0.0,0.0,0.0,0.0,0.0,0.0,0.0,0.0,0.0,0.0,0.0,0.0,0.0,0.0,3.1641,3.3117,3.4427,3.4692,0.0,0.0,0.0,3.3393,3.2286,3.2423,3.4313,3.5559,3.6586,3.7391,3.8563,3.9428,3.9913,3.9057,3.9053,3.9807,3.5914,3.4382,3.4863,3.1885,3.0768,3.1162,3.1022,3.1102,3.1396,3.1583,3.1837,3.2131,3.2474,3.2768,3.3013,3.3307,3.3414,3.3414,3.6356,3.631,3.6167,3.5874,3.6208,3.7362,3.9989,0.0,0.0,0.0,5.0664,0.0,5.6084,0.0,5.5047,0.0,5.2849,5.007,4.6753,4.523,0.0,4.2495,4.1714,0.0,0.0,0.0,0.0,0.0,0.0,3.2578,3.2863,3.257,3.293,3.3926,3.5254,3.6699,3.832,4.084,4.2148,4.2656,0.0,4.5469,0.0,0.0,4.6172,4.625,0.0,4.5488,4.5137,4.459,4.4082,4.3633,4.3203,4.2891,4.2539,4.1973,4.2207,4.25,4.1777,4.2207,0.0,4.0019,3.9453,0.0,3.6016,0.0,0.0,0.0,0.0,0.0,0.0,0.0,0.0,0.0,0.0,0.0,0.0,3.0898,3.1123,3.167,3.2622,3.2843,3.1826,3.1916,3.1815,3.1336,3.0709,3.1047,0.0,0.0,3.5742,3.6548,3.8142,3.9281,3.9872,3.8316,3.7895,3.8648,3.48,3.3217,3.3567,3.1262,3.0461,3.0915,3.0822,3.0955,3.1249,3.1543,3.1952,3.2278,3.2527,3.2835,3.316,3.3347,3.3414,3.3414,3.6558,3.6295,3.6231,3.6456,3.7735,3.9104,4.0282,0.0,4.6803,0.0,5.1142,5.3475,5.6928,5.612,5.5892,5.7371,5.4633,5.1269,4.7455,4.7458,0.0,0.0,4.3491,4.2953,3.9568,0.0,0.0,0.0,0.0,3.4153,3.4153,3.3262,3.3496,3.4726,3.6914,3.8144,3.8865,4.2695,4.4609,4.5137,4.5957,4.6308,4.6289,4.584,4.5918,4.6211,4.5781,4.5098,4.4394,4.4375,4.4062,4.3633,4.3242,4.3146,4.2949,4.2109,4.2461,4.2832,4.1641,4.1875,4.205,4.043,0.0,0.0,0.0,0.0,3.8337,0.0,0.0,0.0,0.0,0.0,0.0,0.0,0.0,0.0,0.0,0.0,3.0898,3.0918,3.1322,3.1654,3.1707,3.0787,3.0141,3.018,2.9085,2.9452,0.0,0.0,3.4495,3.6072,3.7702,3.9006,3.9872,3.7946,3.7367,3.8118,3.4345,3.2572,3.2543,3.0705,3.0074,3.0426,3.0662,3.0942,3.1236,3.1543,3.2059,3.2594,3.2594,3.2955,3.3414,3.3414,3.3414,3.3414,3.7048,3.7733,3.8261,3.7941,3.7568,3.8284,4.1157,0.0,0.0,0.0,5.3139,5.5282,5.7523,5.7998,5.7894,5.7329,5.5927,0.0,0.0,0.0,0.0,4.6997,4.6488,4.5582,4.4065,4.162,0.0,3.8655,0.0,3.4707,3.5039,3.416,3.375,3.3816,3.6348,3.7871,3.8826,4.2071,4.4219,4.5566,4.6094,4.6484,0.0,0.0,4.5742,4.5742,4.5,4.459,4.4355,4.4004,4.3808,4.3691,4.3574,4.3555,4.3437,4.291,4.3125,4.3398,4.2773,4.2969,4.3125,4.2051,4.1543,4.0918,0.0,0.0,0.0,0.0,0.0,0.0,0.0,0.0,0.0,0.0,0.0,0.0,0.0,0.0,0.0,3.1328,3.0766,3.0371,3.0395,3.0694,3.0571,2.9806,2.9207,2.936,0.0,0.0,0.0,3.4825,3.7026,3.8713,3.9872,3.6625,3.5433,3.6188,3.2396,3.0725,3.0989,3.0232,3.0074,3.0426,3.0662,3.0835,3.0942,3.1463,3.2059,3.2594,3.2594,3.2955,3.3414,3.3414,3.3414,3.3414,3.7538,3.9018,4.0116,3.9715,3.9898,4.0907,4.3292,4.4402,0.0,5.1595,5.3575,0.0,5.6712,5.8426,5.9004,5.7836,5.6992,0.0,5.3769,0.0,0.0,4.9785,4.8828,4.7851,4.6797,4.3574,0.0,4.0254,0.0,3.5508,3.5371,3.4525,3.4043,3.4082,3.6504,3.7949,3.8845,4.2207,4.4551,4.5976,4.6211,4.6328,0.0,4.5644,4.5273,4.5019,4.4336,4.4101,4.4062,4.3789,4.3711,4.3711,4.3711,4.3711,4.3652,4.3418,4.3516,4.3652,4.3418,4.3516,4.3594,4.3105,4.2812,4.2305,4.1016,4.0762,4.0547,0.0,0.0,0.0,0.0,0.0,0.0,0.0,0.0,0.0,0.0,0.0,0.0,0.0,3.0748,3.0249,2.9911,2.9949,2.9725,2.9097,2.9207,0.0,0.0,0.0,0.0,3.4128,3.6805,3.8713,3.9615,3.64,3.4974,3.5185,3.16,3.0007,3.0167,2.9993,3.0074,3.0426,3.0662,3.0862,3.1022,3.1476,3.2059,3.2621,3.2875,3.312,3.3414,3.3414,3.3414,3.3414,3.8024,4.0227,4.1943,4.1495,4.3345,4.5265,0.0,4.6828,0.0,5.2526,0.0,5.484,5.6103,5.8412,5.957,5.8769,0.0,5.6543,5.457,5.4284,5.3309,5.1308,5.0762,4.9941,4.873,4.5586,0.0,0.0,0.0,3.6309,3.5449,3.4603,3.4388,3.4785,3.6836,3.8125,3.9021,4.2734,4.4941,4.5976,4.6211,4.6094,4.5703,4.5215,4.4805,4.4414,4.3887,4.3711,4.3711,4.3711,4.3711,4.3711,4.3711,4.3711,4.3711,4.3711,4.3711,4.3711,4.3711,4.3711,4.3711,4.3711,4.3672,4.334,4.2226,4.1601,4.1152,4.0762,3.9318,0.0,0.0,0.0,0.0,0.0,0.0,0.0,0.0,0.0,0.0,0.0,0.0,0.0,2.9976,2.9138,2.8594,2.848,0.0,0.0,0.0,0.0,0.0,3.3798,3.6524,0.0,3.9041,0.0,3.4914,3.4674,3.1439,2.9913,2.9913,2.9953,3.0114,3.0426,3.0702,3.0996,3.1249,3.1543,3.2059,3.2648,3.3187,3.3414,3.3414,3.3414,3.3414,3.3414,3.8591,4.1813,4.4065,4.2741,4.5291,4.8258,5.0508,5.1201,5.2328,5.4696,5.7409,5.9255,5.9515,5.9976,6.008,5.9629,5.8772,0.0,0.0,0.0,0.0,5.3484,5.2695,5.1992,5.1426,4.7422,4.4766,0.0,0.0,0.0,3.5898,3.5,3.4629,3.4766,3.623,3.793,3.9844,4.2637,0.0,4.4277,4.5723,4.625,4.6113,4.5332,4.498,4.4805,4.4004,4.3711,4.3711,4.3711,4.3711,4.3711,4.3711,4.3711,4.3711,4.3711,4.3711,4.3711,4.3711,4.3711,4.3711,4.3711,4.3437,4.3166,4.291,4.2246,4.166,4.1582,4.0488,3.9283,3.8464,0.0,0.0,0.0,0.0,0.0,0.0,0.0,0.0,0.0,0.0,3.0197,3.008,2.9916,2.955,2.8931,0.0,0.0,0.0,0.0,0.0,0.0,3.4255,0.0,0.0,0.0,3.2849,3.3782,3.1135,2.9913,2.9927,3.0167,3.036,3.044,3.0915,3.1183,3.1249,3.1543,3.2059,3.2648,3.3187,3.3414,3.3414,3.3414,3.3414,3.3414,4.199,4.3415,4.4765,4.5502,4.7217,0.0,0.0,5.4361,5.5463,5.5828,5.7131,5.8203,5.8543,5.9666,6.0156,5.9531,5.8887,5.8242,5.7598,5.6543,5.5514,5.4726,5.3418,0.0,5.1758,4.7969,4.5254,4.3711,0.0,0.0,0.0,0.0,3.4707,3.4766,3.6309,3.8437,4.0976,0.0,0.0,4.4512,4.5781,4.6172,4.5918,4.5273,4.4883,4.4609,4.3945,4.3711,4.3711,4.3711,4.3711,4.3711,4.3711,4.3711,4.3711,4.3711,4.3711,4.3711,4.3711,4.3711,4.3711,4.3711,4.3555,4.334,4.3166,4.2578,4.1992,4.1562,4.0625,3.938,3.7658,3.528,0.0,0.0,0.0,0.0,0.0,0.0,0.0,0.0,0.0,0.0,0.0,0.0,0.0,0.0,0.0,0.0,0.0,0.0,0.0,0.0,0.0,0.0,0.0,0.0,0.0,3.2791,3.0863,2.9913,2.9927,3.0266,3.0493,3.0608,3.1036,3.1316,3.149,3.1992,3.234,3.2648,3.3187,3.3414,3.3414,3.3414,3.3414,3.3414,4.5337,4.5244,4.5806,4.8186,4.9399,5.1063,5.4174,5.6707,5.7973,5.7065,5.6913,5.7009,5.7459,5.9094,5.9865,5.9238,5.8769,5.8379,5.8027,5.6875,5.5924,5.5469,5.3867,5.2539,5.1582,4.8379,4.5469,0.0,0.0,0.0,0.0,0.0,0.0,3.5059,0.0,0.0,0.0,0.0,4.3418,4.4844,4.5879,4.6113,4.5762,4.5332,4.4961,4.459,4.4043,4.3848,4.3828,4.373,4.3711,4.3711,4.3711,4.3711,4.3711,4.3711,4.3711,4.3711,4.3711,4.3711,4.3711,4.3711,4.3574,4.334,4.3008,4.2459,4.1814,4.1172,4.022,3.8908,3.694,3.5333,0.0,0.0,0.0,0.0,0.0,0.0,0.0,0.0,0.0,0.0,2.9483,0.0,0.0,0.0,0.0,0.0,0.0,0.0,0.0,0.0,0.0,3.331,3.5328,0.0,3.2002,0.0,3.0516,2.9953,3.002,3.0314,3.0608,3.0902,3.1196,3.145,3.1764,3.2353,3.2594,3.2648,3.3187,3.3414,3.3414,3.3414,3.3414,3.3414,4.6439,4.766,4.8768,4.951,0.0,5.4752,5.5856,5.8058,5.9587,5.9465,5.9763,5.9881,5.9579,5.9372,5.9297,5.918,5.8769,5.848,5.8476,5.7617,5.6738,5.5865,5.4558,5.332,5.2051,4.9394,4.6211,0.0,0.0,0.0,0.0,0.0,0.0,0.0,0.0,0.0,0.0,4.1836,4.334,4.3984,4.5625,4.6289,4.6191,4.5781,4.5586,4.5449,4.4629,4.4336,4.4277,4.3848,4.3711,4.3711,4.3711,4.3711,4.3711,4.3711,4.3711,4.3711,4.3711,4.3711,4.3711,4.3711,4.3125,4.2499,4.246,4.1539,4.0645,4.0568,3.9355,3.7821,3.6402,3.547,3.4647,0.0,0.0,0.0,0.0,0.0,0.0,3.0549,0.0,0.0,0.0,2.9372,0.0,0.0,2.9078,0.0,0.0,0.0,0.0,3.2009,0.0,2.9886,3.3494,3.0781,0.0,3.0924,3.0244,3.006,3.0373,3.0621,3.0915,3.1196,3.1503,3.1684,3.1764,3.2353,3.2594,3.2648,3.3187,3.3414,3.3414,3.3414,3.3414,3.3414,0.0,0.0,0.0,0.0,0.0,0.0,0.0,5.8646,5.9629,6.0098,6.0781,6.1035,6.0625,6.0215,5.9824,5.959,5.918,5.8828,5.8535,5.7969,5.7109,5.5924,5.4655,5.325,5.1719,4.9687,4.6836,0.0,0.0,0.0,0.0,0.0,0.0,0.0,0.0,3.9375,4.0644,4.2617,4.3848,4.4609,4.582,4.6308,4.625,4.584,4.5508,4.5234,4.4902,4.4433,4.3984,4.4082,4.3926,4.3711,4.3711,4.3711,4.3711,4.3711,4.3711,4.3711,4.3711,4.3711,4.3711,4.3711,4.3057,4.243,4.24,4.1636,4.078,4.024,3.8822,3.7502,3.6997,3.6013,3.5259,0.0,0.0,0.0,0.0,0.0,0.0,0.0,0.0,2.9034,0.0,0.0,0.0,0.0,0.0,0.0,0.0,0.0,0.0,2.9156,0.0,2.8324,3.1126,2.9702,2.9539,3.0574,3.0346,3.0341,3.0635,3.0915,3.1209,3.1503,3.1623,3.1711,3.1764,3.2353,3.2594,3.2648,3.3187,3.3414,3.3414,3.3414,3.3414,3.3414,5.2436,0.0,5.0793,0.0,5.3807,5.416,5.7949,5.9004,5.9629,6.0332,6.0957,6.1074,6.039,6.0039,5.9746,5.9453,5.918,5.8887,5.8711,5.832,5.748,5.6172,5.5084,0.0,5.166,5.0195,4.7812,4.4473,4.293,0.0,0.0,0.0,0.0,0.0,3.9844,4.1016,4.2266,4.3691,4.4648,4.5273,4.6016,4.6308,4.625,4.584,4.5566,4.5371,4.5074,4.4587,4.4121,4.4336,4.4082,4.3711,4.3711,4.3711,4.3711,4.3711,4.3711,4.3711,4.3711,4.3711,4.3711,4.3711,4.2973,4.2305,4.2219,4.1396,4.0367,3.9374,3.8234,3.7332,3.7091,3.6312,3.5758,0.0,0.0,0.0,0.0,0.0,0.0,0.0,2.9375,2.8132,2.7107,2.6991,0.0,0.0,0.0,0.0,0.0,0.0,0.0,0.0,0.0,0.0,0.0,2.9319,2.9566,3.04,3.0493,3.0635,3.0929,3.1223,3.1476,3.1724,3.1757,3.1845,3.1837,3.2474,3.2728,3.2768,3.3213,3.3414,3.3414,3.3414,3.3414,3.3414,5.3193,5.2847,5.2882,5.543,5.6933,5.7969,5.8421,5.9238,5.9924,6.0314,6.0372,5.9924,5.8655,5.8535,5.8535,5.8535,5.8535,5.8711,5.9177,5.8769,5.7894,0.0,0.0,5.4707,5.2129,5.123,4.9297,4.6269,0.0,0.0,4.1152,0.0,4.045,4.0528,4.2266,4.3047,4.3224,4.4964,4.5707,4.5746,4.6133,4.6308,4.625,4.584,4.5937,4.6172,4.5332,4.4977,4.4899,4.4531,4.4082,4.3711,4.3711,4.3711,4.3711,4.3711,4.3711,4.3711,4.3711,4.3711,4.3711,4.3711,4.276,4.1817,4.1817,4.0508,3.8952,3.7671,3.7429,3.7173,3.6366,3.6201,3.6054,3.5587,0.0,0.0,0.0,0.0,0.0,0.0,2.9074,2.8665,2.7158,2.6991,0.0,0.0,0.0,0.0,0.0,0.0,0.0,2.7343,2.6178,0.0,2.9785,2.9605,2.9824,3.0413,3.0648,3.0942,3.1236,3.153,3.1711,3.1724,3.1971,3.2104,3.2144,3.2732,3.2973,3.3,3.3293,3.3414,3.3414,3.3414,3.3414,3.3414,5.445,5.4754,5.5156,5.6562,5.7148,5.7793,5.8828,5.918,5.9531,5.9924,5.9982,5.9746,5.9062,5.9238,5.918,0.0,5.8772,5.8887,0.0,5.8594,5.7949,5.664,5.5625,5.4141,5.2129,5.0957,4.9336,4.7168,0.0,0.0,0.0,4.2324,4.2266,4.2344,4.4082,4.5,4.5351,4.6484,4.6797,4.6543,4.668,4.6562,4.6289,4.6152,4.582,4.543,4.5469,4.4883,4.416,4.4336,4.4082,4.3711,4.3711,4.3711,4.3711,4.3711,4.3711,4.3628,4.338,4.3297,4.3234,4.2882,4.2068,4.1329,4.133,4.025,3.9105,3.8428,3.7805,3.7226,3.6695,3.6365,3.6164,3.6018,0.0,0.0,0.0,0.0,0.0,0.0,2.6719,2.5801,0.0,2.4763,0.0,0.0,0.0,0.0,0.0,0.0,0.0,0.0,2.5715,0.0,2.8345,2.9289,3.0074,3.0662,3.0942,3.1249,3.153,3.1671,3.1711,3.1724,3.1971,3.2104,3.2144,3.2732,3.2973,3.3013,3.3293,3.3414,3.3414,3.3414,3.3414,3.3414,5.5312,5.5762,5.6152,5.6855,5.7246,5.7734,5.8555,5.902,5.9297,5.9531,5.9414,5.9238,5.8945,5.9004,0.0,5.8769,5.9004,5.9062,5.8769,5.8597,5.7949,5.664,5.5508,5.4101,5.2363,0.0,0.0,4.8789,4.7695,4.6191,4.4277,4.4277,4.4375,4.459,4.5996,4.668,4.6816,4.7363,4.7324,4.687,4.6758,4.6543,4.6289,4.6133,4.584,4.5488,4.5449,4.4902,4.4219,4.4355,4.4082,4.367,4.3504,4.3463,4.3463,4.3463,4.3463,4.338,4.2943,4.2985,4.2985,4.2527,4.1748,4.095,4.0494,3.981,3.9091,3.8535,3.7859,3.7263,3.6878,3.6457,3.6201,3.6201,0.0,3.3743,3.1576,0.0,0.0,0.0,0.0,0.0,0.0,2.3988,0.0,0.0,0.0,0.0,0.0,0.0,0.0,2.4432,2.6026,0.0,2.8524,2.9673,3.0488,3.0955,3.1249,3.149,3.1711,3.1711,3.173,3.1851,3.2144,3.2332,3.2465,3.2946,3.3146,3.316,3.3334,3.3414,3.3414,3.3414,3.3414,3.3414,5.582,5.5924,0.0,0.0,5.7359,0.0,5.791,5.8669,5.918,5.918,5.8772,5.848,5.848,5.8144,5.8203,5.9023,0.0,0.0,0.0,5.8652,5.7851,5.6601,5.5723,5.4473,5.2754,5.1875,5.1143,5.0723,4.8672,4.7246,4.6426,4.6426,4.6641,4.7006,4.7891,4.8027,4.7676,4.7676,4.7422,4.6948,4.6562,4.6367,4.6308,4.5879,4.5937,4.6152,4.5351,4.5058,4.4918,4.457,4.4099,4.3626,4.3272,4.3087,4.3026,4.3026,4.3068,4.2943,4.2485,4.2652,4.2902,4.2444,4.1665,4.0729,3.9527,3.9205,3.8948,3.8144,3.7647,3.7263,3.6841,3.6438,3.6182,3.6127,3.4206,3.1985,2.9803,0.0,0.0,0.0,0.0,0.0,0.0,2.4429,2.3992,0.0,0.0,0.0,0.0,0.0,2.4132,2.5531,2.7014,2.847,2.99,3.0515,3.0969,3.1263,3.153,3.1711,3.1711,3.1738,3.1851,3.2118,3.2487,3.2781,3.3,3.3293,3.3414,3.3414,3.3414,3.3414,3.3414,3.3414,3.3414,3.3414,0.0,0.0,5.6562,5.6992,5.75,5.7969,5.832,5.8828,5.918,5.918,5.8772,5.848,5.848,5.8144,5.7984,5.8199,5.8219,5.8027,5.7695,5.7578,5.709,5.6133,5.5273,5.416,5.2734,5.1875,5.085,4.9824,4.8984,4.8281,4.7754,4.7754,4.7812,4.793,4.8457,4.8698,4.86,4.86,4.8301,4.7871,4.7441,4.707,4.6694,4.6308,4.6016,4.5844,4.5586,4.5312,4.5,4.4902,4.4317,4.3697,4.3571,4.2858,4.2091,4.2485,4.2569,4.2485,4.2007,4.1965,4.1923,4.1523,4.1018,4.0492,3.9854,3.9447,3.8875,3.7757,3.7446,3.7171,3.6494,3.6274,3.6017,3.5376,3.4558,3.2702,2.9109,2.7852,0.0,0.0,2.3802,2.3993,2.4156,2.3849,2.3655,0.0,0.0,0.0,0.0,2.501,2.5825,2.6172,2.7829,2.9068,2.9913,3.0715,3.1276,3.157,3.1684,3.1711,3.1724,3.1904,3.2038,3.2131,3.2652,3.2969,3.3,3.3293,3.3414,3.3414,3.3414,3.3414,3.3414,3.3414,3.3414,3.3414,5.6543,5.6738,5.6875,5.6914,5.7617,5.8203,5.8203,5.8769,5.9121,5.8887,5.8496,5.8242,5.8242,5.7656,5.7363,5.7539,5.7808,5.7808,5.7519,5.7148,5.6621,5.5904,5.4941,5.3945,5.3027,5.2363,5.1436,5.0343,4.9766,4.9238,4.8808,4.8594,4.8496,4.8516,4.8796,4.8913,4.8894,4.8698,4.8418,4.8164,4.7754,4.719,4.6559,4.6326,4.589,4.5329,4.5092,4.4861,4.4587,4.4438,4.3902,4.3346,4.3135,4.241,4.1695,4.1775,4.1942,4.1965,4.1546,4.1588,4.1612,4.1229,4.0937,4.0625,4.0019,3.9707,3.9171,3.7943,3.7558,3.6998,3.5644,3.5226,3.4612,3.3141,3.2391,3.0928,2.7776,2.682,0.0,2.3768,2.371,2.4031,2.4556,2.4436,2.4409,2.4596,0.0,0.0,2.4983,2.6266,2.6987,2.6987,2.8711,2.9927,3.0515,3.1129,3.1517,3.1711,3.1711,3.1711,3.1724,3.1971,3.2171,3.2367,3.2688,3.2982,3.3173,3.32,3.3293,3.3414,3.3414,3.3414,3.3414,3.3414,3.3414,3.3414,5.6582,5.6875,5.7012,5.664,5.7558,5.8203,5.7867,5.8493,5.8848,5.8476,5.8027,5.7808,5.7808,5.7051,5.6719,5.709,5.7461,5.773,5.773,5.6933,5.6289,5.5806,5.4746,5.3887,5.3429,5.2871,5.2226,5.1377,5.0644,5.0019,4.9465,4.9141,4.8972,4.8913,4.8913,4.8867,4.8736,4.832,4.8118,4.8033,4.7625,4.7012,4.6261,4.6127,4.5636,4.4939,4.4479,4.4328,4.4271,4.3893,4.3495,4.3027,4.2601,4.2156,4.1639,4.1279,4.1392,4.1546,4.1187,4.1336,4.1546,4.1187,4.1102,4.0882,4.0074,3.9891,3.9542,3.8273,3.7741,3.6839,3.4734,3.4067,3.3085,3.0835,2.9737,2.8479,2.6613,0.0,2.4819,2.4,2.4058,2.4459,2.5264,2.5558,2.5625,2.5462,2.6145,2.644,0.0,2.7295,2.7936,2.803,2.9597,3.0662,3.1289,3.1543,3.1711,3.1711,3.1711,3.1711,3.1724,3.2011,3.2353,3.2594,3.2688,3.2959,3.3387,3.3146,3.3187,3.3414,3.3414,3.3414,3.3414,3.3414,3.3414,3.3414,5.6582,5.664,5.666,5.6601,5.7051,5.7383,5.7324,5.7734,5.8102,5.7969,5.7578,5.7305,5.7305,5.6875,5.6621,5.668,5.6738,5.6777,5.6777,5.6308,5.584,5.543,5.4883,5.4199,5.3429,5.2578,5.1933,5.1377,5.0937,5.0293,4.9484,4.9453,4.9219,4.8913,4.8913,4.8636,4.8219,4.8162,4.7891,4.7482,4.7017,4.6763,4.6538,4.5863,4.5514,4.5356,4.4939,4.4807,4.4788,4.4731,4.4147,4.3504,4.3416,4.2611,4.1677,4.1635,4.142,4.1187,4.1102,4.1145,4.1187,4.1102,4.1102,4.0882,4.0074,3.9891,3.9542,3.8273,3.7961,3.7113,3.4478,3.3933,3.322,3.1173,2.9734,2.8424,2.7154,0.0,2.5427,2.4569,2.5157,2.5904,2.6493,2.6547,2.6707,2.6948,2.7095,2.7255,2.7415,2.8281,2.9015,2.9553,3.0132,3.0801,3.1597,3.165,3.1711,3.1711,3.1711,3.1711,3.1738,3.2273,3.2554,3.2621,3.3066,3.3334,3.3414,3.336,3.3374,3.3414,3.3414,3.3414,3.3414,3.3414,3.3414,3.3414,5.6582,5.6758,5.6914,5.6914,5.7285,5.7558,5.7558,5.791,5.8144,5.791,5.791,5.791,5.791,5.7539,5.732,5.732,5.732,5.707,5.6621,5.5957,5.5508,5.5312,5.4687,5.4141,5.373,5.2871,5.2324,5.2109,5.123,5.0462,4.9768,4.9605,4.9134,4.8407,4.8455,4.8173,4.7728,4.7728,4.7588,4.7382,4.7174,4.6781,4.624,4.5667,4.5156,4.4689,4.4298,4.4149,4.4149,4.4149,4.3737,4.3209,4.3209,4.269,4.1959,4.1757,4.1433,4.1102,4.1102,4.1102,4.1102,4.1102,4.1102,4.0882,4.0074,3.9891,3.9542,3.8273,3.8016,3.7239,3.4647,3.3427,3.2097,2.9902,2.7994,0.0,0.0,2.542,2.5153,2.5074,2.5879,2.672,2.7455,2.7535,2.7655,2.7963,2.7989,2.819,2.8631,2.9205,2.978,3.0368,3.0822,3.131,3.1711,3.1824,3.1824,3.1724,3.1824,3.1904,3.1917,3.2393,3.2688,3.2848,3.3066,3.3267,3.34,3.324,3.3267,3.3414,3.3414,3.3414,3.3414,3.3414,3.3414,3.3414,5.6582,5.6855,5.707,5.707,5.7344,5.7652,5.7695,5.8027,5.8086,5.7808,5.8027,5.8187,5.8187,5.791,5.7808,5.7906,5.7926,5.7578,5.6772,5.5784,5.5253,5.5312,5.4338,5.3768,5.3615,5.2762,5.2316,5.2316,5.1085,5.0166,4.9646,4.9297,4.8704,4.7856,4.7908,4.7662,4.7196,4.7196,4.7149,4.7075,4.7075,4.6532,4.5816,4.5482,4.4827,4.405,4.3738,4.3573,4.3499,4.3499,4.3279,4.3048,4.3048,4.2773,4.2387,4.1941,4.1537,4.1231,4.1121,4.1102,4.1102,4.1102,4.1029,4.0772,4.0038,3.9817,3.945,3.8383,3.7831,3.6777,3.4414,3.2527,3.0639,2.8462,0.0,0.0,0.0,2.4996,2.5184,2.5838,2.664,2.7455,2.8312,2.8513,2.8674,2.8791,2.9005,2.9285,2.9717,2.9967,3.0354,3.0875,3.133,3.1597,3.1711,3.1957,3.1957,3.1724,3.1971,3.2104,3.2118,3.246,3.2755,3.2986,3.3053,3.32,3.3387,3.3173,3.3213,3.3414,3.3414,3.3414,3.3414,3.3414,3.3414,3.3414,5.6582,5.6601,5.6621,5.6621,5.666,5.6816,5.7207,5.7285,5.7305,5.7265,5.7285,5.7305,5.7305,5.7285,5.7422,5.7867,5.7926,5.7613,5.7008,5.5797,5.5142,5.528,5.4009,5.3051,5.2537,5.165,5.1214,5.1214,5.001,4.9194,4.8699,4.8311,4.7846,4.7439,4.7448,4.7149,4.6682,4.6682,4.64,4.6025,4.6025,4.5739,4.5343,4.5306,4.4811,4.4086,4.405,4.3811,4.3499,4.3499,4.3481,4.3444,4.3444,4.3151,4.2791,4.2344,4.1959,4.1555,4.1213,4.1102,4.1102,4.1102,4.0827,4.0442,3.9983,3.9538,3.9113,3.8655,3.7277,3.544,3.3078,3.0998,2.9139,2.7559,0.0,0.0,2.6509,2.6226,2.6212,2.7081,2.771,2.8326,2.8868,2.9459,2.9686,2.9432,3.0167,3.0528,3.036,3.0568,3.0875,3.1183,3.1189,3.1396,3.1711,3.1957,3.1957,3.1724,3.1971,3.2104,3.2118,3.246,3.2755,3.2986,3.3267,3.3387,3.3414,3.3387,3.3387,3.3414,3.3414,3.3414,3.3414,3.3414,3.3414,3.3414,5.6914,5.6758,5.6758,5.7339,5.7148,5.7109,5.7558,5.7851,5.8027,5.8027,5.8262,5.8272,5.794,5.7865,5.7716,5.7196,5.7194,5.6891,5.6156,5.5358,5.4531,5.3536,5.3017,5.2588,5.2382,5.1549,5.1113,5.1113,5.0128,4.9414,4.8903,4.878,4.8174,4.7208,4.728,4.6877,4.6166,4.6166,4.6072,4.5883,4.5883,4.5792,4.5645,4.5388,4.4948,4.4462,4.4178,4.3829,4.3499,4.3499,4.3499,4.3499,4.3499,4.3389,4.3169,4.281,4.2406,4.2014,4.191,4.1672,4.1433,4.1158,4.0809,4.0478,4.0313,3.9025,3.7848,3.7708,3.6058,3.4375,3.3422,3.1457,2.9851,2.9399,0.0,2.6436,2.7232,2.7175,2.7269,2.7791,2.854,2.9138,2.9495,2.9953,3.0221,3.0287,3.0768,3.1009,3.0902,3.1169,3.1383,3.149,3.1677,3.1824,3.1931,3.2273,3.2367,3.226,3.238,3.2527,3.2652,3.2808,3.2973,3.3253,3.336,3.3414,3.3414,3.3414,3.3414,3.3414,3.3414,3.3414,3.3414,3.3414,3.3414,3.3414,5.6953,5.6777,5.6777,5.7417,5.7207,5.7207,5.7793,5.8144,5.8359,5.848,5.8603,5.8538,5.8127,5.7884,5.7566,5.7002,5.6832,5.6473,5.5629,5.4694,5.3623,5.2388,5.2181,5.2073,5.1866,5.1041,5.061,5.061,4.9653,4.9007,4.8644,4.8577,4.7973,4.6892,4.6981,4.6582,4.5883,4.5883,4.5883,4.5883,4.5883,4.581,4.5682,4.5535,4.515,4.4682,4.4407,4.4013,4.3664,4.3536,4.3499,4.3499,4.3499,4.3408,4.3261,4.3158,4.2828,4.2516,4.2516,4.2314,4.2002,4.1598,4.1194,4.0901,4.0901,3.9026,3.7288,3.7288,3.509,3.3117,3.3091,3.1256,2.9785,2.983,2.8359,2.7375,2.7776,2.7923,2.8123,2.8567,2.9192,2.974,3.0034,3.0408,3.0715,3.0915,3.1196,3.137,3.137,3.1557,3.1764,3.1797,3.1998,3.2185,3.2372,3.2634,3.2688,3.2594,3.2688,3.2835,3.2973,3.2973,3.3133,3.3414,3.3414,3.3414,3.3414,3.3414,3.3414,3.3414,3.3414,3.3414,3.3414,3.3414,3.3414,3.3414,5.6582,5.6582,5.6582,5.6582,5.6601,5.6875,5.7789,5.7926,5.8027,5.8421,5.7981,5.7592,5.7573,5.7072,5.6852,5.7325,5.6984,5.6477,5.5824,5.3694,5.2369,5.2103,5.1708,5.1226,5.0725,4.9918,4.9496,4.9496,4.8286,4.7699,4.7699,4.7295,4.6892,4.6489,4.6536,4.6269,4.5902,4.5883,4.5883,4.5883,4.5883,4.5645,4.5352,4.5737,4.5388,4.4719,4.4719,4.448,4.4031,4.3628,4.3499,4.3499,4.3499,4.325,4.2993,4.3371,4.325,4.292,4.292,4.292,4.2828,4.2424,4.1977,4.1684,4.1684,3.9611,3.7665,3.7665,3.4487,3.1668,3.1668,2.9982,2.8511,2.8245,2.8192,2.8192,2.8205,2.8417,2.8831,2.9419,2.9753,3.0034,3.0386,3.0889,3.1176,3.1176,3.1503,3.1711,3.1711,3.1724,3.181,3.2091,3.2104,3.2385,3.2973,3.2973,3.2875,3.2607,3.2888,3.2973,3.2973,3.2986,3.3133,3.3414,3.3414,3.3414,3.3414,3.3414,3.3414,3.3414,3.3414,3.3414,3.3414,3.3414,3.3414,3.3414,5.6973,5.6797,5.668,5.6973,5.7285,5.745,5.7301,5.779,5.8085,5.7791,5.7549,5.7305,5.6892,5.6647,5.6328,5.5709,5.5264,5.4709,5.3952,5.2519,5.175,5.1964,5.1301,5.0862,5.0725,4.9918,4.9496,4.9496,4.8561,4.8102,4.8102,4.7992,4.7717,4.7314,4.7039,4.669,4.6287,4.6012,4.5883,4.5883,4.5883,4.5828,4.5737,4.5847,4.5572,4.5113,4.5113,4.4856,4.448,4.405,4.3903,4.3866,4.3573,4.3408,4.3334,4.3463,4.3408,4.3298,4.3298,4.3298,4.3151,4.2454,4.1977,4.1323,4.004,3.7883,3.5795,3.4452,3.2048,3.0228,3.0389,2.9582,2.8951,2.9115,2.8911,2.8911,2.9325,2.9299,2.9513,3.0314,3.0301,3.0421,3.0915,3.1129,3.1316,3.1517,3.1623,3.1711,3.1711,3.1864,3.2011,3.2104,3.2353,3.2648,3.2973,3.2822,3.2781,3.2902,3.2933,3.2973,3.2986,3.3187,3.3334,3.3414,3.3414,3.3414,3.3414,3.3414,3.3414,3.3414,3.3414,3.3414,3.3414,3.3414,3.3414,3.3414,5.6914,5.6758,5.6606,5.6591,5.6863,5.6917,5.6662,5.7104,5.7395,5.74,5.7193,5.6929,5.6533,5.623,5.5799,5.4979,5.4539,5.3916,5.2944,5.2192,5.1752,5.1697,5.1055,5.0651,5.0486,4.9845,4.9423,4.9258,4.8616,4.8286,4.8286,4.8286,4.7992,4.7461,4.7222,4.6782,4.6232,4.5993,4.5883,4.5883,4.5883,4.5883,4.5883,4.5883,4.5737,4.5517,4.5352,4.5132,4.4856,4.4453,4.4325,4.427,4.4031,4.3958,4.3921,4.3774,4.3738,4.3701,4.3536,4.3499,4.3371,4.2876,4.2582,4.1902,3.9946,3.7788,3.5566,3.3709,3.1466,2.9927,3.0207,2.9873,2.9659,2.9953,2.9847,2.986,3.0207,3.0114,3.0194,3.0728,3.0742,3.0835,3.1196,3.133,3.1476,3.1698,3.1711,3.1764,3.1837,3.2011,3.2211,3.2438,3.2554,3.2795,3.3146,3.2915,3.2915,3.3146,3.3146,3.3146,3.316,3.3334,3.3414,3.3414,3.3414,3.3414,3.3414,3.3414,3.3414,3.3414,3.3414,3.3414,3.3414,3.3414,3.3414,3.3414,5.6582,5.6582,5.6368,5.5778,5.5709,5.5762,5.5923,5.602,5.6286,5.7042,5.6685,5.6382,5.6401,5.5833,5.5271,5.4868,5.4392,5.3696,5.2596,5.2431,5.21,5.1403,5.0945,5.0541,5.0087,4.9716,4.9349,4.9019,4.8524,4.8304,4.8341,4.8304,4.7901,4.7204,4.713,4.669,4.5993,4.592,4.5883,4.5883,4.5883,4.5883,4.5883,4.5883,4.5883,4.5847,4.548,4.5352,4.5297,4.4875,4.4756,4.4719,4.4719,4.4719,4.4645,4.4196,4.3996,4.3769,4.3359,4.3134,4.2999,4.2999,4.3017,4.255,4.0634,3.8473,3.6278,3.4294,3.2074,3.052,3.0742,3.0627,3.0533,3.0755,3.0795,3.0808,3.0822,3.0808,3.0808,3.0862,3.1076,3.1189,3.1263,3.1517,3.1711,3.1711,3.1738,3.1824,3.2091,3.2158,3.2425,3.2959,3.2768,3.2902,3.34,3.312,3.3106,3.3374,3.34,3.34,3.3374,3.34,3.3414,3.3414,3.3414,3.3414,3.3414,3.3414,3.3414,3.3414,3.3414,3.3414,3.3414,3.3414,3.3414,3.3414,5.6582,5.6207,5.5832,5.5725,5.5616,5.5412,5.498,5.5169,5.5395,5.5449,5.5335,5.5351,5.5682,5.5311,5.485,5.4503,5.3476,5.2944,5.298,5.21,5.1642,5.1735,5.111,5.0541,5.0087,4.9716,4.9624,4.9812,4.8799,4.8451,4.8763,4.8432,4.8194,4.7992,4.7387,4.7002,4.68,4.6158,4.5883,4.5883,4.5883,4.5883,4.5883,4.5883,4.5883,4.5883,4.5792,4.5755,4.57,4.5297,4.4948,4.4719,4.4719,4.4719,4.4645,4.4196,4.2989,4.1722,4.1607,4.041,3.9195,3.9195,3.9408,3.9252,3.8084,3.6294,3.4218,3.1978,3.1104,3.0715,3.0782,3.0742,3.0715,3.0782,3.0795,3.0875,3.1102,3.0942,3.0969,3.147,3.133,3.1316,3.1557,3.1684,3.1711,3.1711,3.1877,3.2038,3.2104,3.2532,3.2853,3.2973,3.2919,3.3053,3.3414,3.312,3.3013,3.308,3.3307,3.3293,3.308,3.3307,3.3414,3.3414,3.3414,3.3414,3.3414,3.3414,3.3414,3.3414,3.3414,3.3414,3.3414,3.3414,3.3414,3.3414,5.6154,5.5725,5.524,5.4917,5.4835,5.4643,5.4246,5.4376,5.4506,5.4613,5.4593,5.4704,5.4905,5.4759,5.4428,5.4062,5.3421,5.2889,5.2523,5.232,5.1935,5.1332,5.1128,5.0817,5.0413,4.9808,4.9514,4.9551,4.8909,4.8598,4.8616,4.8396,4.8176,4.7974,4.7369,4.7002,4.6764,4.6158,4.5883,4.5883,4.5883,4.5883,4.5883,4.5883,4.5883,4.5883,4.5883,4.5883,4.5865,4.5645,4.5443,4.526,4.526,4.4572,4.369,4.3299,4.1768,4.0113,3.9854,3.9057,3.8244,3.8244,3.7631,3.6921,3.6281,3.5338,3.4003,3.186,3.1196,3.1049,3.1183,3.1089,3.1049,3.1183,3.1209,3.1263,3.141,3.1303,3.1376,3.1684,3.153,3.1557,3.1851,3.2059,3.2072,3.1891,3.2144,3.2367,3.2367,3.2781,3.304,3.3187,3.3187,3.3253,3.3414,3.3253,3.3187,3.3187,3.3334,3.3334,3.3187,3.3347,3.3414,3.3414,3.3414,3.3414,3.3414,3.3414,3.3414,3.3414,3.3414,3.3414,3.3414,3.3414,3.3414,3.3414,5.5563,5.5152,5.4612,5.407,5.3907,5.3801,5.3604,5.3586,5.3732,5.4117,5.4228,5.4209,5.4282,5.4227,5.4062,5.3641,5.3586,5.3164,5.2157,5.2614,5.232,5.0982,5.111,5.1055,5.0725,4.9991,4.9459,4.9129,4.8909,4.8653,4.8396,4.8322,4.8102,4.7772,4.7314,4.691,4.6562,4.6085,4.5883,4.5883,4.5883,4.5883,4.5883,4.5883,4.5883,4.5883,4.5883,4.5883,4.5883,4.5883,4.5648,4.5347,4.5347,4.3937,4.2164,4.1809,4.0201,3.8494,3.8164,3.7801,3.7562,3.7562,3.633,3.5082,3.478,3.4669,3.4121,3.2427,3.1717,3.1436,3.1684,3.1503,3.145,3.1704,3.1791,3.1805,3.1858,3.1818,3.1805,3.1858,3.1872,3.1965,3.2158,3.2447,3.2487,3.2198,3.25,3.2674,3.2674,3.2942,3.316,3.34,3.3414,3.3414,3.3414,3.3414,3.3414,3.3414,3.3414,3.3414,3.3414,3.3414,3.3414,3.3414,3.3414,3.3414,3.3414,3.3414,3.3414,3.3414,3.3414,3.3414,3.3414,3.3414,3.3414,3.3414,5.499,5.4558,5.407,5.4016,5.3563,5.3182,5.3182,5.3164,5.3329,5.3751,5.3806,5.3897,5.4283,5.4007,5.3641,5.3219,5.3164,5.3127,5.2962,5.2358,5.1955,5.1735,5.1094,5.078,5.0725,5.0233,4.9977,4.9922,4.8891,4.8524,4.8818,4.8451,4.8249,4.8176,4.7424,4.7075,4.6965,4.6213,4.5883,4.5883,4.5883,4.5883,4.5883,4.5883,4.5883,4.5883,4.5883,4.5883,4.5883,4.5883,4.4714,4.3223,4.3223,4.1799,4.0045,3.9628,3.809,3.6445,3.6289,3.5037,3.3743,3.3743,3.3687,3.3611,3.3363,3.2889,3.2427,3.2152,3.2038,3.1917,3.1704,3.1837,3.1998,3.2038,3.2051,3.2131,3.2447,3.2211,3.2144,3.2447,3.2474,3.2487,3.2527,3.2567,3.2581,3.2541,3.2808,3.2969,3.2969,3.32,3.3374,3.3414,3.3414,3.3414,3.3414,3.3414,3.3414,3.3414,3.3414,3.3414,3.3414,3.3414,3.3414,3.3414,3.3414,3.3414,3.3414,3.3414,3.3414,3.3414,3.3414,3.3414,3.3414,3.3414,3.3414,3.3414,5.4395,5.3889,5.3508,5.3508,5.3291,5.3109,5.3109,5.3109,5.3164,5.3311,5.3384,5.3421,5.3586,5.3494,5.3274,5.3127,5.2907,5.2687,5.2413,5.2083,5.168,5.1275,5.1128,5.0945,5.0725,5.0101,4.9771,4.9771,4.9019,4.8616,4.8561,4.8377,4.8157,4.7937,4.7351,4.6984,4.6727,4.614,4.5883,4.5883,4.5883,4.5883,4.5883,4.5883,4.5883,4.5883,4.5883,4.5158,4.4192,4.4192,4.2775,4.1077,4.1077,3.9624,3.7885,3.7684,3.6187,3.4589,3.4526,3.3895,3.3213,3.3213,3.332,3.3374,3.3253,3.2893,3.2585,3.2585,3.2465,3.2353,3.2233,3.2313,3.2393,3.2393,3.2393,3.2447,3.2581,3.2474,3.2447,3.2581,3.2741,3.2835,3.2835,3.2982,3.2959,3.2848,3.3053,3.3146,3.2986,3.3253,3.3414,3.3414,3.3414,3.3414,3.3414,3.3414,3.3414,3.3414,3.3414,3.3414,3.3414,3.3414,3.3414,3.3414,3.3414,3.3414,3.3414,3.3414,3.3414,3.3414,3.3414,3.3414,3.3414,3.3414,3.3414,3.3414]},{"header":{"parameterUnit":"m.s-1","parameterCategory":1,"la1":30.6,"la2":28.766,"lo1":-90.7593,"lo2":-88.6598,"dy":0.0162,"dx":0.0183,"nx":116,"ny":114,"refTime":"2023-11-11T06:00:00:Z","depth":0,"parameterNumber":3,"parameterNumberName":"V-component_of_WINDS"},"data":[0.0,0.0,0.0,0.0,0.0,0.0,0.0,0.0,0.0,0.0,0.0,0.0,0.0,0.0,0.0,0.0,0.0,0.0,0.0,0.0,0.0,0.0,0.0,0.0,0.0,0.0,0.0,0.0,0.0,0.0,0.0,0.0,0.0,0.0,0.0,0.0,0.0,0.0,0.0,0.0,0.0,0.0,0.0,0.0,0.0,0.0,0.0,0.0,0.0,0.0,0.0,0.0,0.0,0.0,0.0,0.0,0.0,0.0,0.0,0.0,0.0,0.0,0.0,0.0,0.0,0.0,0.0,0.0,0.0,0.0,0.0,0.0,0.0,0.0,0.0,0.0,0.0,0.0,0.0,0.0,0.0,0.0,0.0,0.0,0.0,0.0,0.0,0.0,0.0,0.0,0.0,0.0,0.0,0.0,0.0,0.0,0.0,0.0,0.0,0.0,0.0,0.0,0.0,0.0,0.0,0.0,0.0,0.0,0.0,0.0,0.0,0.0,0.0,0.0,0.0,0.0,0.0,0.0,0.0,0.0,0.0,0.0,0.0,0.0,0.0,0.0,0.0,0.0,0.0,0.0,0.0,0.0,0.0,0.0,0.0,0.0,0.0,0.0,0.0,0.0,0.0,0.0,0.0,0.0,0.0,0.0,0.0,0.0,0.0,0.0,0.0,0.0,0.0,0.0,0.0,0.0,0.0,0.0,0.0,0.0,0.0,0.0,0.0,0.0,0.0,0.0,0.0,0.0,0.0,0.0,0.0,0.0,0.0,0.0,0.0,0.0,0.0,0.0,0.0,0.0,0.0,0.0,0.0,0.0,0.0,0.0,0.0,0.0,0.0,0.0,0.0,0.0,0.0,0.0,0.0,0.0,0.0,0.0,0.0,0.0,0.0,0.0,0.0,0.0,0.0,0.0,0.0,0.0,0.0,0.0,0.0,0.0,0.0,0.0,0.0,0.0,0.0,0.0,0.0,0.0,0.0,0.0,0.0,0.0,0.0,0.0,0.0,0.0,0.0,0.0,0.0,0.0,0.0,0.0,0.0,0.0,0.0,0.0,0.0,0.0,0.0,0.0,0.0,0.0,0.0,0.0,0.0,0.0,0.0,0.0,0.0,0.0,0.0,0.0,0.0,0.0,0.0,0.0,0.0,0.0,0.0,0.0,0.0,0.0,0.0,0.0,0.0,0.0,0.0,0.0,0.0,0.0,0.0,0.0,0.0,0.0,0.0,0.0,0.0,0.0,0.0,0.0,0.0,0.0,0.0,0.0,0.0,0.0,0.0,0.0,0.0,0.0,0.0,0.0,0.0,0.0,0.0,0.0,0.0,0.0,0.0,0.0,0.0,0.0,0.0,0.0,0.0,0.0,0.0,0.0,0.0,0.0,0.0,0.0,0.0,0.0,0.0,0.0,0.0,0.0,0.0,0.0,0.0,0.0,0.0,0.0,0.0,0.0,0.0,0.0,0.0,0.0,0.0,0.0,0.0,0.0,0.0,0.0,0.0,0.0,0.0,0.0,0.0,0.0,0.0,0.0,0.0,0.0,0.0,0.0,0.0,0.0,0.0,0.0,0.0,0.0,0.0,0.0,0.0,0.0,0.0,0.0,0.0,0.0,0.0,0.0,0.0,0.0,0.0,0.0,0.0,0.0,0.0,0.0,0.0,0.0,0.0,0.0,0.0,0.0,0.0,0.0,0.0,0.0,0.0,0.0,0.0,0.0,0.0,0.0,0.0,0.0,0.0,0.0,0.0,0.0,0.0,0.0,0.0,0.0,0.0,0.0,0.0,0.0,0.0,0.0,0.0,0.0,0.0,0.0,0.0,0.0,0.0,0.0,0.0,0.0,0.0,0.0,0.0,0.0,0.0,0.0,0.0,0.0,0.0,0.0,0.0,0.0,0.0,0.0,0.0,0.0,0.0,0.0,0.0,0.0,0.0,0.0,0.0,0.0,0.0,0.0,0.0,0.0,0.0,0.0,0.0,0.0,0.0,0.0,0.0,0.0,0.0,0.0,0.0,0.0,0.0,0.0,0.0,0.0,0.0,0.0,0.0,0.0,0.0,0.0,0.0,0.0,0.0,0.0,0.0,0.0,0.0,0.0,0.0,0.0,0.0,0.0,0.0,0.0,0.0,0.0,0.0,0.0,0.0,0.0,0.0,0.0,0.0,0.0,0.0,0.0,0.0,0.0,0.0,0.0,0.0,0.0,0.0,0.0,0.0,0.0,0.0,0.0,0.0,0.0,0.0,0.0,0.0,0.0,0.0,0.0,0.0,0.0,0.0,0.0,0.0,0.0,0.0,0.0,0.0,0.0,0.0,0.0,0.0,0.0,0.0,0.0,0.0,0.0,0.0,0.0,0.0,0.0,0.0,0.0,0.0,0.0,0.0,0.0,0.0,0.0,0.0,0.0,0.0,0.0,0.0,0.0,0.0,0.0,0.0,0.0,0.0,0.0,0.0,0.0,0.0,0.0,0.0,0.0,0.0,0.0,0.0,0.0,0.0,0.0,0.0,0.0,0.0,0.0,0.0,0.0,0.0,0.0,0.0,0.0,0.0,0.0,0.0,0.0,0.0,0.0,0.0,0.0,0.0,0.0,0.0,0.0,0.0,0.0,0.0,0.0,0.0,0.0,0.0,0.0,0.0,0.0,0.0,0.0,0.0,0.0,0.0,0.0,0.0,0.0,0.0,0.0,0.0,0.0,0.0,0.0,0.0,0.0,0.0,0.0,0.0,0.0,0.0,0.0,0.0,0.0,0.0,0.0,0.0,0.0,0.0,0.0,0.0,0.0,0.0,0.0,0.0,0.0,0.0,0.0,0.0,0.0,0.0,0.0,0.0,0.0,0.0,0.0,0.0,0.0,0.0,0.0,0.0,0.0,0.0,0.0,0.0,0.0,0.0,0.0,0.0,0.0,0.0,0.0,0.0,0.0,0.0,0.0,0.0,0.0,0.0,0.0,0.0,0.0,0.0,0.0,0.0,0.0,0.0,0.0,0.0,0.0,0.0,0.0,0.0,0.0,0.0,0.0,0.0,0.0,0.0,0.0,0.0,0.0,0.0,0.0,0.0,0.0,0.0,0.0,0.0,0.0,0.0,0.0,0.0,0.0,0.0,0.0,0.0,0.0,0.0,0.0,0.0,0.0,0.0,0.0,0.0,0.0,0.0,0.0,0.0,0.0,0.0,0.0,0.0,0.0,0.0,0.0,0.0,0.0,0.0,0.0,0.0,0.0,0.0,0.0,0.0,0.0,0.0,0.0,0.0,0.0,0.0,0.0,0.0,0.0,0.0,0.0,0.0,0.0,0.0,0.0,0.0,0.0,0.0,0.0,0.0,0.0,0.0,0.0,0.0,0.0,0.0,0.0,0.0,0.0,0.0,0.0,0.0,0.0,0.0,0.0,0.0,0.0,0.0,0.0,0.0,0.0,0.0,0.0,0.0,0.0,0.0,0.0,0.0,0.0,0.0,0.0,0.0,0.0,0.0,0.0,0.0,0.0,0.0,0.0,0.0,0.0,0.0,0.0,0.0,0.0,0.0,0.0,0.0,0.0,0.0,0.0,0.0,0.0,0.0,0.0,0.0,0.0,0.0,0.0,0.0,0.0,0.0,0.0,0.0,0.0,0.0,0.0,0.0,0.0,0.0,0.0,0.0,0.0,0.0,0.0,0.0,0.0,0.0,0.0,0.0,0.0,0.0,0.0,0.0,0.0,0.0,0.0,0.0,0.0,0.0,0.0,0.0,0.0,0.0,0.0,0.0,0.0,0.0,0.0,0.0,0.0,0.0,0.0,0.0,0.0,0.0,0.0,0.0,0.0,0.0,0.0,0.0,0.0,0.0,0.0,0.0,0.0,0.0,0.0,0.0,0.0,0.0,0.0,0.0,0.0,0.0,0.0,0.0,0.0,0.0,0.0,0.0,0.0,0.0,0.0,0.0,0.0,0.0,0.0,0.0,0.0,0.0,0.0,0.0,0.0,0.0,0.0,0.0,0.0,0.0,0.0,0.0,0.0,0.0,0.0,0.0,0.0,0.0,0.0,0.0,0.0,0.0,0.0,0.0,0.0,0.0,0.0,0.0,0.0,0.0,0.0,0.0,0.0,0.0,0.0,0.0,0.0,0.0,0.0,0.0,0.0,0.0,0.0,0.0,0.0,0.0,0.0,0.0,0.0,0.0,0.0,0.0,0.0,0.0,0.0,0.0,0.0,0.0,0.0,0.0,0.0,0.0,0.0,0.0,0.0,0.0,0.0,0.0,0.0,0.0,0.0,0.0,0.0,0.0,0.0,0.0,0.0,0.0,0.0,0.0,0.0,0.0,0.0,0.0,0.0,0.0,0.0,0.0,0.0,0.0,0.0,0.0,0.0,0.0,0.0,0.0,0.0,0.0,0.0,0.0,0.0,0.0,0.0,0.0,0.0,0.0,0.0,0.0,0.0,0.0,0.0,0.0,0.0,0.0,0.0,0.0,0.0,0.0,0.0,0.0,0.0,0.0,0.0,0.0,0.0,0.0,0.0,0.0,0.0,0.0,0.0,0.0,0.0,0.0,0.0,0.0,0.0,0.0,0.0,0.0,0.0,0.0,0.0,0.0,0.0,0.0,0.0,0.0,0.0,0.0,0.0,0.0,0.0,0.0,0.0,0.0,0.0,0.0,0.0,0.0,0.0,0.0,0.0,0.0,0.0,0.0,0.0,0.0,0.0,0.0,0.0,0.0,0.0,0.0,0.0,0.0,0.0,0.0,0.0,0.0,0.0,0.0,0.0,0.0,0.0,0.0,0.0,0.0,0.0,0.0,0.0,0.0,0.0,0.0,0.0,0.0,0.0,0.0,0.0,0.0,0.0,0.0,0.0,0.0,0.0,0.0,0.0,0.0,0.0,0.0,0.0,0.0,0.0,0.0,0.0,0.0,0.0,0.0,0.0,0.0,0.0,0.0,0.0,0.0,0.0,0.0,0.0,0.0,0.0,0.0,0.0,0.0,0.0,0.0,0.0,0.0,0.0,0.0,0.0,0.0,0.0,0.0,0.0,0.0,0.0,0.0,0.0,0.0,0.0,0.0,0.0,0.0,0.0,0.0,0.0,0.0,0.0,0.0,0.0,0.0,0.0,0.0,0.0,0.0,0.0,0.0,0.0,0.0,0.0,0.0,0.0,0.0,0.0,0.0,0.0,0.0,0.0,0.0,0.0,0.0,0.0,0.0,0.0,0.0,0.0,0.0,0.0,0.0,0.0,0.0,0.0,0.0,0.0,0.0,0.0,0.0,0.0,0.0,0.0,0.0,0.0,0.0,0.0,0.0,0.0,0.0,0.0,0.0,0.0,0.0,0.0,0.0,0.0,0.0,0.0,0.0,0.0,0.0,0.0,0.0,0.0,0.0,0.0,0.0,0.0,0.0,0.0,0.0,0.0,0.0,0.0,0.0,0.0,0.0,0.0,0.0,0.0,0.0,0.0,0.0,0.0,0.0,0.0,0.0,0.0,0.0,0.0,0.0,0.0,0.0,0.0,0.0,0.0,0.0,0.0,0.0,0.0,0.0,0.0,0.0,0.0,0.0,0.0,0.0,0.0,0.0,0.0,0.0,0.0,0.0,0.0,0.0,0.0,0.0,0.0,0.0,0.0,0.0,0.0,0.0,0.0,0.0,0.0,0.0,0.0,0.0,0.0,0.0,0.0,0.0,0.0,0.0,0.0,0.0,0.0,0.0,0.0,0.0,0.0,0.0,0.0,0.0,0.0,0.0,0.0,0.0,0.0,0.0,0.0,0.0,0.0,0.0,0.0,0.0,0.0,0.0,0.0,0.0,0.0,0.0,0.0,0.0,0.0,0.0,0.0,0.0,0.0,0.0,0.0,0.0,0.0,0.0,0.0,0.0,0.0,0.0,0.0,0.0,0.0,0.0,0.0,0.0,0.0,0.0,0.0,0.0,0.0,0.0,0.0,0.0,0.0,0.0,0.0,0.0,0.0,0.0,0.0,0.0,0.0,0.0,0.0,0.0,0.0,0.0,0.0,0.0,0.0,0.0,0.0,0.0,0.0,0.0,0.0,0.0,0.0,0.0,0.0,0.0,0.0,0.0,0.0,0.0,0.0,0.0,0.0,0.0,0.0,3.5759,0.0,0.0,0.0,0.0,0.0,0.0,0.0,0.0,0.0,0.0,0.0,0.0,0.0,0.0,0.0,0.0,0.0,0.0,0.0,0.0,0.0,0.0,0.0,0.0,0.0,0.0,0.0,0.0,0.0,0.0,0.0,0.0,0.0,0.0,0.0,0.0,0.0,0.0,0.0,3.5519,3.5818,3.6417,3.6746,3.6387,3.5519,0.0,0.0,0.0,0.0,0.0,0.0,0.0,0.0,0.0,0.0,0.0,0.0,0.0,0.0,0.0,0.0,0.0,0.0,0.0,0.0,0.0,0.0,0.0,0.0,0.0,0.0,0.0,0.0,0.0,0.0,0.0,0.0,0.0,0.0,0.0,0.0,0.0,0.0,0.0,0.0,0.0,0.0,0.0,0.0,0.0,0.0,0.0,0.0,0.0,0.0,0.0,0.0,0.0,0.0,0.0,0.0,0.0,0.0,0.0,0.0,0.0,0.0,0.0,0.0,0.0,0.0,0.0,0.0,0.0,0.0,0.0,3.7973,0.0,0.0,0.0,0.0,0.0,0.0,0.0,0.0,0.0,0.0,0.0,0.0,0.0,0.0,0.0,0.0,0.0,0.0,0.0,0.0,0.0,0.0,0.0,0.0,3.5519,3.5519,3.5519,0.0,0.0,0.0,0.0,0.0,0.0,0.0,0.0,3.5519,3.5519,3.5519,3.6088,3.7135,3.8614,3.9409,3.899,3.7524,3.6477,0.0,0.0,0.0,0.0,0.0,0.0,0.0,0.0,0.0,0.0,0.0,0.0,0.0,0.0,0.0,0.0,0.0,0.0,0.0,0.0,0.0,0.0,0.0,0.0,0.0,0.0,0.0,0.0,0.0,0.0,0.0,0.0,0.0,0.0,0.0,0.0,0.0,0.0,0.0,0.0,0.0,0.0,0.0,0.0,0.0,0.0,0.0,0.0,0.0,0.0,0.0,0.0,0.0,0.0,0.0,0.0,0.0,0.0,0.0,0.0,0.0,0.0,0.0,4.5642,4.689,4.8177,4.8416,4.8805,4.9105,4.5415,4.2521,4.0378,0.0,0.0,0.0,0.0,0.0,0.0,0.0,0.0,0.0,0.0,0.0,0.0,0.0,0.0,0.0,0.0,0.0,0.0,0.0,0.0,0.0,0.0,3.5519,3.5519,3.5519,3.5519,3.5519,0.0,0.0,0.0,0.0,0.0,0.0,3.5519,3.5519,3.5519,3.5519,3.8362,4.0995,4.3399,4.4655,4.5433,4.5514,4.0337,3.9308,4.1272,0.0,0.0,0.0,0.0,0.0,0.0,0.0,0.0,0.0,0.0,0.0,0.0,0.0,0.0,0.0,0.0,0.0,0.0,0.0,0.0,0.0,0.0,0.0,0.0,0.0,0.0,0.0,0.0,0.0,0.0,0.0,0.0,0.0,0.0,0.0,0.0,0.0,0.0,0.0,0.0,0.0,3.7704,3.7225,0.0,0.0,0.0,0.0,0.0,0.0,0.0,0.0,0.0,0.0,0.0,0.0,0.0,4.5095,4.6852,4.9374,5.0189,4.9329,5.2336,5.2995,5.1588,5.2755,5.3354,5.3414,5.3384,0.0,4.4347,4.2092,0.0,0.0,0.0,0.0,0.0,0.0,0.0,0.0,0.0,0.0,0.0,0.0,0.0,0.0,0.0,0.0,0.0,0.0,0.0,0.0,0.0,3.6477,3.6985,3.658,3.896,3.9331,3.6746,0.0,0.0,0.0,0.0,3.5519,3.5519,3.5519,3.6596,3.8829,4.2102,4.4885,4.7151,4.8065,4.8843,4.9381,4.677,4.4616,4.281,4.0325,0.0,0.0,0.0,0.0,0.0,0.0,0.0,0.0,0.0,0.0,0.0,0.0,0.0,0.0,0.0,0.0,0.0,0.0,0.0,0.0,0.0,0.0,0.0,0.0,0.0,0.0,0.0,0.0,0.0,0.0,0.0,0.0,0.0,0.0,0.0,0.0,0.0,0.0,0.0,3.8601,3.9409,3.7597,3.899,3.899,0.0,0.0,0.0,0.0,0.0,0.0,0.0,0.0,0.0,4.6642,4.8678,5.0175,5.1043,5.3653,5.5029,5.5214,5.7064,5.8082,5.8348,5.9078,5.9639,5.9997,6.0126,5.7851,5.3688,4.8143,4.4427,4.2062,0.0,0.0,0.0,0.0,0.0,4.2864,0.0,0.0,0.0,0.0,0.0,0.0,0.0,0.0,0.0,0.0,0.0,0.0,3.6178,3.7973,3.917,3.917,4.2192,4.2651,3.9379,3.9918,0.0,0.0,3.5759,3.5519,3.5519,3.6477,3.8931,4.293,4.6381,4.9164,5.1312,5.2276,5.3,5.3473,5.3299,5.0421,4.5514,4.3299,4.1145,3.9002,0.0,0.0,0.0,0.0,0.0,0.0,0.0,0.0,0.0,0.0,0.0,0.0,0.0,0.0,0.0,0.0,0.0,0.0,0.0,0.0,0.0,0.0,0.0,0.0,0.0,0.0,0.0,0.0,0.0,0.0,0.0,0.0,0.0,0.0,0.0,0.0,0.0,4.0487,4.1343,3.8512,4.1134,4.1403,0.0,0.0,0.0,0.0,0.0,0.0,4.5433,4.7467,4.9689,5.209,5.4506,5.6008,5.6595,5.8614,6.0201,6.1273,6.1933,6.301,6.4389,6.4742,6.498,6.513,6.4877,6.3715,6.147,5.4243,4.977,4.7205,4.4902,4.4051,4.4253,4.5513,4.6956,4.8535,0.0,0.0,0.0,0.0,0.0,0.0,0.0,0.0,0.0,0.0,0.0,3.6207,3.805,4.0056,4.1972,4.3788,4.3629,4.3599,4.3938,3.996,3.7793,3.823,3.6477,3.5519,3.5519,3.917,4.305,4.701,5.093,5.4186,5.6735,5.868,5.9608,5.9608,5.8979,5.6107,5.1468,4.701,4.4676,4.3549,3.914,0.0,0.0,0.0,0.0,0.0,0.0,0.0,0.0,0.0,0.0,0.0,0.0,0.0,0.0,0.0,0.0,0.0,0.0,0.0,0.0,0.0,0.0,0.0,0.0,0.0,0.0,0.0,0.0,0.0,0.0,0.0,0.0,0.0,0.0,0.0,0.0,0.0,0.0,4.0636,4.4796,0.0,0.0,0.0,0.0,4.4796,4.6711,4.8985,5.1618,5.3653,5.638,5.9915,6.1719,6.3642,6.5799,6.6252,6.6702,6.7095,6.7758,6.7971,6.7788,6.8425,6.803,6.6877,6.6876,6.6085,6.4384,5.8941,5.5329,5.2991,5.1015,5.0393,5.0681,5.0927,5.1893,5.3083,0.0,0.0,0.0,0.0,0.0,0.0,0.0,0.0,0.0,3.5011,3.6836,3.8781,4.0745,4.4247,4.7091,4.8603,5.0122,4.9823,4.704,4.4107,4.1833,4.0385,3.8003,3.7943,4.0516,4.3599,4.7339,5.1738,5.485,5.7513,5.9697,6.0416,6.0745,6.0745,6.0954,5.9159,5.5722,5.1528,4.8386,4.5873,4.1654,3.8931,0.0,0.0,0.0,0.0,0.0,0.0,0.0,0.0,0.0,0.0,0.0,0.0,0.0,0.0,0.0,0.0,0.0,0.0,0.0,0.0,0.0,0.0,0.0,0.0,0.0,0.0,0.0,0.0,0.0,0.0,0.0,0.0,0.0,0.0,0.0,0.0,0.0,4.6809,5.0661,0.0,4.6809,4.7616,4.9044,5.0592,5.275,5.522,5.8095,6.0316,6.2593,6.4954,6.6884,6.815,6.8728,6.9302,6.9423,6.9122,7.0156,7.0544,7.0476,7.1719,7.2021,7.1576,7.1805,7.1092,6.96,6.7737,6.4001,5.9371,5.7764,5.7183,5.7358,5.7983,5.9219,6.0522,0.0,0.0,0.0,0.0,0.0,0.0,0.0,0.0,3.4248,3.534,3.8182,4.0995,4.3469,4.8049,5.1648,5.3389,5.4341,5.3563,5.0481,4.6385,4.3239,4.1463,3.9709,4.0606,4.4616,4.7938,5.1558,5.5538,5.8381,6.0356,6.1463,6.1882,6.1972,6.1792,6.2241,6.1463,5.9608,5.6526,5.2516,4.7945,4.4227,4.2043,4.0576,0.0,0.0,0.0,0.0,0.0,0.0,0.0,0.0,0.0,0.0,0.0,0.0,0.0,0.0,0.0,0.0,0.0,0.0,0.0,0.0,0.0,0.0,0.0,0.0,0.0,0.0,0.0,0.0,0.0,0.0,0.0,0.0,0.0,0.0,0.0,5.1843,5.203,5.5986,5.7088,5.2947,5.4176,5.5872,5.743,5.9791,6.221,6.4643,6.6613,6.8455,7.0128,7.0945,7.1494,7.1814,7.1906,7.1783,7.1476,7.2674,7.3317,7.3465,7.4718,7.5196,7.4997,7.5224,7.4496,7.316,7.3559,7.0896,6.6426,6.476,6.4183,6.4309,6.4651,6.5448,6.6353,0.0,0.0,0.0,0.0,0.0,0.0,0.0,3.4039,3.4727,3.5459,3.9038,4.2761,4.6091,5.1176,5.5423,5.8025,5.5837,5.4256,5.4221,4.632,4.1584,4.1463,4.1553,4.3499,4.7519,5.2037,5.5602,5.8264,6.1523,6.2808,6.2211,6.3438,6.3707,6.3168,6.3168,6.3168,6.3048,6.1762,5.7068,5.0249,4.689,4.5843,4.5762,0.0,0.0,0.0,0.0,0.0,0.0,0.0,0.0,0.0,0.0,0.0,0.0,0.0,0.0,0.0,0.0,0.0,0.0,0.0,0.0,0.0,0.0,0.0,0.0,0.0,0.0,0.0,0.0,0.0,0.0,0.0,0.0,0.0,4.7675,5.3013,5.6622,5.6189,6.0666,6.2193,5.8014,6.1118,6.3921,6.5228,6.7785,6.9823,7.1038,7.2376,7.3842,7.536,7.3968,7.3937,7.5482,7.4489,7.4116,7.4447,7.565,7.6395,7.6742,7.7447,7.7406,7.6813,7.6813,7.6034,7.4849,7.5944,7.5474,7.3865,7.1768,7.1135,7.1289,7.0567,7.0285,7.015,0.0,0.0,0.0,0.0,0.0,0.0,0.0,3.3664,3.4532,3.6626,4.1175,4.5663,4.9441,5.5029,5.9338,6.1523,5.8384,5.5692,5.4286,4.6655,4.237,4.2741,4.5095,4.8895,5.4281,5.6137,5.8773,6.2391,6.3288,6.3917,6.4187,6.4545,6.4783,6.4809,6.4574,6.4333,6.4056,6.3464,6.1253,5.7636,5.2426,4.8985,4.6629,0.0,0.0,0.0,0.0,0.0,0.0,0.0,0.0,0.0,0.0,0.0,0.0,0.0,0.0,0.0,0.0,0.0,0.0,0.0,0.0,0.0,0.0,0.0,0.0,0.0,0.0,0.0,0.0,0.0,0.0,0.0,5.034,5.4114,5.4189,5.7884,6.1777,6.5025,6.7515,6.8486,6.733,6.8637,6.9824,7.0435,7.1834,7.2928,7.3518,7.4987,7.5901,7.6145,7.7075,7.768,7.7879,7.7566,7.7441,7.759,7.8243,7.8623,7.8705,7.9275,7.941,7.9236,7.9236,7.87,7.7889,7.8203,7.7454,7.5983,7.4796,7.4087,7.3589,7.2868,7.1921,7.0906,0.0,0.0,0.0,0.0,0.0,0.0,0.0,3.3739,3.4951,3.7866,4.3329,4.8379,5.2043,5.7782,6.1491,6.182,5.8441,5.5055,5.2012,4.6584,4.3896,4.481,4.9028,5.3488,5.8053,5.9858,6.1993,6.4425,6.496,6.538,6.5622,6.6042,6.6462,6.6733,6.6703,6.6492,6.616,6.6101,6.5137,6.3208,5.9038,5.5455,5.2247,4.8454,4.71,4.6852,4.4407,4.4047,4.4287,4.1414,0.0,0.0,0.0,0.0,0.0,0.0,0.0,0.0,0.0,0.0,0.0,0.0,0.0,0.0,0.0,0.0,0.0,0.0,0.0,0.0,0.0,0.0,0.0,0.0,5.6696,6.1335,6.3493,6.483,6.6898,7.0525,7.1835,7.2728,7.3386,7.4344,7.5091,7.5521,7.6682,7.7277,7.7152,7.8026,7.8671,7.9037,7.9341,7.9682,8.001,7.9715,7.9552,7.9552,8.0351,8.0722,8.0722,8.1008,8.1122,0.0,8.0784,8.0242,7.9566,7.9566,7.8517,0.0,0.0,0.0,0.0,0.0,7.3206,7.2124,0.0,0.0,0.0,0.0,0.0,0.0,0.0,3.4009,3.5595,3.8943,4.5115,5.0354,5.3414,5.9069,6.197,6.0264,5.6885,5.3007,4.8645,4.6524,4.6204,4.784,5.3252,5.7527,6.0307,6.3413,6.5198,6.5563,6.6822,6.7304,6.7035,6.794,6.8577,6.8968,6.9214,6.9245,6.9183,6.9428,6.8908,6.7743,6.6116,6.3354,5.9722,5.4845,5.3952,5.4845,5.1163,4.8468,4.6381,4.4745,0.0,0.0,0.0,0.0,0.0,0.0,0.0,0.0,0.0,0.0,0.0,0.0,0.0,0.0,0.0,0.0,0.0,0.0,0.0,0.0,0.0,0.0,0.0,0.0,6.2802,6.7814,7.3505,7.2673,7.2182,7.4116,7.4853,7.5863,7.7453,7.8746,7.9652,8.0121,8.1377,8.18,8.112,0.0,0.0,0.0,0.0,8.1037,8.214,8.1442,8.1049,8.1076,8.2037,8.2543,8.2543,8.2374,8.2272,8.2238,8.1494,8.0784,8.0175,8.0107,7.8822,7.6893,7.6792,7.6318,7.5608,7.4864,7.4187,0.0,0.0,0.0,0.0,0.0,0.0,0.0,0.0,3.3604,3.507,3.8883,4.4706,4.9134,5.0787,5.629,5.9937,6.0114,5.5598,5.1312,4.7772,4.8006,4.9888,5.3464,5.7747,6.1637,6.5105,6.7123,6.8425,6.9031,6.9821,7.0186,7.0124,7.0338,7.0888,7.1715,7.1496,7.209,7.3249,7.3037,7.3073,7.315,7.1802,6.7295,6.1042,5.8667,5.7034,5.5773,5.3922,5.3922,5.4281,5.0817,4.968,4.9134,4.5822,4.2851,0.0,0.0,0.0,0.0,0.0,0.0,0.0,0.0,0.0,0.0,0.0,0.0,0.0,0.0,0.0,0.0,0.0,0.0,0.0,6.3394,6.8251,7.3138,7.8062,7.8408,7.8502,7.9508,7.9728,8.0365,8.1764,8.2174,8.2363,8.2444,8.2733,8.28,8.2671,8.3628,8.4304,8.4535,8.4606,8.4768,8.502,8.4218,8.382,8.382,0.0,0.0,8.3253,8.2035,8.1494,8.146,8.0716,8.031,8.0141,7.9566,7.8382,7.6826,7.6183,7.5845,7.5608,7.4864,7.4525,7.4221,0.0,0.0,0.0,0.0,0.0,0.0,0.0,3.3484,3.4833,3.8575,4.3569,4.7203,4.8257,5.284,5.5125,5.347,4.9869,4.7688,4.7645,5.0967,5.487,5.9152,6.3158,6.629,6.8455,6.9306,7.0159,7.0889,7.1961,7.3036,7.4141,7.4698,7.5512,7.6519,7.6488,7.6854,7.7457,7.7455,7.7617,7.7787,7.6646,7.3939,7.011,6.6102,6.3322,6.1511,6.0847,5.9623,5.799,5.5676,5.3925,5.2247,4.9591,4.6741,4.4018,0.0,0.0,0.0,0.0,0.0,0.0,0.0,0.0,0.0,0.0,0.0,0.0,0.0,0.0,5.1667,5.5193,0.0,6.6425,7.0629,7.482,7.8586,8.1627,8.2042,8.2042,8.2105,8.2105,8.2633,8.3935,8.4382,8.4847,8.5496,8.5886,8.5952,8.5559,8.6169,8.6314,8.5979,8.62,8.6163,8.5817,8.5384,8.5012,8.4614,8.4234,8.4065,8.4031,8.2915,8.2374,8.234,8.1224,8.075,8.0648,7.9566,7.8247,7.686,7.6454,7.6048,7.5676,7.5303,7.4931,7.4458,0.0,0.0,0.0,0.0,0.0,0.0,0.0,3.3484,3.4685,3.8082,4.2166,4.5008,4.5614,4.8988,4.9689,4.5996,4.51,4.6021,4.8979,5.468,5.9927,6.4382,6.8343,7.0677,7.1046,7.175,7.2355,7.2768,7.4446,7.619,7.8006,7.8881,7.9889,8.1008,8.1117,8.1239,8.1398,8.1665,8.19,8.2043,8.1014,8.0548,7.996,7.443,7.0677,6.8264,6.7632,6.4242,5.9995,5.9603,5.7062,5.3969,5.3014,5.1003,4.8563,4.629,4.5312,0.0,0.0,0.0,0.0,0.0,0.0,0.0,0.0,4.6292,4.9136,5.1131,5.5076,5.9396,6.3467,6.8607,7.3525,7.756,8.0642,8.3082,8.4665,8.4921,8.4752,8.4337,8.4159,8.4588,8.589,8.6667,8.7539,8.8576,8.9173,8.9207,8.8463,8.8429,8.8091,8.7347,8.7211,8.6839,8.623,8.5953,8.5452,8.4817,8.4681,8.4614,8.458,8.3828,8.349,8.3422,8.1934,8.1215,8.0953,7.9667,7.8314,7.7096,7.6961,7.6487,7.5912,7.5743,7.5337,7.4728,0.0,0.0,0.0,0.0,0.0,0.0,0.0,0.0,3.4535,3.7432,4.0757,4.2801,4.2459,4.489,4.5435,4.269,4.7269,5.1172,5.3179,5.8853,6.3997,6.8211,7.2164,7.3933,7.3188,7.6275,7.7334,7.6322,7.8859,8.0254,8.0504,8.0599,8.1439,8.277,8.2122,8.2785,8.4499,8.4561,8.5226,8.6135,8.4898,8.4366,8.4122,8.1598,7.7562,7.2818,6.9823,6.5723,6.181,6.2326,6.0266,5.7537,5.7992,5.6743,5.4485,5.1273,4.825,4.5474,4.3328,4.2488,4.2769,4.5033,4.5744,4.7364,0.0,5.5729,5.7889,5.995,6.5015,6.9233,6.9863,7.4401,7.9043,8.2029,8.3321,8.4852,8.7389,8.7768,8.7984,8.8389,8.7958,8.815,8.9503,9.0293,9.0755,9.0932,9.1,9.0729,8.9985,8.9951,8.9613,8.8897,8.8226,8.7854,8.7753,8.6433,8.5723,8.5655,8.4945,8.4614,8.458,8.3828,8.349,8.3422,8.1934,8.0919,8.0242,7.9431,7.8619,7.7807,7.7164,7.6826,7.669,7.5946,7.5642,7.5473,0.0,0.0,0.0,0.0,0.0,0.0,0.0,0.0,0.0,0.0,3.8482,3.9453,3.8669,3.9551,3.9956,3.9341,4.4941,5.0347,5.4645,6.1364,6.7703,7.3349,7.5577,7.7011,7.7798,7.8874,7.9707,8.0337,8.1934,8.3264,8.4385,8.4845,8.5577,8.6576,8.6243,8.6569,8.7389,8.7389,8.7705,8.8131,8.7621,8.7389,8.7012,8.3685,7.9684,7.5241,7.0542,6.5946,0.0,6.0215,5.8741,5.7666,5.8222,5.6855,5.4622,5.2378,4.9677,4.7211,4.6516,4.6691,4.7608,4.9979,5.2618,5.5485,5.8444,6.2253,6.5544,6.6815,7.1977,7.6581,7.7832,8.1525,8.4942,8.6497,8.766,8.8716,8.9823,8.9302,8.8534,8.79,8.798,8.864,9.0064,9.0493,9.1034,9.188,9.1541,9.1169,9.0865,9.0425,8.985,8.9134,8.8801,8.8226,8.738,8.7177,8.6399,8.5114,8.5249,8.5046,8.458,8.4275,8.3693,8.2847,8.2205,8.1021,7.9566,7.9701,7.9058,7.7967,7.7638,7.6995,7.6149,7.5811,7.5439,7.5033,0.0,0.0,0.0,0.0,0.0,0.0,0.0,0.0,0.0,0.0,3.6758,3.7085,3.6569,3.6368,3.6662,3.7562,4.2963,4.88,5.4692,6.2664,6.9904,7.6097,7.841,8.0067,8.1182,8.1625,8.2329,8.3404,8.4536,8.5929,8.7516,8.7854,8.8497,8.9376,8.9201,8.9235,8.941,8.9613,8.9607,8.9376,8.9376,8.8903,8.7737,8.3619,7.9309,7.491,6.9716,6.4513,5.9681,5.715,5.6069,5.5891,5.6731,5.5837,5.421,5.3026,5.0549,4.8385,4.9441,5.0583,5.224,5.5462,5.9618,6.33,6.4927,6.9368,7.3391,7.4145,7.8856,8.318,8.4113,8.6945,8.9346,9.005,9.0959,9.1609,9.1609,9.0324,8.8632,8.6535,8.6569,8.7245,8.8531,8.9613,9.0831,9.229,9.1913,9.1609,9.1609,9.0899,9.0154,8.941,8.9235,8.8564,8.7516,8.7617,8.6873,8.5222,8.5384,8.5182,8.458,8.4377,8.3727,8.2678,8.2272,8.119,7.9735,8.0073,7.9566,7.8576,7.817,7.7435,7.6555,7.5709,7.5067,7.4637,0.0,0.0,0.0,0.0,0.0,0.0,0.0,0.0,0.0,0.0,0.0,0.0,0.0,3.6846,3.6967,3.8165,4.2775,4.7922,5.3304,6.2509,6.9907,7.4762,8.0573,8.3173,8.199,8.5082,8.6103,8.4929,8.6931,8.8266,8.9032,8.8328,8.8767,9.0154,8.941,8.9478,9.0222,9.0932,9.0831,9.0188,9.0188,8.8463,8.5486,8.1705,7.6608,7.0972,6.6923,6.0981,5.4875,5.4015,5.2893,5.2212,5.4173,5.4782,5.4648,5.4033,5.0976,4.8453,5.1485,5.2847,5.4939,6.1389,6.5736,6.9507,7.3557,7.819,8.1872,8.2645,8.6604,8.9293,8.7456,8.9353,9.145,9.2194,9.2329,9.2358,9.2358,9.1073,8.8801,8.5121,8.4065,8.393,8.4681,8.8063,9.0831,9.229,9.2358,9.2358,9.2358,9.1677,9.0932,9.0188,8.9478,8.91,8.9032,8.7651,8.6907,8.6839,8.5324,8.4614,8.458,8.3862,8.3524,8.3389,8.1934,8.1317,8.1181,8.0479,8.0175,8.0006,7.8551,7.8416,7.8653,7.5686,7.4603,7.4705,0.0,0.0,0.0,0.0,0.0,0.0,0.0,0.0,0.0,0.0,0.0,0.0,0.0,0.0,0.0,0.0,4.2154,4.6495,5.1914,6.0202,6.7218,7.2469,7.8941,8.2787,8.371,8.6291,8.766,8.7732,8.8397,8.9106,8.9816,8.9072,8.9512,9.0899,9.0154,9.0256,9.0899,9.0662,9.0425,8.9985,8.755,8.623,8.5141,7.8855,7.28,6.6829,0.0,5.5831,5.1398,4.9014,4.8356,4.8842,5.0733,5.1132,5.0802,5.0071,5.1029,5.296,5.5927,5.9322,6.3577,6.9923,7.419,7.7649,8.0893,8.4649,8.7141,8.6092,8.7018,8.7648,8.6477,8.7031,8.8192,8.9918,9.144,9.259,9.3131,9.188,8.9004,8.3734,8.3768,8.3362,8.1164,8.4309,0.0,9.0729,9.0938,9.1169,9.1643,9.0966,9.0459,9.0222,8.9478,8.8897,8.8361,8.8361,8.7617,8.6163,8.5087,8.4614,8.458,8.3828,8.3219,8.2712,8.1731,8.1021,8.0547,8.031,8.0209,8.0107,7.9126,7.8585,7.8247,7.7232,7.6217,7.5303,0.0,0.0,0.0,0.0,0.0,0.0,0.0,0.0,0.0,0.0,0.0,0.0,0.0,0.0,0.0,0.0,0.0,4.4707,4.9396,5.6287,6.246,6.7522,7.3002,7.6768,7.8594,7.9803,8.119,8.2746,8.3279,8.4573,8.6636,8.6399,8.7076,8.8497,8.8023,8.8226,8.8869,8.8401,8.7448,8.596,8.278,8.031,7.7933,7.1481,6.5662,0.0,5.4532,5.0486,4.7442,4.5432,4.5339,4.6342,4.7752,4.8761,4.9443,4.977,5.2862,5.7276,6.2356,6.6665,7.1282,7.7713,8.1795,8.4718,8.6483,8.8803,8.9955,8.7568,8.6147,8.4911,8.3625,8.2746,8.3253,8.6535,8.8091,8.9748,9.2387,9.0527,8.7482,8.3633,8.3092,8.2179,8.0107,8.2246,8.5256,8.8767,8.9748,9.0527,9.1271,9.1102,9.1,9.1,9.0019,8.9275,8.8801,8.8463,8.7313,8.5351,8.485,8.4614,8.458,8.3828,8.3253,8.2746,8.2002,8.1257,8.0581,8.0581,8.0445,8.0141,7.9397,7.8957,7.8686,7.7874,7.7299,7.6724,0.0,0.0,0.0,0.0,0.0,0.0,0.0,0.0,0.0,0.0,0.0,0.0,0.0,0.0,0.0,0.0,0.0,0.0,4.5864,5.121,5.6041,6.0122,6.365,6.6203,6.7624,6.7117,6.8212,7.112,7.2496,7.5371,7.9634,8.031,8.1393,8.2881,8.2847,8.3253,8.3903,8.3836,8.1773,7.8382,7.598,7.121,6.5087,6.0554,5.6105,5.1826,4.8206,4.5432,4.3457,4.3457,4.4079,4.5007,4.5805,4.8037,5.0884,5.3365,5.6768,6.1606,7.0456,7.4613,7.8015,8.4581,8.8328,9.0357,9.0324,9.0729,9.0256,8.7211,8.4065,8.119,7.8831,7.6826,7.7232,8.2374,8.2983,8.4843,9.0662,8.7786,8.4986,8.4783,8.2306,8.0818,8.1418,8.2205,8.3896,8.6738,0.0,9.0493,9.1305,9.2049,9.2358,9.2324,9.0966,9.0188,9.0154,8.7989,8.6196,8.4715,8.4647,8.4614,8.458,8.3828,8.349,8.3456,8.2678,8.1934,8.1317,8.1283,8.0818,8.0141,7.9431,7.96,7.9938,7.7841,7.7942,7.8788,0.0,0.0,0.0,0.0,0.0,0.0,0.0,0.0,0.0,0.0,0.0,0.0,0.0,0.0,0.0,0.0,0.0,0.0,4.3216,4.7765,5.1379,5.3546,5.9812,6.3666,6.4613,6.6047,6.7455,6.8774,6.8605,6.9688,7.1921,7.1515,7.2428,7.439,7.3849,7.3984,7.4603,7.3544,7.2529,7.1312,6.7354,6.5087,6.3531,5.8472,5.4803,5.2045,4.939,4.665,4.4296,4.4296,4.6259,4.8932,5.0286,5.2334,5.5174,5.9654,6.4772,7.0445,7.7183,8.2683,8.7463,9.1416,9.259,9.259,9.1952,9.029,8.7516,8.2881,7.8213,7.3747,6.9823,7.1379,7.4593,7.872,8.437,8.9545,9.33,9.2353,9.0256,8.7482,8.6467,8.5418,8.393,8.5452,8.6907,0.0,8.8734,9.0188,9.2049,9.229,9.2121,9.1609,9.0696,8.9951,8.9376,8.7719,8.6677,8.6305,8.5155,8.4614,8.458,8.3828,8.349,8.3422,8.2137,8.146,8.1283,8.0716,8.0378,8.0175,8.0006,8.004,8.0141,7.9566,7.9261,7.8864,0.0,0.0,0.0,0.0,0.0,0.0,0.0,0.0,0.0,0.0,0.0,0.0,0.0,0.0,0.0,0.0,0.0,0.0,0.0,4.4012,4.6244,4.7718,5.1488,5.4228,5.5665,5.5919,5.7374,6.008,5.9674,6.0926,6.37,6.3903,6.4681,6.5878,6.5797,6.6203,6.6825,6.5662,6.441,0.0,0.0,5.7442,5.6274,5.2689,5.0744,4.9778,4.8477,4.824,4.8661,4.9643,5.1116,5.301,5.5513,5.849,6.2192,6.8132,7.3138,7.8179,8.4471,8.9342,9.3064,9.4755,9.462,9.3199,8.9754,8.6704,8.2611,7.5743,7.0703,6.644,6.2942,6.5425,6.9654,7.4695,8.1596,8.8023,9.2996,9.2793,9.1711,9.0594,8.985,8.8937,8.7685,8.9004,9.0087,9.0425,9.0493,9.1102,9.2324,9.3034,9.3233,9.2827,9.1744,9.0493,8.9134,8.7955,8.7076,8.6399,8.5554,8.4945,8.458,8.4174,8.3998,8.3964,0.0,8.2543,8.2205,8.146,8.0987,8.0648,8.031,8.0209,8.0209,8.0209,7.9938,7.9363,0.0,0.0,0.0,0.0,0.0,0.0,0.0,0.0,0.0,0.0,0.0,0.0,0.0,0.0,0.0,0.0,0.0,0.0,0.0,0.0,4.1677,4.3051,4.2591,4.3301,4.55,4.3606,4.4871,4.9541,4.944,5.142,5.5344,5.6664,5.7288,5.739,5.8051,5.8727,5.9336,5.8524,5.6731,5.4211,5.2232,4.9898,4.7481,0.0,4.6244,4.68,4.68,4.9357,5.3247,5.6461,5.7577,5.8303,6.2178,6.6406,7.1244,7.7705,8.1629,8.5249,9.1445,9.4823,9.6514,9.6413,9.5398,9.2658,8.5966,8.1562,7.6386,6.759,6.2922,5.9708,5.7408,5.9945,6.4634,7.1447,7.7705,8.437,9.1947,9.1744,9.1677,9.4045,9.2793,9.1812,9.2015,9.2522,9.3165,9.3842,9.3334,9.2899,9.2696,9.3947,9.462,9.4417,9.3001,9.1305,8.9269,8.8497,8.7448,8.6088,8.5892,8.5418,8.4749,8.4647,8.4614,8.458,0.0,0.0,8.3422,8.2712,8.1968,8.1249,8.0581,8.0276,8.0209,8.0209,8.0209,8.0006,0.0,0.0,0.0,0.0,0.0,0.0,0.0,0.0,0.0,0.0,0.0,0.0,0.0,0.0,0.0,0.0,0.0,0.0,0.0,0.0,0.0,4.1529,4.2049,4.3078,4.4736,4.4398,4.4939,4.6447,4.5853,4.6259,4.7631,4.7902,4.8342,4.8917,4.9068,4.9187,4.9255,4.8511,4.7902,4.738,4.7022,4.6549,4.6128,4.6481,0.0,0.0,4.68,4.7699,5.0153,5.8592,6.4208,6.8436,7.2834,7.7232,8.1765,8.667,8.9782,9.2421,9.6041,9.8679,10.0301,9.9627,9.6078,9.1174,8.508,7.7604,6.9722,6.1955,5.7915,5.5074,5.279,5.7848,6.4803,7.2146,7.9397,8.6907,9.4992,9.4857,9.4992,9.78,9.577,9.4586,9.5834,9.5499,9.5263,9.5398,9.5838,9.5601,9.4383,9.4552,9.4146,9.2831,9.1947,9.1,9.0019,8.9275,8.8463,8.7583,8.6393,8.575,8.5554,8.4884,8.4614,8.458,8.3964,0.0,8.3422,8.2712,8.1968,8.1283,8.1181,8.0716,8.0209,8.0209,8.0209,8.0073,0.0,0.0,0.0,0.0,0.0,0.0,0.0,0.0,0.0,0.0,4.1401,4.0273,0.0,0.0,0.0,0.0,0.0,0.0,0.0,0.0,0.0,0.0,4.1339,4.2252,4.3382,4.3382,4.4147,4.5703,0.0,4.4384,4.5128,4.5128,4.5094,4.506,4.5872,4.6007,4.5684,4.6109,4.6041,4.5722,4.6109,4.6515,4.6872,0.0,0.0,0.0,4.7936,4.9679,5.279,5.822,6.6136,7.4525,7.9397,8.3964,8.8429,9.2928,9.5296,9.7089,10.01,10.169,10.1995,9.966,9.4552,8.7955,7.9634,7.1413,6.3328,5.5428,5.2672,5.1217,4.9747,5.5597,6.2313,6.7455,7.3916,8.1562,9.0932,9.1643,9.3165,9.8476,9.7834,9.7428,9.851,9.7597,9.7089,9.7495,9.7495,9.6819,9.5364,9.4924,9.4214,9.3064,9.2286,9.1711,9.1343,9.0222,8.9309,8.8531,8.7076,8.6366,8.6332,8.5121,8.4817,8.5182,8.4403,0.0,8.4031,8.3287,8.2746,8.2374,8.1621,8.1325,8.1257,8.0479,8.0445,8.0648,0.0,0.0,0.0,0.0,0.0,0.0,0.0,3.8472,3.9912,4.4949,4.5125,4.3901,4.1551,3.9212,0.0,0.0,0.0,0.0,0.0,0.0,0.0,0.0,0.0,0.0,4.2773,0.0,0.0,4.5466,4.4248,0.0,0.0,0.0,0.0,0.0,4.4925,4.5229,4.4905,4.609,4.6312,0.0,0.0,4.7394,0.0,0.0,0.0,0.0,0.0,5.1269,5.4684,5.7442,6.5358,7.4999,8.0513,8.6839,9.2928,9.6311,9.8375,10.01,10.2705,10.3382,10.2502,9.8713,9.2489,8.4606,7.4458,6.5899,5.7949,5.0322,4.8511,4.8274,4.8157,5.3298,5.8998,6.3294,6.8436,7.5676,8.6467,8.8395,9.1338,9.8476,9.9322,9.9627,10.0405,9.9254,9.8645,9.9051,9.8104,9.7022,9.5872,9.4958,9.4214,9.3634,9.2996,9.2561,9.2392,9.1242,9.029,8.9545,8.7922,8.7144,8.7076,8.5527,8.5114,8.552,8.508,0.0,0.0,8.3964,8.3625,8.3389,8.2205,8.2035,8.2272,8.1088,8.1021,8.1426,0.0,0.0,0.0,0.0,0.0,0.0,0.0,3.8884,4.1358,4.8006,4.7426,4.5823,4.4358,4.2851,0.0,0.0,0.0,0.0,0.0,0.0,0.0,0.0,0.0,0.0,0.0,0.0,0.0,4.4702,4.4567,0.0,0.0,0.0,0.0,0.0,0.0,4.5041,4.5602,4.5737,0.0,0.0,0.0,0.0,0.0,0.0,0.0,0.0,0.0,4.9255,5.0676,5.7577,6.2042,6.5878,7.2462,8.4099,9.533,9.5093,9.7935,10.1386,10.2299,10.2603,10.169,9.7935,9.0899,8.2517,7.3454,6.3511,5.4651,4.9138,4.694,4.6616,4.8545,5.1166,5.5768,6.416,6.8255,7.4525,8.6332,8.9715,9.3267,9.9358,10.0102,10.0405,10.1183,10.0506,9.9762,9.9153,9.7157,9.5939,9.5804,9.4451,9.3668,9.3601,9.3533,9.3131,9.2392,9.2257,9.1846,9.1068,8.8903,8.7888,8.7854,8.6366,8.5317,8.4749,8.5384,0.0,0.0,8.4512,8.4099,8.349,8.3355,8.2915,8.2408,8.2272,8.2238,8.2205,0.0,0.0,0.0,0.0,0.0,0.0,0.0,3.9213,4.1461,4.9665,4.9772,4.8696,4.7763,4.6056,4.2909,0.0,0.0,0.0,0.0,0.0,0.0,0.0,0.0,0.0,0.0,0.0,4.4615,4.4615,4.4615,0.0,0.0,0.0,0.0,0.0,0.0,4.5838,4.5805,4.7124,0.0,0.0,0.0,0.0,0.0,0.0,0.0,0.0,0.0,0.0,5.0033,5.257,5.668,6.0941,6.1839,7.1142,8.2983,8.9444,9.3876,9.7763,10.2502,10.3787,10.2806,9.8612,9.0357,8.0927,7.2022,6.1854,5.3044,4.824,4.6413,4.6109,4.7428,4.912,5.2282,5.8069,5.9641,6.4005,7.5067,7.8145,8.2983,9.2996,9.5398,9.7766,10.169,10.088,9.9866,9.9153,9.7461,9.6447,9.6447,9.462,9.3601,9.3601,9.3601,9.3436,9.3131,9.2629,9.2257,9.1947,9.0188,8.9309,8.9275,8.7347,8.6298,8.5933,8.5351,0.0,0.0,8.4614,8.4411,8.4133,8.3659,8.3592,8.3599,8.2746,8.2678,8.2949,0.0,0.0,0.0,0.0,0.0,0.0,3.939,3.9729,4.1992,4.9592,5.0509,5.0143,4.9435,4.6819,4.337,3.903,0.0,0.0,0.0,0.0,0.0,0.0,0.0,0.0,0.0,0.0,4.4615,4.4615,4.4804,4.4804,0.0,0.0,4.4804,4.4649,0.0,0.0,0.0,0.0,0.0,0.0,0.0,0.0,0.0,0.0,0.0,0.0,0.0,0.0,0.0,0.0,0.0,5.6308,5.4262,5.981,6.9417,8.108,8.8186,9.3668,9.9999,10.2671,10.2603,9.8138,8.9647,8.0006,7.0838,6.0858,5.2232,4.7733,4.621,4.594,4.665,4.8003,5.0168,5.3687,5.4566,5.822,6.803,7.1278,7.6589,8.7251,9.0357,9.3876,9.966,10.017,9.9967,9.9457,9.7834,9.6917,9.6917,9.4992,9.3909,9.3909,9.3706,9.3601,9.3601,9.303,9.2629,9.2358,9.0904,9.0087,8.9816,8.782,8.6771,8.6501,0.0,0.0,0.0,8.4614,8.4614,8.4546,8.4031,8.414,8.4478,8.343,8.3389,8.3727,0.0,0.0,0.0,0.0,0.0,0.0,0.0,4.0504,4.3495,4.749,4.8998,4.9435,4.8676,4.4449,4.1617,4.1573,0.0,0.0,0.0,0.0,0.0,0.0,0.0,0.0,0.0,0.0,0.0,4.4615,4.5331,4.5331,4.4615,4.5365,4.5297,4.4615,0.0,0.0,0.0,0.0,0.0,0.0,0.0,0.0,0.0,0.0,0.0,0.0,0.0,0.0,0.0,0.0,0.0,0.0,0.0,5.2875,5.7291,6.9947,8.1012,8.998,9.3774,9.8037,10.0402,9.5872,8.8531,7.987,7.0128,6.0452,5.2232,4.7733,4.621,4.594,4.665,4.8003,4.9999,5.301,5.5953,6.0742,6.9033,7.3341,7.7908,8.3937,8.6034,8.9038,9.4282,9.8039,10.0204,10.017,9.8138,0.0,9.6917,9.5499,9.4687,9.4687,9.3977,9.3601,9.3601,9.3601,9.3199,9.2358,9.0904,8.9816,8.9066,8.7583,8.6501,0.0,0.0,0.0,0.0,8.4614,8.4614,8.4614,8.458,8.458,8.4614,8.458,8.458,8.4478,0.0,0.0,0.0,0.0,0.0,0.0,0.0,3.7654,3.991,4.4107,4.5041,4.578,4.6966,4.3808,4.1586,4.1586,0.0,0.0,0.0,0.0,0.0,0.0,0.0,0.0,0.0,0.0,0.0,0.0,0.0,4.6058,4.539,4.6597,4.6534,4.5399,4.6413,4.6819,0.0,0.0,0.0,0.0,0.0,0.0,4.9018,0.0,0.0,0.0,0.0,0.0,0.0,0.0,0.0,0.0,0.0,0.0,0.0,5.9573,6.9113,7.872,8.349,8.7313,8.8869,8.4403,7.8247,7.1582,6.4918,5.7442,5.093,4.7496,4.5819,4.5345,4.6563,4.7192,4.9458,5.5531,5.7291,6.0065,6.6258,7.2056,7.7739,8.3219,9.1981,9.8206,9.9863,10.0608,10.0811,10.0204,9.9085,9.8172,9.7664,9.6244,9.5229,9.4721,9.3977,9.3601,9.3601,9.3601,9.347,9.3199,9.2184,9.1338,9.0527,8.9072,0.0,0.0,0.0,0.0,0.0,8.4614,8.4614,8.4614,8.4614,8.4614,8.4614,8.4614,8.4614,8.458,0.0,0.0,0.0,0.0,0.0,0.0,0.0,3.6219,3.8135,4.0824,4.157,4.2744,4.5083,4.1932,4.0201,4.1494,0.0,0.0,0.0,0.0,0.0,0.0,0.0,0.0,0.0,0.0,0.0,0.0,0.0,0.0,0.0,0.0,4.8342,4.6143,4.709,4.7091,0.0,0.0,0.0,0.0,0.0,0.0,4.9018,0.0,0.0,0.0,0.0,0.0,0.0,0.0,0.0,0.0,0.0,0.0,0.0,0.0,5.9776,6.732,7.483,7.9431,8.1325,7.7976,7.3071,6.7658,6.211,5.5834,5.0356,4.7394,4.5853,4.5379,4.6597,4.7259,4.9237,5.4177,5.6156,5.8795,6.3754,7.0488,7.7333,8.3998,9.3537,9.9559,9.9559,10.0405,10.0709,10.0204,9.9254,9.8375,9.7631,9.6447,9.5466,9.4721,9.3977,9.3601,9.3601,9.3601,9.333,9.2725,9.2218,9.144,9.0425,8.9207,0.0,0.0,0.0,0.0,0.0,8.4614,8.4614,8.4614,8.4614,8.4614,8.4614,8.4614,8.4614,8.4614,0.0,0.0,0.0,0.0,0.0,0.0,0.0,0.0,0.0,0.0,3.8705,4.0307,4.2805,3.914,3.7769,0.0,0.0,0.0,0.0,0.0,0.0,0.0,0.0,0.0,0.0,0.0,0.0,4.8391,4.9456,5.0259,5.0778,0.0,0.0,4.6969,4.7003,4.6592,0.0,0.0,0.0,0.0,0.0,0.0,0.0,0.0,0.0,0.0,0.0,0.0,0.0,0.0,0.0,0.0,0.0,0.0,0.0,0.0,0.0,0.0,0.0,7.3138,7.6115,7.4525,7.1007,6.6406,6.0757,5.5108,0.0,4.7394,4.6244,4.6041,4.6887,4.8071,4.9357,5.0624,5.3754,5.7593,6.2144,6.9541,7.7739,8.6636,9.2184,9.5195,9.5026,9.8209,10.0303,10.0204,9.8882,9.7732,9.6951,9.6176,9.5466,9.4721,9.3977,9.3601,9.3601,9.3567,9.2793,9.1372,9.1271,9.0493,8.914,8.8395,0.0,0.0,0.0,0.0,0.0,8.4614,8.4614,8.4614,8.464,8.464,8.464,8.4667,8.4633,8.4633,0.0,0.0,0.0,0.0,0.0,0.0,0.0,0.0,0.0,0.0,0.0,3.7789,3.7928,3.709,0.0,0.0,0.0,0.0,0.0,0.0,0.0,0.0,0.0,0.0,0.0,0.0,0.0,4.6296,4.8194,4.9485,5.0225,5.2149,0.0,0.0,0.0,0.0,0.0,0.0,0.0,0.0,0.0,0.0,0.0,0.0,0.0,0.0,4.9018,4.9018,0.0,0.0,0.0,0.0,0.0,0.0,0.0,0.0,5.0861,5.1978,5.575,0.0,6.1298,5.9235,5.7476,5.5716,0.0,5.1336,4.9018,4.7173,4.6665,4.709,4.9,4.868,5.0254,5.6697,5.849,6.0825,6.5899,7.6487,8.667,9.4485,9.851,9.9999,9.824,9.9897,10.0878,10.0204,9.9356,9.8273,9.6985,9.6176,9.5466,9.4721,9.3977,9.3601,9.3601,9.2996,9.2493,9.2121,9.1,9.029,8.9918,8.9173,0.0,0.0,0.0,0.0,8.4614,8.4614,8.4614,8.464,8.4879,8.4985,8.5011,8.5194,8.5273,8.5273,0.0,0.0,0.0,0.0,0.0,0.0,0.0,0.0,0.0,0.0,0.0,0.0,0.0,0.0,0.0,0.0,0.0,0.0,0.0,0.0,0.0,0.0,0.0,0.0,0.0,0.0,0.0,0.0,0.0,5.0051,0.0,0.0,0.0,0.0,0.0,0.0,0.0,0.0,0.0,0.0,4.8466,0.0,0.0,0.0,0.0,0.0,4.9018,4.9018,0.0,5.0168,5.0304,5.0119,0.0,0.0,0.0,0.0,4.9864,4.9763,5.0574,5.3247,5.5581,5.4735,5.3923,5.3145,5.2418,5.0574,4.868,4.753,4.7022,4.7376,4.9255,4.8951,5.0423,5.6562,5.8727,6.299,7.2699,8.146,8.9782,9.7597,10.0204,10.1185,10.0709,10.1081,10.1113,10.0303,9.9221,9.8104,9.6985,9.6176,9.5466,9.4721,9.3977,9.3601,9.3601,9.2793,9.2223,9.188,9.0763,9.0019,8.9681,8.8903,8.8038,0.0,0.0,0.0,8.5011,8.5011,8.5011,8.5037,8.5194,8.5273,8.5307,8.5463,8.5514,8.5514,0.0,0.0,0.0,0.0,0.0,0.0,0.0,0.0,0.0,0.0,0.0,0.0,0.0,0.0,0.0,0.0,0.0,0.0,0.0,0.0,0.0,0.0,0.0,0.0,0.0,0.0,0.0,0.0,0.0,0.0,0.0,0.0,5.3494,0.0,0.0,0.0,0.0,0.0,0.0,0.0,4.8177,0.0,0.0,0.0,0.0,0.0,0.0,0.0,0.0,5.115,5.1454,5.1235,5.2435,0.0,0.0,0.0,0.0,0.0,4.9695,5.2334,5.4871,5.4718,5.4397,5.3856,5.301,5.0845,4.88,4.8056,4.7597,4.78,4.939,4.9864,5.1319,5.531,5.8998,6.6373,8.0648,8.5587,9.0628,9.8341,10.0069,10.1115,10.1893,10.169,10.1115,10.0069,9.8781,9.7631,9.6781,9.6041,9.5296,9.4552,9.3808,9.3402,9.3402,9.2624,9.1913,9.1271,9.0324,8.9574,8.8987,8.8242,8.7634,0.0,0.0,0.0,8.5514,8.5514,8.5514,8.5514,8.5566,8.5566,8.5592,8.5618,8.5609,8.5609,0.0,0.0,0.0,0.0,0.0,0.0,0.0,0.0,0.0,0.0,0.0,0.0,0.0,0.0,0.0,0.0,0.0,0.0,0.0,0.0,0.0,0.0,0.0,3.9672,4.2219,4.1828,0.0,0.0,0.0,0.0,5.4198,5.6474,5.4845,4.9981,0.0,0.0,0.0,0.0,0.0,0.0,4.8112,0.0,0.0,0.0,0.0,0.0,0.0,0.0,0.0,4.939,4.9864,5.0202,4.9796,0.0,0.0,0.0,0.0,0.0,5.2875,5.5074,5.5412,5.1116,5.0863,5.137,4.9999,4.9323,4.88,4.8056,4.8815,5.0236,5.2401,5.3839,5.6308,6.1313,6.7806,7.6115,8.7279,9.0425,9.3643,9.939,10.1825,10.2198,9.9829,10.1284,10.1487,9.9424,9.8476,9.7428,9.6041,9.5263,9.4518,9.3774,9.2996,9.2561,9.2561,9.1846,9.1406,9.1271,8.9275,8.8371,8.8483,8.7736,8.715,0.0,0.0,8.6145,8.5514,8.5514,8.5514,8.5506,8.5737,8.584,8.5865,8.6093,8.6169,8.6169,0.0,0.0,0.0,0.0,0.0,0.0,0.0,0.0,0.0,0.0,0.0,0.0,0.0,0.0,0.0,0.0,0.0,0.0,0.0,0.0,0.0,0.0,4.0016,4.0756,4.2015,4.3184,0.0,0.0,0.0,5.3787,5.6583,5.6019,5.3448,4.9198,0.0,0.0,4.4237,0.0,0.0,0.0,0.0,0.0,0.0,0.0,0.0,0.0,0.0,0.0,0.0,0.0,5.0676,5.1217,5.0879,0.0,0.0,0.0,0.0,0.0,5.1116,5.2942,5.3991,5.2401,5.3754,5.4718,5.2063,5.1116,5.0811,5.0913,5.1488,5.2875,5.5902,5.8051,6.1975,7.0026,7.6927,8.349,8.9884,9.2083,9.4823,9.9629,10.1487,10.2198,10.1589,10.2502,10.213,9.9863,9.8645,0.0,9.6447,9.533,9.4552,9.4214,9.3436,9.2861,9.2392,9.1677,9.1102,9.0696,8.9008,8.8265,8.8368,8.7374,8.6863,8.6782,0.0,8.6097,8.5916,8.5916,8.5916,8.5941,8.6068,8.6118,8.6118,8.6244,8.6294,8.6294,0.0,0.0,0.0,0.0,0.0,0.0,0.0,0.0,0.0,0.0,0.0,0.0,0.0,0.0,0.0,0.0,0.0,0.0,0.0,0.0,3.878,4.0733,4.1784,4.2663,4.3464,4.5341,4.8142,5.1867,5.4083,5.6638,5.9434,5.6093,5.2555,0.0,0.0,0.0,4.3977,4.4821,4.5848,0.0,0.0,0.0,0.0,0.0,0.0,0.0,0.0,0.0,0.0,0.0,0.0,0.0,0.0,0.0,0.0,5.0676,4.983,4.9458,5.0338,5.1826,5.3416,5.4769,5.6427,5.7288,5.5683,5.4431,5.3991,5.531,5.5716,5.668,5.952,6.3193,6.8741,7.7831,8.4437,8.9545,9.2692,9.4282,9.665,10.0811,10.1589,10.2399,10.3483,10.3585,10.2502,9.9866,9.8645,0.0,9.6413,9.5161,9.4451,9.4451,9.3537,9.2759,9.2121,9.1294,9.0708,9.0302,8.8836,8.8212,8.8286,8.7018,8.6568,8.6791,8.6233,8.6118,8.6294,8.6294,8.6294,8.6294,8.6294,8.6294,8.6294,8.6294,8.6294,8.6294,0.0,0.0,0.0,0.0,0.0,0.0,0.0,0.0,0.0,0.0,0.0,0.0,0.0,0.0,0.0,0.0,0.0,0.0,0.0,0.0,3.8903,3.8569,4.2301,4.5884,4.9056,4.8635,5.0676,5.5329,5.8054,6.0116,6.1502,5.8128,5.4098,4.9552,4.8079,4.636,4.4706,4.6077,4.6701,4.685,0.0,0.0,0.0,0.0,0.0,0.0,0.0,0.0,0.0,0.0,0.0,0.0,0.0,0.0,5.1269,5.1167,5.0608,5.0777,5.4279,5.5327,5.5631,5.6461,5.5277,5.5108,5.9708,5.9066,5.8306,6.1182,6.2313,6.2868,6.3139,7.0128,7.7435,8.2306,8.8734,9.4413,9.8037,9.9221,10.0912,10.399,10.3787,10.3483,10.3585,10.3585,10.2096,9.8442,9.807,0.0,9.4992,9.4112,9.3702,9.3702,9.2218,9.144,9.1372,9.0205,8.9972,9.0645,8.8429,8.7644,8.8078,8.6594,8.6086,8.6373,8.6304,8.6269,8.6294,8.6294,8.6294,8.6294,8.6294,8.6294,8.6294,8.6294,8.6294,8.6294,0.0,0.0,0.0,0.0,0.0,0.0,0.0,0.0,0.0,0.0,0.0,0.0,0.0,0.0,0.0,0.0,0.0,0.0,0.0,0.0,3.9642,4.0927,4.3591,4.6269,4.8974,5.2082,5.5807,6.0122,6.1568,6.1471,5.9839,5.5615,0.0,0.0,4.6755,4.5376,4.4721,4.5742,4.6131,4.6234,4.7406,0.0,0.0,0.0,0.0,0.0,0.0,0.0,0.0,0.0,5.0033,5.0728,5.0574,5.115,5.1776,5.1336,5.0676,5.0421,5.1826,5.3923,5.6003,5.7171,5.8254,5.9438,6.096,6.2415,6.4309,6.732,6.8876,6.9992,7.0906,7.6521,8.2475,8.6941,9.2556,9.7495,10.0777,10.1487,10.2096,10.3212,10.3483,10.3415,10.2976,10.2502,10.1216,9.8848,9.7394,0.0,9.4789,9.3537,9.2861,9.2861,9.1846,9.1154,9.0946,8.9978,8.9614,8.9825,8.843,8.7886,8.8061,8.6756,8.6194,8.6294,8.6294,8.6294,8.6294,8.6294,8.6294,8.6294,8.6294,8.6294,8.6294,8.6294,8.6294,8.6294,0.0,0.0,0.0,0.0,0.0,0.0,0.0,0.0,0.0,0.0,0.0,0.0,0.0,0.0,0.0,0.0,0.0,0.0,0.0,3.8537,3.9881,4.1408,4.3655,4.6069,4.8553,5.4129,5.8589,6.1871,6.3383,6.221,5.8387,0.0,0.0,0.0,4.7082,4.6234,4.6576,4.7002,4.6978,4.6787,4.7588,4.8048,0.0,0.0,0.0,0.0,0.0,0.0,0.0,0.0,4.9864,5.0525,5.071,5.1319,5.1961,5.1911,5.1386,5.0777,5.0777,5.2672,5.5023,5.6765,5.9641,6.2584,6.4681,6.7455,7.0669,7.439,7.5202,7.5642,7.6893,8.1021,8.5554,8.9545,9.5195,9.9796,10.1893,10.2198,10.2198,10.2502,10.2705,10.2806,10.2502,10.1589,10.0202,9.8206,9.6447,0.0,0.0,9.2624,9.202,9.202,9.1102,9.0499,9.0333,8.9396,8.8918,8.8911,8.8234,8.7882,8.7814,8.6779,8.6294,8.6294,8.6294,8.6294,8.6294,8.6294,8.6294,8.6294,8.6294,8.6294,8.6294,8.6294,8.6294,8.6294,0.0,0.0,0.0,0.0,0.0,0.0,0.0,0.0,0.0,0.0,0.0,0.0,0.0,0.0,0.0,0.0,0.0,0.0,0.0,3.8943,3.9501,3.9043,4.2222,4.543,4.8491,5.4359,5.8218,5.9809,6.3195,6.2421,5.7678,5.4945,0.0,0.0,4.977,4.9603,5.0733,5.0278,4.9607,4.8812,4.8199,4.8354,0.0,0.0,0.0,0.0,0.0,0.0,0.0,0.0,4.9593,4.939,5.1589,5.181,5.1539,5.3044,5.2942,5.2334,5.23,5.2334,5.2909,5.5192,5.8607,6.3531,7.1684,7.4695,7.7232,8.2475,8.1224,7.9431,8.0141,8.3321,8.6805,8.9748,9.648,10.1418,10.1418,10.1418,10.1722,10.2401,10.1792,10.169,10.2401,10.1115,9.895,9.6007,9.5093,0.0,0.0,9.1271,9.1271,9.1271,8.9878,8.9212,8.949,8.8292,8.7833,8.8096,8.759,8.7372,8.7372,8.6639,8.6294,8.6294,8.6294,8.6294,8.6294,8.6294,8.6294,8.6294,8.6294,8.6294,8.6294,8.6294,8.6294,8.6294,0.0,0.0,0.0,0.0,0.0,0.0,0.0,0.0,0.0,0.0,0.0,0.0,0.0,0.0,0.0,0.0,0.0,0.0,0.0,3.9073,3.9535,3.9707,4.1891,4.3372,4.3937,4.8586,5.4151,6.0486,6.0547,5.8146,0.0,0.0,0.0,4.971,0.0,5.0093,4.8732,4.9604,4.8639,4.6763,4.868,4.8643,0.0,0.0,0.0,0.0,0.0,0.0,0.0,0.0,0.0,0.0,5.0541,5.2435,5.4143,5.301,5.3602,5.4346,5.2739,5.3856,5.6156,5.8964,6.4018,7.006,7.669,7.8145,8.004,8.6805,8.711,8.5858,8.508,8.711,8.9512,9.1411,9.5398,9.9184,10.1792,10.169,10.1519,10.169,10.1014,10.0405,10.01,9.7834,9.5973,9.5093,0.0,0.0,0.0,9.0019,8.9512,8.9004,8.8217,8.7953,8.825,8.7525,8.7332,8.7615,8.6933,8.6915,8.7372,8.6639,8.6294,8.6294,8.6294,8.6294,8.6294,8.6294,8.6294,8.6294,8.6294,8.6294,8.6294,8.6294,8.673,8.7289,0.0,0.0,0.0,0.0,0.0,0.0,0.0,0.0,0.0,0.0,3.5587,3.5573,0.0,0.0,0.0,0.0,0.0,0.0,0.0,0.0,3.9655,4.025,4.1252,4.2496,4.3946,4.7607,5.1492,5.5561,5.5838,5.4083,5.0513,5.1883,5.2026,5.1288,5.4359,5.3819,5.062,5.1842,5.0235,4.711,5.0175,4.9871,4.7872,0.0,0.0,0.0,0.0,0.0,0.0,0.0,0.0,0.0,5.0117,5.2063,5.4076,5.2706,5.3518,5.4651,5.3839,5.5412,5.8254,6.2448,6.7658,7.3612,8.0784,8.3693,8.6467,9.215,9.1541,8.9985,9.0019,9.0865,9.2116,9.3909,9.6954,9.9694,10.1386,10.098,10.0402,10.01,9.9356,9.8612,9.7867,9.5939,9.4315,9.3436,0.0,0.0,0.0,8.8632,8.8079,8.7714,8.7165,8.7052,8.7415,8.6851,8.6705,8.6984,8.6536,8.6536,8.6949,8.6501,8.6294,8.6294,8.6294,8.6294,8.6319,8.6706,8.6632,8.6369,8.7133,8.717,8.6891,8.7266,8.7772,8.8278,0.0,0.0,0.0,0.0,0.0,0.0,0.0,0.0,0.0,0.0,3.5519,3.5519,0.0,0.0,0.0,0.0,0.0,0.0,0.0,0.0,3.9781,4.0643,4.0706,4.2593,4.6609,4.9255,4.9457,4.7209,5.003,5.0389,4.8532,5.3088,5.5064,5.4893,5.9361,5.8795,5.4506,5.5208,5.2768,4.8692,5.1977,5.1499,4.9116,5.2199,0.0,0.0,0.0,0.0,0.0,0.0,0.0,0.0,5.0286,5.1352,5.257,5.2469,5.3078,5.4126,5.5597,5.707,5.9708,6.5967,7.0737,7.6115,8.4471,9.0222,9.4518,9.7089,9.4586,9.2556,9.462,9.4518,9.4785,9.6781,9.9897,10.159,10.0303,9.9424,9.8679,9.807,9.7225,9.6413,9.577,9.4857,9.3402,9.1271,0.0,0.0,0.0,8.7177,8.6908,8.7103,8.6484,8.6374,8.6895,8.6259,8.6068,0.0,8.6294,8.6294,8.6294,8.6294,8.6294,8.6294,8.6294,8.6294,8.6369,8.7218,8.7085,8.6494,8.8265,8.8445,8.7819,8.8757,8.9149,8.9214,0.0,0.0,0.0,0.0,0.0,0.0,0.0,0.0,0.0,0.0,0.0,0.0,0.0,0.0,0.0,0.0,0.0,0.0,0.0,0.0,3.9727,4.0441,4.2084,4.3414,4.4307,4.4793,4.4744,4.4163,4.7579,4.8512,4.7127,5.2388,5.4864,5.4956,5.7488,5.6348,5.2418,5.1556,4.926,4.6636,5.0841,5.1052,4.9141,5.1614,5.1339,0.0,0.0,0.0,0.0,0.0,0.0,0.0,5.1657,5.3281,5.4752,5.3585,5.46,5.6427,5.7897,5.9404,6.255,7.0872,7.9261,8.6467,9.0154,9.3233,9.5161,9.4654,9.5601,9.6717,9.7225,9.7631,9.807,9.8544,9.8815,9.9051,9.9288,9.8172,9.7529,9.7969,9.6345,9.5127,9.4958,9.2658,9.0729,0.0,0.0,0.0,8.6332,8.6095,8.5891,8.5573,8.5613,8.5831,8.6131,8.6196,8.6244,0.0,8.6294,8.6294,8.6294,8.6294,8.6294,8.6294,8.6294,8.6294,8.6294,8.6543,8.6494,8.6419,8.7574,8.7888,8.7819,8.8757,8.9555,9.0211,0.0,0.0,0.0,0.0,0.0,0.0,0.0,0.0,0.0,0.0,0.0,0.0,0.0,0.0,0.0,0.0,0.0,0.0,0.0,0.0,0.0,4.0965,4.3237,4.3987,4.2978,4.3366,4.3213,4.245,4.4668,4.6203,4.7188,5.253,5.5615,5.6864,5.9367,5.7981,5.3669,5.2272,5.0064,4.793,5.2123,5.2015,4.9689,5.3165,5.2404,4.9669,5.0361,0.0,0.0,0.0,0.0,0.0,0.0,0.0,5.4414,5.3281,5.4532,5.6747,5.8912,6.1941,6.6779,7.6454,8.4302,9.0019,9.1541,9.3639,9.5161,9.4721,9.6717,9.8645,9.9018,9.9085,9.9085,9.9085,9.8476,9.8003,9.8037,9.6785,9.5973,9.6379,9.4451,9.2928,9.259,9.0797,8.9207,0.0,0.0,8.6602,8.5851,8.5418,8.5233,8.5281,8.5437,8.5686,8.6093,8.6219,8.6294,8.6294,8.6294,8.6294,8.6294,8.6294,8.6294,8.6294,8.6294,8.6294,8.6319,8.6769,8.6706,8.6444,8.7819,8.8625,8.9009,8.9571,9.0606,9.1698,0.0,0.0,0.0,0.0,0.0,0.0,0.0,0.0,0.0,0.0,0.0,0.0,0.0,0.0,0.0,0.0,0.0,0.0,0.0,0.0,0.0,0.0,4.3708,4.4107,4.2565,4.3244,0.0,4.2055,4.2412,4.4695,4.8748,5.3263,5.6659,5.9084,6.1527,6.0003,5.5507,5.393,5.1831,4.9888,5.3642,5.3175,5.0666,0.0,0.0,4.9726,5.0939,5.137,5.1404,5.1539,0.0,0.0,0.0,0.0,5.3382,5.2706,5.3839,5.6003,5.9066,6.458,7.1751,8.1325,8.7076,9.0594,9.1338,9.3165,9.489,9.5466,9.7258,9.8984,9.9863,9.9424,9.8916,9.8916,9.8172,9.7326,9.6477,9.5161,9.4282,9.4146,9.2218,9.0662,9.0087,8.9207,8.8158,0.0,0.0,8.575,8.5587,8.4979,8.4811,8.5284,8.5309,8.5498,8.5915,8.5915,8.5915,8.5915,8.6053,8.6053,8.5915,8.6053,8.6191,8.6294,8.6294,8.6294,8.6344,8.7122,8.7012,8.6469,8.8351,8.9582,9.0365,9.0748,9.1803,9.3015,0.0,0.0,0.0,0.0,0.0,0.0,0.0,0.0,0.0,0.0,3.5519,3.5519,0.0,0.0,0.0,0.0,0.0,0.0,3.7584,0.0,0.0,4.1411,4.2464,4.3182,4.3432,4.2837,4.2964,4.3949,4.3033,4.6142,5.2922,5.4769,5.7085,5.9675,5.9624,5.7793,5.4699,5.2397,5.0477,4.9196,5.2458,5.3045,5.2125,0.0,0.0,0.0,5.2098,5.2164,5.2266,5.2976,5.3281,0.0,0.0,0.0,5.3484,5.3382,5.3551,5.46,5.8168,6.7252,7.713,8.305,8.7854,9.1338,9.2054,9.3508,9.4755,9.4823,9.6108,9.7597,9.8984,9.8645,9.8172,9.8172,9.6988,9.5601,9.4214,9.3267,9.2489,9.1846,9.0357,8.9371,8.9269,8.7989,8.6839,0.0,8.5885,8.5486,8.4783,8.4647,8.4574,8.4438,8.4464,8.441,8.4304,8.4304,8.4304,8.4328,8.5018,8.4984,8.4304,8.5018,8.5708,8.6294,8.6294,8.6294,8.6294,8.6444,8.6419,8.6488,8.8179,8.944,9.0472,9.1955,9.2767,9.3088,0.0,0.0,0.0,0.0,0.0,0.0,0.0,0.0,0.0,0.0,0.0,3.5519,0.0,0.0,0.0,3.5519,3.6626,3.7494,3.7913,3.9499,4.0572,4.1002,4.1614,4.204,4.2138,4.1778,4.2108,4.3196,4.2769,4.7004,5.5461,5.6416,5.8701,6.1902,5.903,5.7324,5.627,5.216,5.0528,5.0871,5.2713,5.319,5.2958,0.0,0.0,0.0,0.0,0.0,0.0,5.3382,5.3518,5.3518,5.3518,0.0,0.0,0.0,5.4076,5.6292,6.3362,7.0026,7.6657,8.3592,8.7685,9.0357,9.1541,9.2658,9.3542,9.3977,9.4248,9.5093,9.7428,9.7258,9.665,9.6244,9.5263,9.4045,9.2522,9.1643,9.1068,9.0729,8.9038,8.7854,8.7854,8.6907,8.596,0.0,8.5148,8.4952,8.4614,8.4614,8.4506,8.4302,8.4293,8.4204,8.3993,8.3993,8.3993,8.3993,8.4811,8.4777,8.4028,8.4846,8.5397,8.5673,8.5673,8.5915,8.6294,8.6294,8.6294,8.6379,8.7102,8.858,9.0407,9.1118,9.2115,9.3088,0.0,0.0,0.0,0.0,0.0,0.0,0.0,0.0,0.0,0.0,0.0,0.0,0.0,0.0,0.0,0.0,3.6237,3.7285,3.8571,3.9589,4.0212,4.0347,4.0699,4.0852,4.0752,4.0739,4.1291,4.2371,4.3021,4.8142,5.7309,5.8325,6.1348,6.5688,6.099,5.9017,5.8848,5.3487,5.2366,5.4144,5.34,0.0,0.0,0.0,0.0,0.0,0.0,0.0,0.0,0.0,0.0,5.3518,5.3518,5.3518,0.0,0.0,0.0,5.6883,6.4884,6.9383,7.3578,8.1088,8.5486,8.8429,9.0324,9.1305,9.2083,9.2827,9.2556,9.2827,9.506,9.5161,9.4755,9.4214,9.3503,9.2455,9.0932,9.0256,8.985,8.9681,8.7854,8.6704,8.6907,8.6061,8.5249,0.0,8.4614,8.4614,8.4614,8.4694,8.4585,8.4302,8.4199,8.3971,8.3718,8.3511,8.3442,8.3466,8.4259,8.419,8.3466,8.4259,8.4639,8.4639,8.5018,8.5501,8.6053,8.6225,8.6444,8.6657,8.6864,8.8452,9.0674,9.0868,9.1849,9.3088,0.0,0.0,0.0,0.0,0.0,0.0,0.0,0.0,0.0,0.0,0.0,0.0,0.0,3.5519,3.5519,3.5519,3.6656,3.7926,3.9272,3.9421,3.9451,3.9469,3.9481,0.0,4.0023,4.0041,4.0888,4.2584,4.451,5.0011,5.8756,6.0671,6.5165,7.1382,6.673,6.3861,6.2117,5.6991,5.6715,5.9272,0.0,0.0,0.0,0.0,0.0,0.0,0.0,0.0,0.0,0.0,0.0,0.0,0.0,5.3518,5.3518,0.0,0.0,0.0,5.7645,6.2753,6.8415,7.3826,8.0048,8.5594,8.8531,8.9782,9.0527,9.1271,9.1372,9.1406,9.1541,9.215,9.2561,9.2527,9.1913,9.0899,8.9438,8.9201,8.8897,8.8192,8.6771,8.6129,8.6839,8.5527,8.4647,0.0,8.4614,8.4614,8.4614,8.4906,8.4828,8.4302,8.3862,8.3414,8.2959,8.2259,8.1914,8.1914,8.2673,8.2638,8.1948,8.2673,8.3018,8.3121,8.457,8.5225,8.5294,8.6018,8.6818,8.7679,8.8416,8.9881,9.1716,9.2419,9.2837,9.3088,0.0,0.0,0.0,0.0,0.0,0.0,0.0,0.0,0.0,0.0,0.0,0.0,0.0,3.6118,3.6297,3.6686,3.7524,3.8242,3.8721,3.9152,3.9391,3.9391,3.981,4.0166,4.0438,4.0438,4.1304,4.3063,4.3358,4.805,5.6829,5.8454,6.2808,6.9032,6.4963,6.3016,6.2471,5.6033,5.4505,5.6169,0.0,0.0,0.0,0.0,0.0,0.0,0.0,0.0,0.0,0.0,0.0,0.0,0.0,0.0,0.0,5.3518,5.3518,5.4363,5.8254,6.0858,6.4241,7.1413,7.6454,8.0581,8.3998,8.6501,8.8158,8.8429,8.8497,8.8497,8.8497,8.985,9.0831,9.0357,9.0053,8.9545,8.8531,8.8395,8.8125,8.738,8.6399,8.5689,8.5425,8.4918,8.4614,0.0,0.0,8.4614,8.4614,8.443,8.4079,8.3585,8.3133,8.2682,8.219,8.1948,8.181,8.181,8.2569,8.2535,8.1845,8.2569,8.2638,8.2317,8.4401,8.5624,8.6147,8.688,8.7749,8.8637,8.8898,8.9815,9.1036,9.1813,9.2167,9.2354,0.0,0.0,0.0,0.0,0.0,0.0,0.0,0.0,0.0,0.0,0.0,0.0,0.0,0.0,3.7045,3.7674,3.8123,3.8482,3.8721,3.9224,3.9583,3.972,4.0231,4.069,4.1133,4.1363,4.2112,4.3419,4.3879,4.7835,5.5052,5.7161,6.1221,6.6601,6.3021,6.3136,6.5571,5.8515,5.6653,5.823,0.0,0.0,5.7153,0.0,0.0,0.0,0.0,0.0,0.0,0.0,0.0,0.0,0.0,0.0,0.0,0.0,5.3518,5.416,5.7103,5.8626,6.1163,6.8639,7.2022,7.4931,8.0412,8.2847,8.4336,8.5797,8.6541,8.7076,8.755,8.8429,8.9004,8.8767,8.8965,8.8761,8.7753,8.7617,8.7347,8.6636,8.5621,8.4911,8.4614,8.414,8.3836,0.0,0.0,0.0,8.4001,8.378,8.3474,8.3108,8.2791,8.2367,8.181,8.181,8.181,8.181,8.2293,8.2293,8.181,8.2328,8.2414,8.235,8.4504,8.5689,8.6309,8.7626,8.8712,8.9555,8.9555,9.0114,9.0978,9.1523,9.176,9.1877,0.0,0.0,0.0,0.0,0.0,0.0,0.0,0.0,0.0,0.0,0.0,0.0,0.0,0.0,0.0,3.8469,3.8529,3.8781,3.9391,3.9619,3.9938,4.0415,4.0629,4.1163,4.2014,4.2671,4.3213,4.3624,4.6203,4.9558,5.3675,5.7001,6.081,6.4676,6.1534,6.4519,7.1386,6.4462,6.3485,6.5906,0.0,5.7219,6.0452,0.0,0.0,0.0,6.3545,6.2178,0.0,5.6984,0.0,0.0,0.0,0.0,0.0,0.0,0.0,5.3518,0.0,0.0,0.0,6.5053,6.6555,6.891,7.7739,7.8686,7.8957,8.343,8.5527,8.7076,8.8632,8.7786,8.7076,8.7786,8.8497,8.8463,8.711,8.6907,8.6602,8.5824,8.4437,8.3795,8.4478,8.3227,8.2408,0.0,8.2408,8.2511,8.2794,8.304,8.3065,8.2856,8.288,8.2535,8.181,8.181,8.181,8.181,8.181,8.181,8.181,8.181,8.2303,8.3195,8.4728,8.5441,8.5637,8.8103,8.9681,9.0532,9.0532,9.1057,9.1803,9.1803,9.1803,9.1803,0.0,0.0,0.0,0.0,0.0,0.0,0.0,0.0,0.0,0.0,0.0,0.0,0.0,0.0,0.0,4.1332,4.1283,4.0954,4.0187,4.0183,4.0556,4.1298,4.1848,4.2399,4.2938,4.2989,4.3438,4.4314,4.4438,4.6678,5.0912,0.0,5.6212,6.1987,6.0036,6.1675,6.5446,5.8654,5.8079,6.1324,5.7224,5.8686,0.0,0.0,0.0,0.0,0.0,6.5019,6.4796,0.0,6.2665,6.0772,0.0,0.0,0.0,0.0,0.0,0.0,5.3518,0.0,0.0,0.0,0.0,0.0,6.7861,6.9823,7.2124,7.713,7.8957,8.0784,8.437,8.5148,8.529,8.5493,8.5696,8.6095,8.6805,8.6433,8.5824,8.5046,8.4573,8.3937,8.3092,8.2644,0.0,0.0,8.2563,8.2717,8.2794,8.2738,8.2506,8.2097,8.2121,8.2017,8.181,8.181,8.181,8.181,8.181,8.181,8.181,8.181,8.2303,8.3182,8.4832,8.5915,8.6688,8.9127,9.0631,9.1453,9.1453,9.1583,9.1803,9.1803,9.1803,9.1803,0.0,0.0,0.0,0.0,0.0,0.0,0.0,0.0,0.0,0.0,0.0,0.0,0.0,0.0,0.0,0.0,4.296,4.2361,4.1313,4.1134,4.1396,4.2096,4.2641,4.3335,4.4132,4.4017,4.445,4.5453,4.527,4.645,4.8892,0.0,0.0,0.0,5.6731,5.7657,5.9325,5.5214,5.6154,0.0,5.9871,0.0,0.0,6.6102,6.7252,0.0,0.0,0.0,6.9451,6.8538,6.6339,0.0,0.0,0.0,0.0,0.0,0.0,0.0,0.0,0.0,0.0,5.7881,0.0,0.0,6.3565,6.4884,6.6711,7.2259,7.4255,7.6386,8.0851,8.2035,8.2686,8.3964,8.387,8.4072,8.5317,8.5384,8.4911,8.3802,8.3422,8.2881,8.2035,8.1393,8.1046,8.1173,8.1325,8.1501,8.1691,8.2041,8.1781,8.0856,8.1155,8.1293,8.1293,8.1293,8.1466,8.181,8.181,8.181,8.1834,8.2187,8.2826,8.3734,8.5402,8.6655,8.7577,8.9325,9.0537,9.1289,9.1289,9.151,9.1803,9.1803,9.1803,9.1803,0.0,0.0,0.0,0.0,0.0,0.0,0.0,0.0,0.0,0.0,0.0,0.0,0.0,0.0,0.0,0.0,4.4247,4.3449,4.267,4.2274,0.0,0.0,0.0,0.0,0.0,0.0,4.5909,4.6603,4.7485,4.7888,0.0,0.0,0.0,0.0,0.0,5.3428,5.4026,5.3933,5.6693,6.139,6.4021,6.6454,0.0,0.0,7.483,7.5067,7.5811,7.5236,7.3747,7.1345,6.8132,0.0,0.0,0.0,0.0,0.0,5.5243,0.0,0.0,0.0,0.0,0.0,5.7915,0.0,6.2245,6.2144,6.2516,6.8187,7.0364,7.2699,7.7401,7.8382,7.9261,8.1629,8.1968,8.234,8.3592,8.4167,8.3937,8.2475,8.1629,8.1088,8.0945,7.9735,7.909,7.9361,7.9435,7.9644,8.0089,8.1013,8.0914,7.9569,8.0132,8.0476,8.0476,8.0545,8.0959,8.1672,8.1776,8.1823,8.1965,8.2759,8.3634,8.4615,8.6108,8.7266,8.8133,8.8849,8.9657,9.0464,9.0592,9.1033,9.1693,9.1767,9.1803,9.1803,0.0,0.0,0.0,0.0,0.0,0.0,0.0,0.0,0.0,0.0,0.0,0.0,0.0,0.0,0.0,0.0,0.0,4.5503,0.0,0.0,0.0,0.0,0.0,0.0,0.0,0.0,0.0,4.6603,4.8052,0.0,0.0,0.0,0.0,0.0,5.2032,5.2313,5.3726,5.5399,5.7714,6.0535,6.2892,0.0,7.2631,7.4695,7.6251,7.7435,7.8179,7.8247,7.7502,7.4018,7.077,6.7455,0.0,0.0,0.0,0.0,0.0,0.0,0.0,0.0,0.0,0.0,0.0,0.0,5.707,5.7577,5.9573,6.3179,6.416,6.6068,7.1763,7.3781,7.4187,7.2969,7.6207,8.0378,8.4735,8.4403,8.3152,8.1663,8.0851,7.9938,7.8779,7.8382,7.8302,7.8512,7.8931,7.9287,7.9614,7.9833,7.981,7.9534,7.9614,7.9718,7.9718,8.0304,8.0683,8.0821,8.15,8.2164,8.2836,8.3037,8.396,8.5463,8.578,8.6429,8.7252,8.7381,8.8299,8.9693,9.0354,9.0702,9.0922,9.1546,9.1803,9.1803,0.0,0.0,0.0,0.0,0.0,0.0,0.0,0.0,0.0,0.0,0.0,0.0,0.0,0.0,0.0,0.0,0.0,0.0,0.0,0.0,0.0,0.0,0.0,0.0,0.0,0.0,0.0,4.8749,4.9269,4.9862,0.0,0.0,0.0,0.0,5.2485,5.2948,5.4109,5.5192,5.7147,5.9994,6.5269,0.0,7.4356,7.7367,7.8957,7.9735,8.0479,8.0513,7.9464,7.4593,7.2191,0.0,0.0,6.2685,6.1839,0.0,5.849,5.8168,0.0,0.0,0.0,5.734,0.0,0.0,0.0,5.6242,5.7103,6.008,6.0114,6.1197,6.6453,6.7692,6.8458,6.998,7.2417,7.5835,8.0682,8.0987,8.0344,7.9228,7.8416,7.7671,7.6927,7.6521,7.6452,7.6831,7.7662,7.803,7.7821,7.8856,7.8982,7.7821,7.8568,7.8948,7.8948,7.9683,8.0235,8.0614,8.1431,8.228,8.309,8.3548,8.4457,8.573,8.6156,8.6608,8.6978,8.6978,8.7711,8.8886,8.9693,9.0482,9.1253,9.1657,9.1803,9.1803,3.6776,0.0,0.0,0.0,0.0,0.0,0.0,0.0,0.0,5.1569,0.0,0.0,0.0,0.0,0.0,0.0,0.0,0.0,0.0,0.0,0.0,0.0,0.0,4.6706,0.0,0.0,0.0,0.0,5.0521,5.0764,5.135,0.0,5.3161,5.2589,5.3347,5.4126,5.4837,5.5108,5.7273,6.111,0.0,7.1988,7.3849,7.8788,8.0775,8.0987,8.2035,8.1934,8.0445,7.4897,7.3341,7.2597,6.6339,6.5087,0.0,0.0,0.0,0.0,0.0,0.0,0.0,0.0,0.0,5.7931,0.0,0.0,0.0,5.7999,5.7442,5.7746,6.1516,6.1975,6.299,6.6779,6.8368,7.0229,7.3443,7.4762,7.5676,7.6386,7.5371,7.4796,7.5236,7.4426,7.4217,7.5094,7.575,7.6029,7.5891,7.7615,7.7753,7.5925,7.7258,7.7982,7.7982,7.8844,7.9649,8.0373,8.1343,8.2347,8.3375,8.4252,8.5117,8.6009,8.6696,8.6978,8.6978,8.6978,8.7472,8.828,8.9069,9.028,9.1583,9.173,9.1803,9.1803,3.7434,3.7883,0.0,0.0,0.0,0.0,0.0,0.0,0.0,5.3778,5.6154,0.0,0.0,0.0,0.0,0.0,0.0,0.0,5.4903,0.0,0.0,0.0,0.0,0.0,4.8646,0.0,0.0,0.0,5.1355,5.2083,5.22,0.0,5.3433,5.3399,5.4126,5.4871,5.5665,5.6968,6.0757,6.6149,6.9113,6.9654,0.0,7.5902,7.8788,7.9634,8.1697,8.1934,8.0708,0.0,7.4965,7.3646,0.0,6.7083,6.6318,0.0,0.0,0.0,0.0,0.0,0.0,0.0,6.3328,0.0,0.0,0.0,5.8829,5.6544,0.0,5.6172,5.734,0.0,0.0,5.7559,6.1806,6.4715,6.3294,6.4816,6.8301,7.4153,7.2462,7.1605,7.3567,7.2212,7.209,7.4172,7.2966,7.3015,7.4925,7.5304,7.5304,7.5063,7.5891,7.6339,7.6339,7.781,7.8913,7.9638,8.1148,8.2713,8.4272,8.5137,8.6027,8.6856,8.6943,8.6978,8.6978,8.6978,8.7472,8.828,8.9069,8.995,9.0812,9.1546,9.1803,9.1803,3.8033,3.8841,4.0277,0.0,0.0,0.0,0.0,0.0,5.5656,5.6777,5.9807,0.0,0.0,0.0,0.0,0.0,0.0,5.6111,0.0,0.0,0.0,0.0,0.0,0.0,0.0,0.0,0.0,0.0,5.2148,5.252,5.299,5.3331,5.3957,5.4752,5.4634,5.5953,5.8287,5.8896,6.1129,6.4512,0.0,6.8233,0.0,7.6657,8.0132,8.0445,8.0953,8.0919,8.0073,0.0,7.5134,0.0,0.0,0.0,0.0,0.0,0.0,0.0,0.0,0.0,0.0,0.0,0.0,0.0,5.9235,0.0,5.7949,0.0,0.0,0.0,0.0,0.0,0.0,0.0,5.8727,6.0351,6.1197,6.1332,6.3362,6.8774,0.0,0.0,6.8166,0.0,0.0,0.0,6.9976,7.0636,7.1601,7.3718,7.4718,7.4292,7.5442,7.6097,7.6097,7.7637,7.8775,7.9534,8.112,8.2793,8.4416,8.484,8.5719,8.6978,8.6518,8.6591,8.6978,8.6978,8.7472,8.828,8.9069,8.9877,9.0702,9.151,9.1803,9.1803,3.8901,3.9738,4.0984,4.2819,4.3569,0.0,0.0,0.0,0.0,5.8464,0.0,0.0,6.5737,6.4348,0.0,0.0,6.4538,6.1527,0.0,0.0,5.3391,0.0,0.0,0.0,0.0,0.0,0.0,0.0,5.2554,5.2929,5.4093,5.389,5.46,5.6003,5.6325,5.8051,6.0791,6.1806,6.3599,6.5967,6.8673,7.0026,7.1176,7.7638,8.0471,8.0953,8.0615,8.0242,7.9431,7.6284,7.5439,0.0,7.1819,0.0,0.0,0.0,0.0,0.0,6.644,0.0,0.0,0.0,0.0,0.0,0.0,0.0,0.0,0.0,0.0,0.0,0.0,0.0,0.0,0.0,0.0,5.7509,5.9505,5.8626,5.9471,6.3937,0.0,0.0,0.0,0.0,0.0,6.634,6.6681,6.7551,6.9207,7.167,7.3188,7.3485,7.4774,7.5546,7.5753,7.712,7.8258,7.9224,8.0859,8.2353,8.3758,8.4311,8.5298,8.6628,8.604,8.6261,8.6978,8.6978,8.7472,8.828,8.9069,8.9877,9.0702,9.151,9.1803,9.1803,4.0217,4.0367,4.0872,4.2461,4.4338,4.6854,0.0,0.0,0.0,0.0,0.0,0.0,0.0,0.0,0.0,0.0,0.0,6.9794,6.9643,0.0,5.7229,0.0,0.0,5.2577,0.0,0.0,0.0,0.0,5.2289,5.343,5.5597,5.4905,5.5344,5.69,5.981,6.1535,6.257,6.6136,7.0195,7.4198,7.4333,7.6555,7.9566,0.0,7.8382,8.031,8.1021,0.0,0.0,7.7367,7.6318,0.0,0.0,0.0,0.0,0.0,0.0,0.0,0.0,0.0,0.0,6.4965,0.0,0.0,0.0,0.0,6.0554,0.0,0.0,0.0,0.0,0.0,0.0,0.0,0.0,0.0,0.0,5.5209,5.6393,6.0926,6.326,0.0,0.0,6.3119,6.3277,6.6436,6.2851,6.3066,6.8966,6.869,6.967,7.2623,7.3485,7.4223,7.4925,7.5753,7.6925,7.8453,8.0144,8.1327,8.2136,8.3826,8.5069,8.582,8.58,8.6261,8.6978,8.6978,8.7472,8.828,8.9069,8.9877,9.0702,9.151,9.1803,9.1803,4.2203,4.2322,4.2361,4.2488,4.3175,4.5223,4.9664,5.2558,0.0,0.0,6.6555,0.0,0.0,7.8676,7.9752,0.0,0.0,7.6665,7.384,6.8798,0.0,0.0,0.0,5.7753,0.0,0.0,0.0,0.0,0.0,5.4459,5.5699,5.5428,5.6122,5.7611,5.9607,6.2009,6.4803,6.8052,7.0567,7.2574,0.0,7.757,8.0784,0.0,0.0,8.0175,7.9938,7.9532,0.0,7.7401,7.6352,7.5473,7.4255,7.351,7.2935,7.1954,7.236,0.0,0.0,0.0,7.2665,6.7658,0.0,0.0,0.0,0.0,0.0,0.0,0.0,0.0,0.0,0.0,0.0,0.0,0.0,0.0,0.0,0.0,5.4803,5.7288,5.9554,6.0393,0.0,0.0,0.0,6.1343,6.0166,6.0978,6.4619,6.6876,6.8808,7.0415,7.2623,7.4154,7.4869,7.6242,7.769,7.9191,8.0902,8.237,8.3651,8.3745,8.4535,8.5764,8.5233,8.5453,8.6261,8.6775,8.7472,8.828,8.9069,8.9877,9.0702,9.151,9.1803,9.1803,4.328,4.3369,4.3438,4.3326,4.4366,4.6397,5.0049,0.0,0.0,0.0,7.2439,0.0,8.4532,0.0,8.651,0.0,8.6454,8.3023,7.7907,7.4629,0.0,6.7596,6.4387,0.0,0.0,0.0,0.0,0.0,0.0,5.6427,5.6849,5.6341,5.7036,5.8761,6.1061,6.3565,6.6373,7.0737,7.3003,7.3883,0.0,7.8754,0.0,0.0,7.9972,8.0107,0.0,7.8788,7.8179,7.7232,7.6352,7.5574,7.483,7.4289,7.368,7.2699,7.3105,7.3612,7.236,7.3105,0.0,6.9316,6.8335,0.0,6.2381,0.0,0.0,0.0,0.0,0.0,0.0,0.0,0.0,0.0,0.0,0.0,0.0,5.3518,5.3839,5.4786,5.6717,5.7536,5.6541,5.743,5.8066,5.8015,5.7377,5.8392,0.0,0.0,6.7221,6.8828,7.1829,7.3878,7.4891,7.6224,7.7696,7.9241,8.0878,8.2215,8.3211,8.3061,8.3691,8.4939,8.4682,8.5049,8.5857,8.6664,8.7638,8.8683,8.9216,9.006,9.1106,9.162,9.1803,9.1803,4.3569,4.3737,4.4246,4.502,4.7599,5.0051,5.1559,0.0,6.6224,0.0,7.609,8.1854,8.683,8.916,9.1095,9.2937,9.2173,8.8801,8.2298,7.967,0.0,0.0,6.9599,6.8323,6.8448,0.0,0.0,0.0,0.0,5.9081,5.9081,5.7611,5.8017,6.0148,6.3937,6.6068,6.7231,7.395,7.7266,7.8179,7.96,8.0209,8.0175,7.9397,7.9532,8.004,7.9295,7.8111,7.6893,7.686,7.6318,7.5574,7.4897,7.4637,7.439,7.2935,7.3544,7.4187,7.2033,7.2529,7.2925,7.0026,0.0,0.0,0.0,0.0,6.6318,0.0,0.0,0.0,0.0,0.0,0.0,0.0,0.0,0.0,0.0,0.0,5.3518,5.3551,5.4941,5.6234,5.7055,5.6046,5.5731,5.6685,5.4701,5.5391,0.0,0.0,6.4876,6.7842,7.1001,7.336,7.4891,7.5798,7.7041,7.8587,8.018,8.1001,8.1055,8.1852,8.2627,8.3454,8.4242,8.5013,8.582,8.6664,8.7932,8.94,8.94,9.0391,9.1803,9.1803,9.1803,9.1803,4.5294,4.67,4.7779,4.7485,4.7283,4.8509,5.2561,0.0,0.0,0.0,8.3511,9.0323,9.609,9.8216,9.8776,9.7568,9.6261,0.0,0.0,0.0,0.0,8.1299,7.9019,7.7286,7.6227,7.1277,0.0,6.7036,0.0,6.0114,6.0689,5.9167,5.8457,5.8644,6.2956,6.5595,6.7163,7.2777,7.6589,7.8923,7.9837,8.0513,0.0,0.0,7.9228,7.9228,7.7942,7.7232,7.6826,7.6217,7.5879,7.5676,7.5473,7.5439,7.5236,7.4322,7.4695,7.5168,7.4086,7.4424,7.4695,7.2834,7.1954,7.0872,0.0,0.0,0.0,0.0,0.0,0.0,0.0,0.0,0.0,0.0,0.0,0.0,0.0,0.0,0.0,5.4262,5.4448,5.458,5.4834,5.5517,5.5941,5.591,5.4858,5.5219,0.0,0.0,0.0,6.5497,6.9635,7.2809,7.4891,7.6358,7.7864,7.9408,8.1072,8.2178,8.2747,8.2361,8.2627,8.3454,8.4242,8.4719,8.5013,8.6444,8.7932,8.94,8.94,9.0391,9.1803,9.1803,9.1803,9.1803,4.6355,4.8724,5.0546,5.0266,5.2054,5.4719,5.8107,6.2755,0.0,7.8696,8.6788,0.0,9.58,10.0184,10.2198,10.0301,9.8713,0.0,9.3131,0.0,0.0,8.623,8.4573,8.2881,8.1054,7.5473,0.0,6.9722,0.0,6.1501,6.1264,5.9723,5.8964,5.9032,6.3226,6.573,6.7197,7.3105,7.7164,7.9634,8.004,8.0242,0.0,7.9058,7.8416,7.7976,7.6792,7.6386,7.6318,7.5845,7.5709,7.5709,7.5709,7.5709,7.5608,7.5202,7.5371,7.5608,7.5202,7.5371,7.5506,7.4661,7.4153,7.3274,7.1041,7.0601,7.0229,0.0,0.0,0.0,0.0,0.0,0.0,0.0,0.0,0.0,0.0,0.0,0.0,0.0,5.4278,5.429,5.4031,5.459,5.489,5.4651,5.4858,0.0,0.0,0.0,0.0,6.4186,6.9311,7.2809,7.4408,7.7071,7.8669,7.926,8.1259,8.2443,8.2884,8.2406,8.2627,8.3454,8.4242,8.4792,8.5233,8.6481,8.7932,8.9473,9.017,9.0996,9.1803,9.1803,9.1803,9.1803,4.7218,5.0459,5.3086,5.2991,5.8845,6.4345,0.0,6.967,0.0,8.098,0.0,9.3684,9.2796,9.9287,10.3179,10.1792,0.0,9.7935,9.4518,9.4142,9.245,8.8869,8.7922,8.6501,8.4403,7.8957,0.0,0.0,0.0,6.2888,6.14,5.9859,5.9487,6.025,6.3802,6.6034,6.7501,7.4018,7.7841,7.9634,8.004,7.9837,7.916,7.8314,7.7604,7.6927,7.6014,7.5709,7.5709,7.5709,7.5709,7.5709,7.5709,7.5709,7.5709,7.5709,7.5709,7.5709,7.5709,7.5709,7.5709,7.5709,7.5642,7.5067,7.3138,7.2056,7.1278,7.0601,6.8187,0.0,0.0,0.0,0.0,0.0,0.0,0.0,0.0,0.0,0.0,0.0,0.0,0.0,5.4218,5.3875,5.3635,5.3563,0.0,0.0,0.0,0.0,0.0,6.3565,6.9238,0.0,7.4402,0.0,7.9465,7.9272,8.1238,8.2186,8.2186,8.2296,8.2737,8.3454,8.4352,8.5159,8.5857,8.6664,8.7932,8.9546,9.1179,9.1803,9.1803,9.1803,9.1803,9.1803,4.9063,5.3338,5.6337,5.4645,6.1487,6.9402,7.5949,8.0855,8.5078,8.8712,9.6976,10.2504,10.2308,10.3621,10.4192,10.328,10.1925,0.0,0.0,0.0,0.0,9.2755,9.1271,9.0053,8.9072,8.2137,7.7536,0.0,0.0,0.0,6.2178,6.0622,5.9979,6.0216,6.2753,6.5696,6.9011,7.3849,0.0,7.669,7.9194,8.0107,7.987,7.8517,7.7908,7.7604,7.6217,7.5709,7.5709,7.5709,7.5709,7.5709,7.5709,7.5709,7.5709,7.5709,7.5709,7.5709,7.5709,7.5709,7.5709,7.5709,7.5236,7.4671,7.4322,7.3172,7.2157,7.2022,7.0128,6.8298,6.7641,0.0,0.0,0.0,0.0,0.0,0.0,0.0,0.0,0.0,0.0,5.5256,5.5186,5.5098,5.4851,5.4341,0.0,0.0,0.0,0.0,0.0,0.0,6.7685,0.0,0.0,0.0,8.0045,8.2575,8.2316,8.2186,8.2223,8.2884,8.3271,8.3491,8.4939,8.5673,8.5857,8.6664,8.7932,8.9546,9.1179,9.1803,9.1803,9.1803,9.1803,9.1803,5.3745,5.6643,5.9541,6.1282,6.8222,0.0,0.0,8.9695,9.3225,9.1775,9.6868,10.0179,9.8892,10.231,10.4193,10.3111,10.1995,10.0878,9.9762,9.7935,9.6274,9.4789,9.2522,0.0,8.9647,8.3084,7.8382,7.5709,0.0,0.0,0.0,0.0,6.0114,6.0216,6.2888,6.6576,7.0973,0.0,0.0,7.7096,7.9295,7.9972,7.9532,7.8416,7.7739,7.7266,7.6115,7.5709,7.5709,7.5709,7.5709,7.5709,7.5709,7.5709,7.5709,7.5709,7.5709,7.5709,7.5709,7.5709,7.5709,7.5709,7.5439,7.5067,7.4671,7.3747,7.2732,7.1988,7.0364,6.8467,6.6391,6.2755,0.0,0.0,0.0,0.0,0.0,0.0,0.0,0.0,0.0,0.0,0.0,0.0,0.0,0.0,0.0,0.0,0.0,0.0,0.0,0.0,0.0,0.0,0.0,0.0,0.0,8.1544,8.2001,8.2186,8.2223,8.3014,8.3638,8.4095,8.527,8.604,8.6518,8.7748,8.8702,8.9546,9.1179,9.1803,9.1803,9.1803,9.1803,9.1803,5.9352,6.1424,6.4441,6.8976,7.5977,8.2921,8.862,9.603,9.9408,9.5089,9.6861,9.7755,9.5627,10.0699,10.382,10.2603,10.1792,10.1115,10.0506,9.851,9.6985,9.6074,9.33,9.1,8.9342,8.3795,7.8754,0.0,0.0,0.0,0.0,0.0,0.0,6.0723,0.0,0.0,0.0,0.0,7.5202,7.7671,7.9464,7.987,7.9261,7.8517,7.7874,7.7232,7.6284,7.5946,7.5912,7.5743,7.5709,7.5709,7.5709,7.5709,7.5709,7.5709,7.5709,7.5709,7.5709,7.5709,7.5709,7.5709,7.5473,7.5067,7.4492,7.3726,7.279,7.1582,7.0282,6.8422,6.5541,6.3173,0.0,0.0,0.0,0.0,0.0,0.0,0.0,0.0,0.0,0.0,5.4443,0.0,0.0,0.0,0.0,0.0,0.0,0.0,0.0,0.0,0.0,7.0927,7.438,0.0,8.0724,0.0,8.1756,8.2296,8.248,8.3287,8.4095,8.4903,8.571,8.6407,8.7124,8.8739,8.94,8.9546,9.1179,9.1803,9.1803,9.1803,9.1803,9.1803,6.4805,6.9103,7.3072,7.5158,0.0,8.9457,9.1484,9.8317,10.3078,10.2608,10.3383,10.3586,10.2677,10.2706,10.2705,10.2502,10.1792,10.1418,10.1284,9.9796,9.8273,9.6883,9.4616,9.2353,9.0154,8.5554,8.004,0.0,0.0,0.0,0.0,0.0,0.0,0.0,0.0,0.0,0.0,7.2462,7.5067,7.6183,7.9025,8.0175,8.0006,7.9295,7.8957,7.872,7.7299,7.6792,7.669,7.5946,7.5709,7.5709,7.5709,7.5709,7.5709,7.5709,7.5709,7.5709,7.5709,7.5709,7.5709,7.5709,7.4695,7.3703,7.3635,7.2678,7.1748,7.1612,7.0725,6.9028,6.5841,6.5328,6.4396,0.0,0.0,0.0,0.0,0.0,0.0,5.7152,0.0,0.0,0.0,5.5168,0.0,0.0,5.4616,0.0,0.0,0.0,0.0,6.0358,0.0,7.1379,7.6121,7.8644,0.0,8.4104,8.2814,8.259,8.3308,8.4132,8.4939,8.571,8.6554,8.6904,8.7124,8.8739,8.94,8.9546,9.1179,9.1803,9.1803,9.1803,9.1803,9.1803,0.0,0.0,0.0,0.0,0.0,0.0,0.0,10.0689,10.328,10.4092,10.5276,10.5716,10.5005,10.4295,10.3618,10.3212,10.2502,10.1893,10.1386,10.0405,9.8916,9.6985,9.4785,9.2349,8.9579,8.6061,8.1122,0.0,0.0,0.0,0.0,0.0,0.0,0.0,0.0,6.8199,7.0398,7.3815,7.5946,7.7266,7.9363,8.0209,8.0107,7.9397,7.8822,7.8348,7.7773,7.6961,7.6183,7.6352,7.6082,7.5709,7.5709,7.5709,7.5709,7.5709,7.5709,7.5709,7.5709,7.5709,7.5709,7.5709,7.5049,7.4238,7.3624,7.2847,7.1986,7.1124,7.0127,6.898,6.7699,6.65,6.5619,0.0,0.0,0.0,0.0,0.0,0.0,0.0,0.0,5.7368,0.0,0.0,0.0,0.0,0.0,0.0,0.0,0.0,0.0,6.0531,0.0,6.9994,7.4798,7.8139,8.1158,8.3858,8.3234,8.3361,8.4168,8.4939,8.5747,8.6554,8.6885,8.6978,8.7124,8.8739,8.94,8.9546,9.1179,9.1803,9.1803,9.1803,9.1803,9.1803,8.1131,0.0,8.391,0.0,9.1346,9.3808,10.0371,10.2198,10.328,10.4498,10.558,10.5783,10.4599,10.399,10.3483,10.2976,10.2502,10.1995,10.169,10.1014,9.9559,9.7292,9.5529,0.0,8.9478,8.6941,8.2813,7.7029,7.4356,0.0,0.0,0.0,0.0,0.0,6.9011,7.1041,7.3206,7.5676,7.7333,7.8416,7.9701,8.0209,8.0107,7.9397,7.8923,7.8585,7.817,7.7324,7.642,7.6792,7.6352,7.5709,7.5709,7.5709,7.5709,7.5709,7.5709,7.5709,7.5709,7.5709,7.5709,7.5709,7.5187,7.4489,7.3774,7.3074,7.2173,7.0759,6.9872,6.9206,6.8759,6.7403,6.6548,0.0,0.0,0.0,0.0,0.0,0.0,0.0,5.8596,5.7599,5.5578,5.5417,0.0,0.0,0.0,0.0,0.0,0.0,0.0,0.0,0.0,0.0,0.0,7.8158,8.1232,8.3381,8.3638,8.4168,8.4976,8.5783,8.6481,8.7014,8.7252,8.7344,8.7472,8.9069,8.9767,8.9877,9.1253,9.1803,9.1803,9.1803,9.1803,9.1803,8.638,8.8828,9.1479,9.6007,9.8612,10.0405,10.1316,10.2603,10.3922,10.4598,10.47,10.3922,10.1722,10.1386,10.1386,10.1386,10.1386,10.169,10.2368,10.1792,10.0402,0.0,0.0,9.4755,9.029,8.8734,8.5384,8.0141,0.0,0.0,7.1188,0.0,7.015,7.0285,7.3206,7.4559,7.4772,7.7782,7.9067,7.9135,7.9904,8.0209,8.0107,7.9397,7.9566,7.9972,7.8517,7.8,7.7865,7.713,7.6352,7.5709,7.5709,7.5709,7.5709,7.5709,7.5709,7.5709,7.5709,7.5709,7.5709,7.5709,7.4814,7.3912,7.3912,7.3078,7.1927,7.0664,7.0394,6.9911,6.8394,6.8083,6.7542,6.5886,0.0,0.0,0.0,0.0,0.0,0.0,5.9529,5.8773,5.5683,5.5417,0.0,0.0,0.0,0.0,0.0,0.0,0.0,6.2141,6.7316,0.0,7.5132,7.9052,8.1803,8.3418,8.4205,8.5013,8.582,8.6628,8.6978,8.7014,8.7839,8.8206,8.8316,8.9931,9.0592,9.0665,9.1473,9.1803,9.1803,9.1803,9.1803,9.1803,9.2554,9.4006,9.5533,9.7969,9.8984,10.01,10.1893,10.2502,10.3111,10.3922,10.4023,10.3483,10.2299,10.2603,10.2502,0.0,10.1925,10.1995,0.0,10.1487,10.0371,9.8104,9.6345,9.3774,9.029,8.826,8.5452,8.1697,0.0,0.0,0.0,7.3308,7.3206,7.3341,7.6352,7.7942,7.8551,8.0513,8.1054,8.0615,8.0851,8.0648,8.0175,7.9938,7.9363,7.8686,7.8754,7.7739,7.6487,7.6792,7.6352,7.5709,7.5709,7.5709,7.5709,7.5709,7.5709,7.5757,7.5899,7.5947,7.6028,7.6182,7.5697,7.4945,7.4275,7.3176,7.2022,7.1144,7.0636,7.0104,6.9104,6.8483,6.7926,6.7384,0.0,0.0,0.0,0.0,0.0,0.0,6.0367,5.9873,0.0,5.7725,0.0,0.0,0.0,0.0,0.0,0.0,0.0,0.0,6.9122,0.0,7.5812,7.9794,8.2627,8.4242,8.5013,8.5857,8.6628,8.6867,8.6978,8.7014,8.7839,8.8206,8.8316,8.9931,9.0592,9.0702,9.1473,9.1803,9.1803,9.1803,9.1803,9.1803,9.5804,9.6582,9.7258,9.8476,9.9153,9.9999,10.1419,10.2098,10.2705,10.3111,10.2908,10.2603,10.2096,10.2198,0.0,10.1792,10.2198,10.2299,10.1792,10.1621,10.0371,9.8104,9.6142,9.3706,9.0696,0.0,0.0,8.4505,8.2611,8.0006,7.669,7.669,7.686,7.7232,7.9667,8.0851,8.1088,8.2035,8.1968,8.1283,8.0987,8.0615,8.0175,7.9904,7.9397,7.8788,7.872,7.7773,7.6589,7.6826,7.6352,7.5733,7.5828,7.5852,7.5852,7.5852,7.5852,7.5899,7.6192,7.6169,7.6169,7.6425,7.6097,7.542,7.429,7.3417,7.2562,7.153,7.0829,7.0173,6.9449,6.8655,6.8083,6.8083,0.0,6.6674,6.5739,0.0,0.0,0.0,0.0,0.0,0.0,5.9654,0.0,0.0,0.0,0.0,0.0,0.0,0.0,6.7013,7.1505,0.0,7.8369,8.1525,8.3765,8.5049,8.5857,8.6518,8.6978,8.6978,8.7178,8.7509,8.8316,8.883,8.9197,9.0519,9.1069,9.1106,9.1583,9.1803,9.1803,9.1803,9.1803,9.1803,9.6683,9.6985,0.0,0.0,9.9223,0.0,10.0303,10.1489,10.2502,10.2502,10.1925,10.1418,10.1418,10.0709,10.0811,10.2231,0.0,0.0,0.0,10.1589,10.0202,9.8037,9.6514,9.4349,9.1372,8.985,8.8694,8.7854,8.4302,8.1832,8.0412,8.0412,8.0784,8.152,8.2949,8.3186,8.2577,8.2577,8.2137,8.1418,8.0648,8.031,8.0209,7.9464,7.9566,7.9938,7.8551,7.8044,7.7899,7.7198,7.6478,7.5849,7.6096,7.6156,7.6145,7.6145,7.6122,7.6192,7.6449,7.6356,7.6216,7.6472,7.6142,7.5406,7.4145,7.383,7.3347,7.1739,7.0898,7.0173,6.938,6.8621,6.8049,6.7945,6.7315,6.6496,6.5491,0.0,0.0,0.0,0.0,0.0,0.0,6.1329,6.1795,0.0,0.0,0.0,0.0,0.0,6.6416,7.0146,7.4221,7.8222,8.215,8.3838,8.5086,8.5894,8.6628,8.6978,8.6978,8.7051,8.7509,8.8243,8.9106,8.9913,9.0665,9.1473,9.1803,9.1803,9.1803,9.1803,9.1803,9.1803,9.1803,9.1803,0.0,0.0,9.7969,9.8713,9.9593,10.0405,10.1014,10.1893,10.2502,10.2502,10.1925,10.1418,10.1418,10.0709,10.0305,10.0677,10.0711,10.0506,9.9931,9.9728,9.8882,9.7225,9.5736,9.3808,9.1338,8.985,8.8186,8.6298,8.4843,8.3625,8.2712,8.2712,8.2813,8.3016,8.393,8.4242,8.4072,8.4072,8.3659,8.2915,8.2171,8.1528,8.0978,8.0209,7.9701,7.9304,7.8957,7.8483,7.7942,7.7773,7.7343,7.6843,7.6914,7.6822,7.6622,7.6449,7.6402,7.6449,7.6668,7.6691,7.6714,7.6976,7.6538,7.5755,7.4856,7.4188,7.3209,7.1105,7.0518,7.0001,6.8635,6.8221,6.7738,6.662,6.5771,6.488,6.3875,6.3112,0.0,0.0,6.3873,6.4386,6.4825,6.4106,6.4011,0.0,0.0,0.0,0.0,6.8715,7.0954,7.1908,7.646,8.0,8.2186,8.4389,8.593,8.6738,8.6904,8.6978,8.7014,8.7655,8.8023,8.828,8.9711,9.0427,9.0665,9.1473,9.1803,9.1803,9.1803,9.1803,9.1803,9.1803,9.1803,9.1803,9.7935,9.8273,9.851,9.8578,9.9796,10.0811,10.0811,10.1792,10.2401,10.1995,10.1318,10.0878,10.0878,9.9863,9.9356,9.966,10.0001,10.0001,9.9627,9.8984,9.807,9.6951,9.5161,9.3436,9.1846,9.0696,8.9201,8.7306,8.6196,8.5283,8.4539,8.4167,8.3998,8.4031,8.4411,8.4614,8.458,8.4242,8.3862,8.3422,8.2712,8.2045,8.1461,8.1054,8.0494,7.9914,7.9599,7.9191,7.8808,7.8444,7.7894,7.74,7.7518,7.7204,7.6793,7.6839,7.6748,7.6691,7.6918,7.6896,7.6839,7.7133,7.6891,7.6304,7.5167,7.458,7.3671,7.136,7.0636,7.0136,6.93,6.8856,6.8205,6.7019,6.5864,6.4751,6.3785,6.2708,0.0,6.4427,6.5031,6.5912,6.7467,6.7136,6.7063,6.7577,0.0,0.0,6.8641,7.2165,7.4147,7.4147,7.8883,8.2223,8.3838,8.5527,8.6591,8.6978,8.6978,8.6978,8.7014,8.7839,8.839,8.8776,8.9657,9.0464,9.1143,9.1216,9.1473,9.1803,9.1803,9.1803,9.1803,9.1803,9.1803,9.1803,9.8003,9.851,9.8747,9.8104,9.9694,10.0811,10.0102,10.1185,10.1927,10.1284,10.0506,10.0001,10.0001,9.8815,9.824,9.8882,9.9525,9.9866,9.9866,9.8612,9.7495,9.6781,9.4823,9.3334,9.2426,9.1575,9.0459,8.91,8.7719,8.6636,8.5784,8.5114,8.4715,8.4614,8.4614,8.464,8.4626,8.4009,8.3764,8.3723,8.3011,8.2462,8.2079,8.1841,8.149,8.1073,8.0346,8.0072,7.997,7.9286,7.8569,7.8024,7.8257,7.7743,7.709,7.7328,7.7135,7.6918,7.7156,7.7031,7.6918,7.7156,7.7201,7.6787,7.527,7.4925,7.427,7.1981,7.0981,7.0485,7.024,6.9654,6.8785,6.7467,6.6206,6.5012,6.3856,0.0,6.3107,6.5383,6.5985,6.7086,6.9412,7.022,7.0403,6.9839,7.1711,7.2642,0.0,7.4992,7.6754,7.7011,8.1179,8.4242,8.5967,8.6664,8.6978,8.6978,8.6978,8.6978,8.7014,8.7949,8.8739,8.94,8.9657,9.0555,9.173,9.1069,9.1179,9.1803,9.1803,9.1803,9.1803,9.1803,9.1803,9.1803,9.8003,9.8104,9.8138,9.8037,9.8815,9.939,9.9288,9.9999,10.0508,10.0405,9.9728,9.9254,9.9254,9.851,9.807,9.8172,9.8273,9.8341,9.8341,9.7529,9.6717,9.6007,9.506,9.3876,9.2426,9.1068,8.9951,8.91,8.8226,8.711,8.5817,8.5655,8.5249,8.4614,8.4614,8.4773,8.5011,8.4909,8.4972,8.5112,8.4387,8.4037,8.3849,8.2526,8.2005,8.1825,8.1073,8.0834,8.08,8.0697,8.0261,7.9812,7.9859,7.9096,7.8178,7.8201,7.7695,7.7156,7.7201,7.7178,7.7156,7.7201,7.7201,7.6787,7.527,7.4925,7.427,7.1981,7.1394,7.0915,6.9626,6.9285,6.8112,6.4719,6.4405,6.3841,6.1712,0.0,6.4757,6.7046,6.9119,7.105,7.2789,7.3061,7.3377,7.3913,7.4316,7.4757,7.5322,7.7834,7.9853,8.1195,8.2647,8.4482,8.6811,8.6958,8.6978,8.6978,8.6978,8.6978,8.7051,8.8519,8.929,8.9473,9.0849,9.1583,9.1803,9.1657,9.1693,9.1803,9.1803,9.1803,9.1803,9.1803,9.1803,9.1803,9.8003,9.8307,9.8578,9.8578,9.9221,9.9694,9.9694,10.0303,10.0709,10.0303,10.0303,10.0303,10.0303,9.966,9.9155,9.9155,9.9155,9.8848,9.807,9.692,9.6142,9.5804,9.4721,9.3774,9.3064,9.1575,9.0628,9.0256,8.8734,8.7734,8.7186,8.6244,8.5749,8.5668,8.5102,8.5037,8.5333,8.5333,8.5411,8.548,8.5104,8.4831,8.4504,8.3348,8.2737,8.2413,8.1692,8.1417,8.1417,8.1417,8.0974,8.0415,8.0415,7.9763,7.8913,7.8534,7.7821,7.7201,7.7201,7.7201,7.7201,7.7201,7.7201,7.6787,7.527,7.4925,7.427,7.1981,7.1498,7.1157,7.0065,7.018,6.9724,6.7459,6.6962,0.0,0.0,6.5473,6.6829,6.8775,7.1101,7.3413,7.5432,7.5652,7.5983,7.6827,7.69,7.7451,7.8662,8.0241,8.1819,8.3434,8.4682,8.5877,8.6978,8.7435,8.7435,8.7014,8.7435,8.7655,8.7692,8.8849,8.9657,9.0097,9.0849,9.14,9.1767,9.1326,9.14,9.1803,9.1803,9.1803,9.1803,9.1803,9.1803,9.1803,9.8003,9.8476,9.8848,9.8848,9.9322,9.973,9.9931,10.0506,10.0608,10.0001,10.0506,10.091,10.091,10.0303,10.0001,10.017,10.0204,9.9728,9.8705,9.711,9.6064,9.5804,9.4472,9.3718,9.3806,9.2314,9.1534,9.1534,8.9268,8.8218,8.8198,8.669,8.6083,8.6334,8.5545,8.5325,8.5583,8.5583,8.5609,8.5695,8.5695,8.5368,8.4823,8.4205,8.3537,8.2845,8.2259,8.1948,8.181,8.181,8.1397,8.0856,8.0856,8.0339,7.9614,7.8879,7.812,7.7442,7.7235,7.7201,7.7201,7.7201,7.7063,7.658,7.5201,7.4787,7.4098,7.2188,7.1905,7.1792,7.105,7.1375,7.1314,6.9896,0.0,0.0,0.0,6.8096,6.9192,7.0991,7.3193,7.5432,7.7656,7.8206,7.8647,7.9103,7.969,8.0461,8.1509,8.2333,8.3398,8.4829,8.6077,8.6811,8.6978,8.7802,8.7802,8.7014,8.7839,8.8206,8.8243,8.9033,8.984,9.0629,9.0812,9.1216,9.173,9.1143,9.1253,9.1803,9.1803,9.1803,9.1803,9.1803,9.1803,9.1803,9.8003,9.8037,9.807,9.807,9.8138,9.8409,9.9085,9.9221,9.9254,9.9187,9.9221,9.9254,9.9254,9.9221,9.9457,10.0102,10.0204,10.0294,10.0505,9.8496,9.6847,9.5868,9.4615,9.4126,9.4414,9.294,9.2155,9.2155,8.9874,8.8406,8.7743,8.6931,8.6206,8.5583,8.5489,8.5609,8.5865,8.5865,8.6017,8.6219,8.6219,8.5796,8.5166,8.5097,8.4166,8.2914,8.2845,8.2397,8.181,8.181,8.1776,8.1707,8.1707,8.1155,8.0373,7.9638,7.8913,7.8154,7.7408,7.7201,7.7201,7.7201,7.6684,7.596,7.5098,7.4361,7.3658,7.2795,7.316,7.3373,7.2583,7.2477,7.156,6.8533,0.0,0.0,6.6976,6.9222,7.1894,7.428,7.6004,7.7693,7.9449,8.0938,8.1562,8.0865,8.2884,8.3875,8.3271,8.3985,8.4829,8.5673,8.5837,8.6261,8.6978,8.7802,8.7802,8.7014,8.7839,8.8206,8.8243,8.9033,8.984,9.0629,9.14,9.173,9.1803,9.173,9.173,9.1803,9.1803,9.1803,9.1803,9.1803,9.1803,9.1803,9.8578,9.8307,9.8307,9.9189,9.8984,9.8916,9.9694,10.0202,10.0506,10.0506,10.0912,10.1312,10.1502,10.15,10.1495,10.161,10.1476,10.1198,10.0402,9.9102,9.7372,9.5108,9.4548,9.4385,9.45,9.2996,9.2211,9.2211,9.0434,8.949,8.937,8.8457,8.7809,8.7401,8.674,8.6337,8.6144,8.6144,8.6194,8.6294,8.6294,8.6122,8.5846,8.5363,8.4535,8.3511,8.3087,8.2431,8.181,8.181,8.181,8.181,8.181,8.1603,8.119,8.0407,7.9649,7.9017,7.8718,7.827,7.7821,7.7304,7.6649,7.6029,7.5718,7.5468,7.5191,7.4912,7.507,7.5212,7.4957,7.4447,7.3885,7.3225,0.0,7.202,7.2474,7.3538,7.4793,7.6225,7.828,8.0057,8.1175,8.2296,8.303,8.3214,8.4535,8.5196,8.4903,8.5637,8.6224,8.6518,8.7031,8.7435,8.7729,8.8519,8.8776,8.8482,8.8812,8.9216,8.9711,8.9987,9.0592,9.1363,9.1657,9.1803,9.1803,9.1803,9.1803,9.1803,9.1803,9.1803,9.1803,9.1803,9.1803,9.1803,9.8645,9.8341,9.8341,9.9325,9.9085,9.9085,10.01,10.0709,10.1081,10.1418,10.1888,10.242,10.2609,10.2701,10.2791,10.2702,10.2528,10.1879,10.1006,9.9693,9.7741,9.5121,9.4745,9.4671,9.4784,9.3276,9.2488,9.2488,9.074,9.0025,9.0177,8.9236,8.8586,8.8191,8.7435,8.6807,8.6294,8.6294,8.6294,8.6294,8.6294,8.6156,8.5915,8.5639,8.4915,8.3924,8.3407,8.2776,8.2121,8.1879,8.181,8.181,8.181,8.1638,8.1362,8.1063,8.0442,7.9856,7.9856,7.9477,7.889,7.8132,7.7373,7.6822,7.6822,7.6696,7.6558,7.6558,7.6775,7.6966,7.702,7.6519,7.6223,7.6583,7.5598,7.5212,7.6313,7.6717,7.7268,7.8353,8.0204,8.1709,8.2517,8.3544,8.4389,8.4939,8.571,8.6187,8.6187,8.6701,8.7124,8.7362,8.7912,8.8426,8.894,8.951,8.9657,8.94,8.9657,9.006,9.0592,9.0592,9.1033,9.1803,9.1803,9.1803,9.1803,9.1803,9.1803,9.1803,9.1803,9.1803,9.1803,9.1803,9.1803,9.1803,9.8003,9.8003,9.8003,9.8003,9.8037,9.851,9.9967,10.0204,10.0506,10.1316,10.1703,10.1924,10.189,10.2171,10.2696,10.3417,10.2802,10.2413,10.2815,10.0323,9.7976,9.6212,9.5359,9.5087,9.54,9.3882,9.3089,9.3089,9.0812,8.9709,8.9709,8.895,8.8191,8.7432,8.7407,8.7018,8.6329,8.6294,8.6294,8.6294,8.6294,8.5846,8.5294,8.6018,8.5363,8.3993,8.3993,8.3545,8.2811,8.2052,8.181,8.181,8.181,8.1235,8.0752,8.1569,8.1235,8.0614,8.0614,8.0614,8.0442,7.9683,7.8948,7.8396,7.8396,7.7845,7.7331,7.7331,7.8031,7.8628,7.8628,7.8617,7.8332,7.7472,7.7326,7.7326,7.7362,7.8075,7.9213,8.0828,8.1746,8.2517,8.3344,8.4866,8.58,8.58,8.6554,8.6978,8.6978,8.7014,8.7399,8.8169,8.8206,8.8977,9.0592,9.0592,9.017,8.9436,9.0207,9.0592,9.0592,9.0629,9.1033,9.1803,9.1803,9.1803,9.1803,9.1803,9.1803,9.1803,9.1803,9.1803,9.1803,9.1803,9.1803,9.1803,9.8679,9.8375,9.8172,9.8679,9.9221,9.9757,10.0383,10.1497,10.2274,10.2799,10.3024,10.3115,10.3299,10.3522,10.3474,10.3409,10.2717,10.1818,10.0806,9.8515,9.7199,9.7218,9.5978,9.5282,9.54,9.3882,9.3089,9.3089,9.133,9.0467,9.0467,9.026,8.9743,8.8984,8.8467,8.7812,8.7053,8.6536,8.6294,8.6294,8.6294,8.6191,8.6018,8.6225,8.5708,8.4846,8.4846,8.4363,8.3545,8.2845,8.2569,8.25,8.1948,8.1638,8.15,8.1741,8.1638,8.1431,8.1431,8.1431,8.1155,7.9844,7.8948,7.8542,7.9117,7.909,7.9115,7.9709,8.0075,8.0446,8.1011,8.0186,7.9543,7.9858,7.9433,7.9433,8.0571,8.0498,8.1085,8.3287,8.3251,8.3581,8.4939,8.5527,8.604,8.6591,8.6885,8.6978,8.6978,8.7545,8.7949,8.8206,8.8739,8.9546,9.0592,9.0024,8.9913,9.0244,9.0482,9.0592,9.0629,9.1179,9.1583,9.1803,9.1803,9.1803,9.1803,9.1803,9.1803,9.1803,9.1803,9.1803,9.1803,9.1803,9.1803,9.1803,9.8578,9.8307,9.8169,9.8764,9.9238,9.9837,10.079,10.1706,10.2618,10.342,10.3579,10.3769,10.3985,10.4105,10.3982,10.3401,10.2573,10.1401,9.9573,9.8159,9.7331,9.7227,9.602,9.5262,9.4951,9.3744,9.2951,9.264,9.1433,9.0812,9.0812,9.0812,9.026,8.926,8.8812,8.7984,8.6949,8.6501,8.6294,8.6294,8.6294,8.6294,8.6294,8.6294,8.6018,8.5604,8.5294,8.488,8.4363,8.3604,8.3362,8.3259,8.2811,8.2673,8.2604,8.2328,8.2259,8.219,8.1879,8.181,8.1569,8.0638,8.0086,7.9959,8.078,8.1036,8.1311,8.2141,8.2106,8.2223,8.2994,8.2076,8.1489,8.2296,8.2003,8.2039,8.2994,8.2737,8.2957,8.4425,8.4462,8.4719,8.571,8.6077,8.6481,8.6941,8.6978,8.7124,8.7472,8.7949,8.85,8.9124,8.929,8.995,9.1069,9.028,9.028,9.1069,9.1069,9.1069,9.1106,9.1583,9.1803,9.1803,9.1803,9.1803,9.1803,9.1803,9.1803,9.1803,9.1803,9.1803,9.1803,9.1803,9.1803,9.1803,9.8003,9.8003,9.8126,9.8462,9.8591,9.9189,10.0889,10.1192,10.1804,10.3305,10.3724,10.3978,10.4012,10.4319,10.4087,10.3328,10.2431,10.0987,9.905,9.8739,9.7986,9.6676,9.5813,9.5055,9.4323,9.3503,9.2813,9.2192,9.1261,9.0847,9.0916,9.0847,9.0088,8.8777,8.8639,8.7812,8.6501,8.6363,8.6294,8.6294,8.6294,8.6294,8.6294,8.6294,8.6294,8.6225,8.5535,8.5294,8.519,8.4397,8.4062,8.3993,8.3993,8.3993,8.3855,8.3121,8.2962,8.2861,8.2194,8.2092,8.2163,8.2163,8.2197,8.2396,8.2967,8.3216,8.3558,8.435,8.3965,8.3711,8.4462,8.4005,8.3748,8.4499,8.4609,8.4646,8.4682,8.4646,8.4646,8.4792,8.538,8.5837,8.5894,8.6591,8.6978,8.6978,8.7051,8.7435,8.8169,8.8353,8.9087,9.0555,8.9877,9.0244,9.1767,9.0996,9.0959,9.1693,9.1767,9.1767,9.1693,9.1767,9.1803,9.1803,9.1803,9.1803,9.1803,9.1803,9.1803,9.1803,9.1803,9.1803,9.1803,9.1803,9.1803,9.1803,9.8003,9.8218,9.8432,9.8493,9.9182,9.9966,10.0605,10.1214,10.2025,10.3195,10.3389,10.369,10.431,10.3888,10.3293,10.2504,10.0706,9.9573,9.9642,9.7986,9.7124,9.7428,9.6124,9.5055,9.4323,9.3503,9.333,9.3806,9.1778,9.1123,9.1709,9.1088,9.064,9.026,8.9122,8.8398,8.8019,8.6811,8.6294,8.6294,8.6294,8.6294,8.6294,8.6294,8.6294,8.6294,8.6122,8.6053,8.5949,8.519,8.4535,8.3993,8.3993,8.3993,8.3855,8.3121,8.3356,8.391,8.3793,8.4247,8.4776,8.4776,8.5237,8.5266,8.3567,8.3721,8.4296,8.4545,8.4454,8.4389,8.4572,8.4462,8.4389,8.4572,8.4609,8.4829,8.5453,8.5013,8.5086,8.6317,8.6077,8.604,8.6701,8.6904,8.6978,8.6978,8.7582,8.8023,8.8206,8.9381,9.0262,9.0592,9.0445,9.0812,9.1803,9.0996,9.0702,9.0886,9.151,9.1473,9.0886,9.151,9.1803,9.1803,9.1803,9.1803,9.1803,9.1803,9.1803,9.1803,9.1803,9.1803,9.1803,9.1803,9.1803,9.1803,9.8249,9.8493,9.8765,9.8945,9.9437,9.9988,10.0693,10.1199,10.1706,10.2711,10.281,10.2884,10.3397,10.2987,10.25,10.1677,10.0602,9.9602,9.8912,9.84,9.7676,9.6669,9.6158,9.5572,9.4813,9.3675,9.3123,9.3192,9.1985,9.1399,9.1433,9.1019,9.0605,9.0226,8.9088,8.8398,8.795,8.6811,8.6294,8.6294,8.6294,8.6294,8.6294,8.6294,8.6294,8.6294,8.6294,8.6294,8.626,8.5846,8.5466,8.5121,8.5121,8.5395,8.5631,8.4865,8.5282,8.59,8.559,8.5828,8.615,8.615,8.6803,8.698,8.5342,8.5314,8.5771,8.6215,8.571,8.5306,8.5673,8.5416,8.5306,8.5673,8.5747,8.5894,8.6297,8.6004,8.606,8.6904,8.6628,8.6701,8.7509,8.7932,8.7968,8.7619,8.8316,8.8776,8.8776,8.9913,9.0776,9.1179,9.1179,9.1363,9.1803,9.1363,9.1179,9.1179,9.1583,9.1583,9.1179,9.162,9.1803,9.1803,9.1803,9.1803,9.1803,9.1803,9.1803,9.1803,9.1803,9.1803,9.1803,9.1803,9.1803,9.1803,9.8584,9.8859,9.9159,9.9455,9.9543,9.9867,10.0814,10.0913,10.1189,10.1913,10.1987,10.2086,10.2224,10.212,10.1677,10.1016,10.0913,10.0119,9.8222,9.8952,9.84,9.5882,9.6124,9.602,9.54,9.402,9.302,9.2399,9.1985,9.1502,9.1019,9.0881,9.0467,8.9847,8.8984,8.8226,8.757,8.6674,8.6294,8.6294,8.6294,8.6294,8.6294,8.6294,8.6294,8.6294,8.6294,8.6294,8.6294,8.6294,8.6419,8.6533,8.6533,8.717,8.7781,8.7042,8.7452,8.8004,8.7381,8.7326,8.7429,8.7429,8.8117,8.8495,8.7732,8.7314,8.732,8.8046,8.7142,8.6371,8.6904,8.6554,8.6407,8.7105,8.7198,8.7234,8.7381,8.7271,8.7234,8.7381,8.7418,8.7675,8.8353,8.8996,8.9106,8.8463,8.9143,8.962,8.962,9.0354,9.1106,9.1767,9.1803,9.1803,9.1803,9.1803,9.1803,9.1803,9.1803,9.1803,9.1803,9.1803,9.1803,9.1803,9.1803,9.1803,9.1803,9.1803,9.1803,9.1803,9.1803,9.1803,9.1803,9.1803,9.1803,9.1803,9.895,9.9189,9.9455,9.9485,9.9685,9.9889,10.0021,10.0119,10.0297,10.109,10.1194,10.1499,10.2091,10.1573,10.0883,10.009,10.0119,9.9918,9.9607,9.8601,9.7842,9.7428,9.6221,9.5503,9.54,9.4599,9.4116,9.4013,9.195,9.1261,9.1813,9.1123,9.0743,9.0605,8.9191,8.8536,8.8329,8.6915,8.6294,8.6294,8.6294,8.6294,8.6294,8.6294,8.6294,8.6294,8.6294,8.6294,8.6294,8.6294,8.6818,8.7526,8.7526,8.8129,8.8768,8.7971,8.8392,8.9083,8.8978,8.952,9.01,9.01,9.0704,9.1107,9.0283,8.9,8.8046,8.8189,8.8023,8.7692,8.7105,8.7472,8.7912,8.8023,8.8059,8.828,8.8996,8.85,8.8316,8.8996,8.9069,8.9106,8.9216,8.9326,8.9363,8.9253,8.9987,9.0427,9.0427,9.1216,9.1693,9.1803,9.1803,9.1803,9.1803,9.1803,9.1803,9.1803,9.1803,9.1803,9.1803,9.1803,9.1803,9.1803,9.1803,9.1803,9.1803,9.1803,9.1803,9.1803,9.1803,9.1803,9.1803,9.1803,9.1803,9.1803,9.9278,9.9509,9.9714,9.9714,9.9831,9.9883,9.9883,9.9883,9.9987,10.0395,10.0401,10.0602,10.0913,10.0608,10.0326,9.9918,9.9504,9.909,9.8705,9.8084,9.7325,9.6434,9.6158,9.5813,9.54,9.4227,9.3606,9.3606,9.2192,9.1433,9.133,9.0985,9.0571,9.0157,8.9053,8.8364,8.7881,8.6777,8.6294,8.6294,8.6294,8.6294,8.6294,8.6294,8.6294,8.6294,8.6294,8.6632,8.7085,8.7085,8.7702,8.8468,8.8468,8.9128,8.9796,8.9457,8.9989,9.0698,9.0681,9.096,9.1253,9.1253,9.1546,9.1693,9.1363,9.0372,8.9528,8.9528,8.9197,8.8739,8.8409,8.8629,8.8849,8.8849,8.8849,8.8996,8.9363,8.9069,8.8996,8.9363,8.9803,9.006,9.006,9.0464,9.0555,9.0097,9.0812,9.1069,9.0629,9.1363,9.1803,9.1803,9.1803,9.1803,9.1803,9.1803,9.1803,9.1803,9.1803,9.1803,9.1803,9.1803,9.1803,9.1803,9.1803,9.1803,9.1803,9.1803,9.1803,9.1803,9.1803,9.1803,9.1803,9.1803,9.1803,9.1803]}]]